<?xml version="1.0" encoding="UTF-8" standalone="no" ?>
<gpx xmlns="http://www.topografix.com/GPX/1/1" xmlns:xsi="http://www.w3.org/2001/XMLSchema-instance" xsi:schemaLocation="http://www.topografix.com/GPX/1/1 http://www.topografix.com/GPX/1/1/gpx.xsd" version="1.1" creator="VisuGPX - https://www.visugpx.com">
  <metadata>
    <name>Grand Rocher</name>
    <desc><![CDATA[Grand Rocher, depuis la route au dessus du Col du Barioz ]]></desc>
  </metadata>
  <trk>
    <name><![CDATA[Trk064]]></name>
    <trkseg>
      <trkpt lat="45.33046" lon="6.03404">
        <ele>1116</ele>
        <time>2016-03-13T08:12:04Z</time>
      </trkpt>
      <trkpt lat="45.33047" lon="6.034">
        <ele>1117</ele>
        <time>2016-03-13T08:12:09Z</time>
      </trkpt>
      <trkpt lat="45.33048" lon="6.03398">
        <ele>1117</ele>
        <time>2016-03-13T08:12:14Z</time>
      </trkpt>
      <trkpt lat="45.33046" lon="6.03393">
        <ele>1116</ele>
        <time>2016-03-13T08:12:19Z</time>
      </trkpt>
      <trkpt lat="45.33047" lon="6.03386">
        <ele>1116</ele>
        <time>2016-03-13T08:12:24Z</time>
      </trkpt>
      <trkpt lat="45.33049" lon="6.0338">
        <ele>1116</ele>
        <time>2016-03-13T08:12:29Z</time>
      </trkpt>
      <trkpt lat="45.3305" lon="6.03376">
        <ele>1116</ele>
        <time>2016-03-13T08:12:34Z</time>
      </trkpt>
      <trkpt lat="45.33051" lon="6.03371">
        <ele>1117</ele>
        <time>2016-03-13T08:12:39Z</time>
      </trkpt>
      <trkpt lat="45.33053" lon="6.03366">
        <ele>1117</ele>
        <time>2016-03-13T08:12:44Z</time>
      </trkpt>
      <trkpt lat="45.33054" lon="6.0336">
        <ele>1117</ele>
        <time>2016-03-13T08:12:49Z</time>
      </trkpt>
      <trkpt lat="45.33055" lon="6.03355">
        <ele>1117</ele>
        <time>2016-03-13T08:12:54Z</time>
      </trkpt>
      <trkpt lat="45.33056" lon="6.0335">
        <ele>1117</ele>
        <time>2016-03-13T08:12:59Z</time>
      </trkpt>
      <trkpt lat="45.33056" lon="6.03345">
        <ele>1117</ele>
        <time>2016-03-13T08:13:04Z</time>
      </trkpt>
      <trkpt lat="45.33056" lon="6.03339">
        <ele>1117</ele>
        <time>2016-03-13T08:13:09Z</time>
      </trkpt>
      <trkpt lat="45.33056" lon="6.03333">
        <ele>1117</ele>
        <time>2016-03-13T08:13:14Z</time>
      </trkpt>
      <trkpt lat="45.33055" lon="6.03328">
        <ele>1116</ele>
        <time>2016-03-13T08:13:19Z</time>
      </trkpt>
      <trkpt lat="45.33053" lon="6.03323">
        <ele>1116</ele>
        <time>2016-03-13T08:13:24Z</time>
      </trkpt>
      <trkpt lat="45.33051" lon="6.03317">
        <ele>1116</ele>
        <time>2016-03-13T08:13:29Z</time>
      </trkpt>
      <trkpt lat="45.33048" lon="6.03312">
        <ele>1116</ele>
        <time>2016-03-13T08:13:34Z</time>
      </trkpt>
      <trkpt lat="45.33045" lon="6.03307">
        <ele>1116</ele>
        <time>2016-03-13T08:13:39Z</time>
      </trkpt>
      <trkpt lat="45.33043" lon="6.03303">
        <ele>1116</ele>
        <time>2016-03-13T08:13:44Z</time>
      </trkpt>
      <trkpt lat="45.33041" lon="6.03298">
        <ele>1116</ele>
        <time>2016-03-13T08:13:49Z</time>
      </trkpt>
      <trkpt lat="45.33038" lon="6.03293">
        <ele>1117</ele>
        <time>2016-03-13T08:13:54Z</time>
      </trkpt>
      <trkpt lat="45.33036" lon="6.03288">
        <ele>1117</ele>
        <time>2016-03-13T08:13:59Z</time>
      </trkpt>
      <trkpt lat="45.33033" lon="6.03283">
        <ele>1117</ele>
        <time>2016-03-13T08:14:04Z</time>
      </trkpt>
      <trkpt lat="45.33031" lon="6.03279">
        <ele>1118</ele>
        <time>2016-03-13T08:14:09Z</time>
      </trkpt>
      <trkpt lat="45.33029" lon="6.03274">
        <ele>1119</ele>
        <time>2016-03-13T08:14:14Z</time>
      </trkpt>
      <trkpt lat="45.33027" lon="6.03269">
        <ele>1119</ele>
        <time>2016-03-13T08:14:19Z</time>
      </trkpt>
      <trkpt lat="45.33024" lon="6.03264">
        <ele>1119</ele>
        <time>2016-03-13T08:14:24Z</time>
      </trkpt>
      <trkpt lat="45.33021" lon="6.0326">
        <ele>1120</ele>
        <time>2016-03-13T08:14:29Z</time>
      </trkpt>
      <trkpt lat="45.33019" lon="6.03255">
        <ele>1120</ele>
        <time>2016-03-13T08:14:34Z</time>
      </trkpt>
      <trkpt lat="45.33016" lon="6.03251">
        <ele>1120</ele>
        <time>2016-03-13T08:14:39Z</time>
      </trkpt>
      <trkpt lat="45.33013" lon="6.03246">
        <ele>1120</ele>
        <time>2016-03-13T08:14:44Z</time>
      </trkpt>
      <trkpt lat="45.3301" lon="6.03241">
        <ele>1120</ele>
        <time>2016-03-13T08:14:49Z</time>
      </trkpt>
      <trkpt lat="45.33008" lon="6.03237">
        <ele>1121</ele>
        <time>2016-03-13T08:14:54Z</time>
      </trkpt>
      <trkpt lat="45.33005" lon="6.03231">
        <ele>1121</ele>
        <time>2016-03-13T08:14:59Z</time>
      </trkpt>
      <trkpt lat="45.33003" lon="6.03227">
        <ele>1122</ele>
        <time>2016-03-13T08:15:04Z</time>
      </trkpt>
      <trkpt lat="45.33" lon="6.03223">
        <ele>1122</ele>
        <time>2016-03-13T08:15:09Z</time>
      </trkpt>
      <trkpt lat="45.32998" lon="6.03221">
        <ele>1122</ele>
        <time>2016-03-13T08:15:14Z</time>
      </trkpt>
      <trkpt lat="45.32998" lon="6.03221">
        <ele>1122</ele>
        <time>2016-03-13T08:15:19Z</time>
      </trkpt>
      <trkpt lat="45.32998" lon="6.03222">
        <ele>1122</ele>
        <time>2016-03-13T08:15:24Z</time>
      </trkpt>
      <trkpt lat="45.32997" lon="6.03222">
        <ele>1122</ele>
        <time>2016-03-13T08:15:29Z</time>
      </trkpt>
      <trkpt lat="45.32998" lon="6.03222">
        <ele>1121</ele>
        <time>2016-03-13T08:15:34Z</time>
      </trkpt>
      <trkpt lat="45.32997" lon="6.03222">
        <ele>1122</ele>
        <time>2016-03-13T08:15:39Z</time>
      </trkpt>
      <trkpt lat="45.32996" lon="6.03222">
        <ele>1122</ele>
        <time>2016-03-13T08:15:44Z</time>
      </trkpt>
      <trkpt lat="45.32993" lon="6.03226">
        <ele>1122</ele>
        <time>2016-03-13T08:15:49Z</time>
      </trkpt>
      <trkpt lat="45.32991" lon="6.03231">
        <ele>1124</ele>
        <time>2016-03-13T08:15:54Z</time>
      </trkpt>
      <trkpt lat="45.32989" lon="6.03234">
        <ele>1126</ele>
        <time>2016-03-13T08:15:59Z</time>
      </trkpt>
      <trkpt lat="45.32987" lon="6.03236">
        <ele>1127</ele>
        <time>2016-03-13T08:16:04Z</time>
      </trkpt>
      <trkpt lat="45.32986" lon="6.0324">
        <ele>1130</ele>
        <time>2016-03-13T08:16:09Z</time>
      </trkpt>
      <trkpt lat="45.32985" lon="6.03243">
        <ele>1131</ele>
        <time>2016-03-13T08:16:14Z</time>
      </trkpt>
      <trkpt lat="45.32985" lon="6.03245">
        <ele>1132</ele>
        <time>2016-03-13T08:16:19Z</time>
      </trkpt>
      <trkpt lat="45.32985" lon="6.03246">
        <ele>1133</ele>
        <time>2016-03-13T08:16:24Z</time>
      </trkpt>
      <trkpt lat="45.32983" lon="6.03249">
        <ele>1135</ele>
        <time>2016-03-13T08:16:29Z</time>
      </trkpt>
      <trkpt lat="45.32982" lon="6.03254">
        <ele>1136</ele>
        <time>2016-03-13T08:16:34Z</time>
      </trkpt>
      <trkpt lat="45.3298" lon="6.0326">
        <ele>1137</ele>
        <time>2016-03-13T08:16:39Z</time>
      </trkpt>
      <trkpt lat="45.32979" lon="6.03265">
        <ele>1138</ele>
        <time>2016-03-13T08:16:44Z</time>
      </trkpt>
      <trkpt lat="45.32978" lon="6.0327">
        <ele>1138</ele>
        <time>2016-03-13T08:16:49Z</time>
      </trkpt>
      <trkpt lat="45.32977" lon="6.03275">
        <ele>1138</ele>
        <time>2016-03-13T08:16:54Z</time>
      </trkpt>
      <trkpt lat="45.32977" lon="6.03278">
        <ele>1139</ele>
        <time>2016-03-13T08:16:59Z</time>
      </trkpt>
      <trkpt lat="45.32977" lon="6.03282">
        <ele>1138</ele>
        <time>2016-03-13T08:17:04Z</time>
      </trkpt>
      <trkpt lat="45.32978" lon="6.03286">
        <ele>1139</ele>
        <time>2016-03-13T08:17:09Z</time>
      </trkpt>
      <trkpt lat="45.32979" lon="6.0329">
        <ele>1140</ele>
        <time>2016-03-13T08:17:14Z</time>
      </trkpt>
      <trkpt lat="45.3298" lon="6.03295">
        <ele>1142</ele>
        <time>2016-03-13T08:17:19Z</time>
      </trkpt>
      <trkpt lat="45.3298" lon="6.03299">
        <ele>1143</ele>
        <time>2016-03-13T08:17:24Z</time>
      </trkpt>
      <trkpt lat="45.3298" lon="6.03302">
        <ele>1145</ele>
        <time>2016-03-13T08:17:29Z</time>
      </trkpt>
      <trkpt lat="45.3298" lon="6.03306">
        <ele>1146</ele>
        <time>2016-03-13T08:17:34Z</time>
      </trkpt>
      <trkpt lat="45.3298" lon="6.0331">
        <ele>1148</ele>
        <time>2016-03-13T08:17:39Z</time>
      </trkpt>
      <trkpt lat="45.3298" lon="6.03313">
        <ele>1149</ele>
        <time>2016-03-13T08:17:44Z</time>
      </trkpt>
      <trkpt lat="45.32979" lon="6.03316">
        <ele>1149</ele>
        <time>2016-03-13T08:17:49Z</time>
      </trkpt>
      <trkpt lat="45.32977" lon="6.03317">
        <ele>1149</ele>
        <time>2016-03-13T08:17:54Z</time>
      </trkpt>
      <trkpt lat="45.32976" lon="6.03318">
        <ele>1149</ele>
        <time>2016-03-13T08:17:59Z</time>
      </trkpt>
      <trkpt lat="45.32976" lon="6.03318">
        <ele>1149</ele>
        <time>2016-03-13T08:18:04Z</time>
      </trkpt>
      <trkpt lat="45.32976" lon="6.03318">
        <ele>1149</ele>
        <time>2016-03-13T08:18:09Z</time>
      </trkpt>
      <trkpt lat="45.32973" lon="6.0332">
        <ele>1144</ele>
        <time>2016-03-13T08:20:24Z</time>
      </trkpt>
      <trkpt lat="45.32973" lon="6.0332">
        <ele>1144</ele>
        <time>2016-03-13T08:20:29Z</time>
      </trkpt>
      <trkpt lat="45.32973" lon="6.0332">
        <ele>1144</ele>
        <time>2016-03-13T08:20:34Z</time>
      </trkpt>
      <trkpt lat="45.32973" lon="6.0332">
        <ele>1144</ele>
        <time>2016-03-13T08:20:39Z</time>
      </trkpt>
      <trkpt lat="45.32973" lon="6.0332">
        <ele>1143</ele>
        <time>2016-03-13T08:20:44Z</time>
      </trkpt>
      <trkpt lat="45.32973" lon="6.0332">
        <ele>1143</ele>
        <time>2016-03-13T08:20:49Z</time>
      </trkpt>
      <trkpt lat="45.32973" lon="6.0332">
        <ele>1144</ele>
        <time>2016-03-13T08:20:54Z</time>
      </trkpt>
      <trkpt lat="45.32973" lon="6.03319">
        <ele>1144</ele>
        <time>2016-03-13T08:20:59Z</time>
      </trkpt>
      <trkpt lat="45.3297" lon="6.03316">
        <ele>1144</ele>
        <time>2016-03-13T08:21:04Z</time>
      </trkpt>
      <trkpt lat="45.32967" lon="6.03315">
        <ele>1145</ele>
        <time>2016-03-13T08:21:09Z</time>
      </trkpt>
      <trkpt lat="45.32966" lon="6.03316">
        <ele>1146</ele>
        <time>2016-03-13T08:21:14Z</time>
      </trkpt>
      <trkpt lat="45.32963" lon="6.03315">
        <ele>1147</ele>
        <time>2016-03-13T08:21:19Z</time>
      </trkpt>
      <trkpt lat="45.32961" lon="6.03315">
        <ele>1148</ele>
        <time>2016-03-13T08:21:24Z</time>
      </trkpt>
      <trkpt lat="45.32961" lon="6.03315">
        <ele>1148</ele>
        <time>2016-03-13T08:21:29Z</time>
      </trkpt>
      <trkpt lat="45.32961" lon="6.03315">
        <ele>1149</ele>
        <time>2016-03-13T08:21:34Z</time>
      </trkpt>
      <trkpt lat="45.32959" lon="6.03313">
        <ele>1150</ele>
        <time>2016-03-13T08:21:39Z</time>
      </trkpt>
      <trkpt lat="45.32956" lon="6.03311">
        <ele>1151</ele>
        <time>2016-03-13T08:21:44Z</time>
      </trkpt>
      <trkpt lat="45.32953" lon="6.03308">
        <ele>1151</ele>
        <time>2016-03-13T08:21:49Z</time>
      </trkpt>
      <trkpt lat="45.3295" lon="6.03305">
        <ele>1151</ele>
        <time>2016-03-13T08:21:54Z</time>
      </trkpt>
      <trkpt lat="45.32947" lon="6.03303">
        <ele>1151</ele>
        <time>2016-03-13T08:21:59Z</time>
      </trkpt>
      <trkpt lat="45.32944" lon="6.03299">
        <ele>1151</ele>
        <time>2016-03-13T08:22:04Z</time>
      </trkpt>
      <trkpt lat="45.32942" lon="6.03296">
        <ele>1152</ele>
        <time>2016-03-13T08:22:09Z</time>
      </trkpt>
      <trkpt lat="45.32943" lon="6.03296">
        <ele>1152</ele>
        <time>2016-03-13T08:22:14Z</time>
      </trkpt>
      <trkpt lat="45.3294" lon="6.03294">
        <ele>1153</ele>
        <time>2016-03-13T08:22:19Z</time>
      </trkpt>
      <trkpt lat="45.32937" lon="6.03291">
        <ele>1154</ele>
        <time>2016-03-13T08:22:24Z</time>
      </trkpt>
      <trkpt lat="45.32934" lon="6.03289">
        <ele>1154</ele>
        <time>2016-03-13T08:22:29Z</time>
      </trkpt>
      <trkpt lat="45.3293" lon="6.03288">
        <ele>1154</ele>
        <time>2016-03-13T08:22:34Z</time>
      </trkpt>
      <trkpt lat="45.32927" lon="6.03287">
        <ele>1154</ele>
        <time>2016-03-13T08:22:39Z</time>
      </trkpt>
      <trkpt lat="45.32924" lon="6.03284">
        <ele>1155</ele>
        <time>2016-03-13T08:22:44Z</time>
      </trkpt>
      <trkpt lat="45.32921" lon="6.03281">
        <ele>1155</ele>
        <time>2016-03-13T08:22:49Z</time>
      </trkpt>
      <trkpt lat="45.32916" lon="6.0328">
        <ele>1156</ele>
        <time>2016-03-13T08:22:54Z</time>
      </trkpt>
      <trkpt lat="45.32912" lon="6.0328">
        <ele>1157</ele>
        <time>2016-03-13T08:22:59Z</time>
      </trkpt>
      <trkpt lat="45.32908" lon="6.03279">
        <ele>1157</ele>
        <time>2016-03-13T08:23:04Z</time>
      </trkpt>
      <trkpt lat="45.32904" lon="6.03277">
        <ele>1157</ele>
        <time>2016-03-13T08:23:09Z</time>
      </trkpt>
      <trkpt lat="45.32899" lon="6.03275">
        <ele>1158</ele>
        <time>2016-03-13T08:23:14Z</time>
      </trkpt>
      <trkpt lat="45.32895" lon="6.03275">
        <ele>1158</ele>
        <time>2016-03-13T08:23:19Z</time>
      </trkpt>
      <trkpt lat="45.32891" lon="6.03274">
        <ele>1158</ele>
        <time>2016-03-13T08:23:24Z</time>
      </trkpt>
      <trkpt lat="45.32887" lon="6.03275">
        <ele>1158</ele>
        <time>2016-03-13T08:23:29Z</time>
      </trkpt>
      <trkpt lat="45.32884" lon="6.03277">
        <ele>1159</ele>
        <time>2016-03-13T08:23:34Z</time>
      </trkpt>
      <trkpt lat="45.32882" lon="6.03281">
        <ele>1160</ele>
        <time>2016-03-13T08:23:39Z</time>
      </trkpt>
      <trkpt lat="45.3288" lon="6.03283">
        <ele>1161</ele>
        <time>2016-03-13T08:23:44Z</time>
      </trkpt>
      <trkpt lat="45.32878" lon="6.03286">
        <ele>1163</ele>
        <time>2016-03-13T08:23:49Z</time>
      </trkpt>
      <trkpt lat="45.32876" lon="6.03288">
        <ele>1164</ele>
        <time>2016-03-13T08:23:54Z</time>
      </trkpt>
      <trkpt lat="45.32874" lon="6.03291">
        <ele>1165</ele>
        <time>2016-03-13T08:23:59Z</time>
      </trkpt>
      <trkpt lat="45.32872" lon="6.03294">
        <ele>1166</ele>
        <time>2016-03-13T08:24:04Z</time>
      </trkpt>
      <trkpt lat="45.32869" lon="6.03296">
        <ele>1167</ele>
        <time>2016-03-13T08:24:09Z</time>
      </trkpt>
      <trkpt lat="45.32866" lon="6.03299">
        <ele>1168</ele>
        <time>2016-03-13T08:24:14Z</time>
      </trkpt>
      <trkpt lat="45.32863" lon="6.03302">
        <ele>1169</ele>
        <time>2016-03-13T08:24:19Z</time>
      </trkpt>
      <trkpt lat="45.32862" lon="6.03306">
        <ele>1169</ele>
        <time>2016-03-13T08:24:24Z</time>
      </trkpt>
      <trkpt lat="45.3286" lon="6.0331">
        <ele>1171</ele>
        <time>2016-03-13T08:24:29Z</time>
      </trkpt>
      <trkpt lat="45.32859" lon="6.03314">
        <ele>1173</ele>
        <time>2016-03-13T08:24:34Z</time>
      </trkpt>
      <trkpt lat="45.32857" lon="6.03318">
        <ele>1175</ele>
        <time>2016-03-13T08:24:39Z</time>
      </trkpt>
      <trkpt lat="45.32856" lon="6.03323">
        <ele>1176</ele>
        <time>2016-03-13T08:24:44Z</time>
      </trkpt>
      <trkpt lat="45.32853" lon="6.03327">
        <ele>1177</ele>
        <time>2016-03-13T08:24:49Z</time>
      </trkpt>
      <trkpt lat="45.32851" lon="6.03332">
        <ele>1178</ele>
        <time>2016-03-13T08:24:54Z</time>
      </trkpt>
      <trkpt lat="45.3285" lon="6.03336">
        <ele>1178</ele>
        <time>2016-03-13T08:24:59Z</time>
      </trkpt>
      <trkpt lat="45.3285" lon="6.03337">
        <ele>1178</ele>
        <time>2016-03-13T08:25:04Z</time>
      </trkpt>
      <trkpt lat="45.3285" lon="6.03337">
        <ele>1178</ele>
        <time>2016-03-13T08:25:09Z</time>
      </trkpt>
      <trkpt lat="45.3285" lon="6.03337">
        <ele>1177</ele>
        <time>2016-03-13T08:25:14Z</time>
      </trkpt>
      <trkpt lat="45.32849" lon="6.03337">
        <ele>1177</ele>
        <time>2016-03-13T08:25:19Z</time>
      </trkpt>
      <trkpt lat="45.32849" lon="6.03338">
        <ele>1177</ele>
        <time>2016-03-13T08:25:24Z</time>
      </trkpt>
      <trkpt lat="45.32849" lon="6.03338">
        <ele>1177</ele>
        <time>2016-03-13T08:25:29Z</time>
      </trkpt>
      <trkpt lat="45.32849" lon="6.03338">
        <ele>1177</ele>
        <time>2016-03-13T08:25:34Z</time>
      </trkpt>
      <trkpt lat="45.32849" lon="6.03338">
        <ele>1177</ele>
        <time>2016-03-13T08:25:39Z</time>
      </trkpt>
      <trkpt lat="45.32849" lon="6.03337">
        <ele>1177</ele>
        <time>2016-03-13T08:25:44Z</time>
      </trkpt>
      <trkpt lat="45.32848" lon="6.03341">
        <ele>1178</ele>
        <time>2016-03-13T08:25:49Z</time>
      </trkpt>
      <trkpt lat="45.32846" lon="6.03345">
        <ele>1179</ele>
        <time>2016-03-13T08:25:54Z</time>
      </trkpt>
      <trkpt lat="45.32845" lon="6.03349">
        <ele>1181</ele>
        <time>2016-03-13T08:25:59Z</time>
      </trkpt>
      <trkpt lat="45.32844" lon="6.03353">
        <ele>1182</ele>
        <time>2016-03-13T08:26:04Z</time>
      </trkpt>
      <trkpt lat="45.32842" lon="6.03357">
        <ele>1183</ele>
        <time>2016-03-13T08:26:09Z</time>
      </trkpt>
      <trkpt lat="45.3284" lon="6.03361">
        <ele>1184</ele>
        <time>2016-03-13T08:26:14Z</time>
      </trkpt>
      <trkpt lat="45.32839" lon="6.03365">
        <ele>1185</ele>
        <time>2016-03-13T08:26:19Z</time>
      </trkpt>
      <trkpt lat="45.32839" lon="6.0337">
        <ele>1186</ele>
        <time>2016-03-13T08:26:24Z</time>
      </trkpt>
      <trkpt lat="45.32837" lon="6.03374">
        <ele>1186</ele>
        <time>2016-03-13T08:26:29Z</time>
      </trkpt>
      <trkpt lat="45.32835" lon="6.03378">
        <ele>1186</ele>
        <time>2016-03-13T08:26:34Z</time>
      </trkpt>
      <trkpt lat="45.32833" lon="6.03383">
        <ele>1186</ele>
        <time>2016-03-13T08:26:39Z</time>
      </trkpt>
      <trkpt lat="45.32832" lon="6.03387">
        <ele>1186</ele>
        <time>2016-03-13T08:26:44Z</time>
      </trkpt>
      <trkpt lat="45.3283" lon="6.0339">
        <ele>1187</ele>
        <time>2016-03-13T08:26:49Z</time>
      </trkpt>
      <trkpt lat="45.32829" lon="6.03393">
        <ele>1187</ele>
        <time>2016-03-13T08:26:54Z</time>
      </trkpt>
      <trkpt lat="45.32826" lon="6.03396">
        <ele>1187</ele>
        <time>2016-03-13T08:26:59Z</time>
      </trkpt>
      <trkpt lat="45.32825" lon="6.03399">
        <ele>1187</ele>
        <time>2016-03-13T08:27:04Z</time>
      </trkpt>
      <trkpt lat="45.32824" lon="6.03403">
        <ele>1187</ele>
        <time>2016-03-13T08:27:09Z</time>
      </trkpt>
      <trkpt lat="45.32822" lon="6.03406">
        <ele>1188</ele>
        <time>2016-03-13T08:27:14Z</time>
      </trkpt>
      <trkpt lat="45.32821" lon="6.03409">
        <ele>1189</ele>
        <time>2016-03-13T08:27:19Z</time>
      </trkpt>
      <trkpt lat="45.32819" lon="6.03411">
        <ele>1190</ele>
        <time>2016-03-13T08:27:24Z</time>
      </trkpt>
      <trkpt lat="45.32816" lon="6.03413">
        <ele>1192</ele>
        <time>2016-03-13T08:27:29Z</time>
      </trkpt>
      <trkpt lat="45.32815" lon="6.03415">
        <ele>1192</ele>
        <time>2016-03-13T08:27:34Z</time>
      </trkpt>
      <trkpt lat="45.32813" lon="6.03418">
        <ele>1193</ele>
        <time>2016-03-13T08:27:39Z</time>
      </trkpt>
      <trkpt lat="45.32811" lon="6.0342">
        <ele>1194</ele>
        <time>2016-03-13T08:27:44Z</time>
      </trkpt>
      <trkpt lat="45.32808" lon="6.03422">
        <ele>1195</ele>
        <time>2016-03-13T08:27:49Z</time>
      </trkpt>
      <trkpt lat="45.32806" lon="6.03425">
        <ele>1196</ele>
        <time>2016-03-13T08:27:54Z</time>
      </trkpt>
      <trkpt lat="45.32804" lon="6.03428">
        <ele>1196</ele>
        <time>2016-03-13T08:27:59Z</time>
      </trkpt>
      <trkpt lat="45.32802" lon="6.0343">
        <ele>1197</ele>
        <time>2016-03-13T08:28:04Z</time>
      </trkpt>
      <trkpt lat="45.328" lon="6.03433">
        <ele>1198</ele>
        <time>2016-03-13T08:28:09Z</time>
      </trkpt>
      <trkpt lat="45.32798" lon="6.03437">
        <ele>1198</ele>
        <time>2016-03-13T08:28:14Z</time>
      </trkpt>
      <trkpt lat="45.32797" lon="6.03441">
        <ele>1199</ele>
        <time>2016-03-13T08:28:19Z</time>
      </trkpt>
      <trkpt lat="45.32794" lon="6.03442">
        <ele>1201</ele>
        <time>2016-03-13T08:28:24Z</time>
      </trkpt>
      <trkpt lat="45.32792" lon="6.03444">
        <ele>1203</ele>
        <time>2016-03-13T08:28:29Z</time>
      </trkpt>
      <trkpt lat="45.3279" lon="6.03446">
        <ele>1205</ele>
        <time>2016-03-13T08:28:34Z</time>
      </trkpt>
      <trkpt lat="45.3279" lon="6.03448">
        <ele>1207</ele>
        <time>2016-03-13T08:28:39Z</time>
      </trkpt>
      <trkpt lat="45.32789" lon="6.0345">
        <ele>1208</ele>
        <time>2016-03-13T08:28:44Z</time>
      </trkpt>
      <trkpt lat="45.32787" lon="6.03452">
        <ele>1209</ele>
        <time>2016-03-13T08:28:49Z</time>
      </trkpt>
      <trkpt lat="45.32785" lon="6.03455">
        <ele>1210</ele>
        <time>2016-03-13T08:28:54Z</time>
      </trkpt>
      <trkpt lat="45.32784" lon="6.03457">
        <ele>1211</ele>
        <time>2016-03-13T08:28:59Z</time>
      </trkpt>
      <trkpt lat="45.32781" lon="6.0346">
        <ele>1211</ele>
        <time>2016-03-13T08:29:04Z</time>
      </trkpt>
      <trkpt lat="45.32778" lon="6.03462">
        <ele>1211</ele>
        <time>2016-03-13T08:29:09Z</time>
      </trkpt>
      <trkpt lat="45.32776" lon="6.03465">
        <ele>1212</ele>
        <time>2016-03-13T08:29:14Z</time>
      </trkpt>
      <trkpt lat="45.32774" lon="6.03468">
        <ele>1213</ele>
        <time>2016-03-13T08:29:19Z</time>
      </trkpt>
      <trkpt lat="45.32771" lon="6.0347">
        <ele>1214</ele>
        <time>2016-03-13T08:29:24Z</time>
      </trkpt>
      <trkpt lat="45.32768" lon="6.03472">
        <ele>1215</ele>
        <time>2016-03-13T08:29:29Z</time>
      </trkpt>
      <trkpt lat="45.32768" lon="6.03474">
        <ele>1216</ele>
        <time>2016-03-13T08:29:34Z</time>
      </trkpt>
      <trkpt lat="45.32768" lon="6.03472">
        <ele>1220</ele>
        <time>2016-03-13T08:29:39Z</time>
      </trkpt>
      <trkpt lat="45.32769" lon="6.03471">
        <ele>1222</ele>
        <time>2016-03-13T08:29:44Z</time>
      </trkpt>
      <trkpt lat="45.32769" lon="6.03471">
        <ele>1224</ele>
        <time>2016-03-13T08:29:49Z</time>
      </trkpt>
      <trkpt lat="45.32769" lon="6.03471">
        <ele>1225</ele>
        <time>2016-03-13T08:29:54Z</time>
      </trkpt>
      <trkpt lat="45.32767" lon="6.03475">
        <ele>1226</ele>
        <time>2016-03-13T08:29:59Z</time>
      </trkpt>
      <trkpt lat="45.32764" lon="6.03478">
        <ele>1227</ele>
        <time>2016-03-13T08:30:04Z</time>
      </trkpt>
      <trkpt lat="45.32761" lon="6.03482">
        <ele>1228</ele>
        <time>2016-03-13T08:30:09Z</time>
      </trkpt>
      <trkpt lat="45.3276" lon="6.03486">
        <ele>1229</ele>
        <time>2016-03-13T08:30:14Z</time>
      </trkpt>
      <trkpt lat="45.32758" lon="6.0349">
        <ele>1231</ele>
        <time>2016-03-13T08:30:19Z</time>
      </trkpt>
      <trkpt lat="45.32755" lon="6.03494">
        <ele>1232</ele>
        <time>2016-03-13T08:30:24Z</time>
      </trkpt>
      <trkpt lat="45.32755" lon="6.03498">
        <ele>1232</ele>
        <time>2016-03-13T08:30:29Z</time>
      </trkpt>
      <trkpt lat="45.32754" lon="6.03502">
        <ele>1232</ele>
        <time>2016-03-13T08:30:34Z</time>
      </trkpt>
      <trkpt lat="45.32754" lon="6.03506">
        <ele>1232</ele>
        <time>2016-03-13T08:30:39Z</time>
      </trkpt>
      <trkpt lat="45.32754" lon="6.03511">
        <ele>1231</ele>
        <time>2016-03-13T08:30:44Z</time>
      </trkpt>
      <trkpt lat="45.32754" lon="6.03515">
        <ele>1231</ele>
        <time>2016-03-13T08:30:49Z</time>
      </trkpt>
      <trkpt lat="45.32754" lon="6.03522">
        <ele>1229</ele>
        <time>2016-03-13T08:30:54Z</time>
      </trkpt>
      <trkpt lat="45.32754" lon="6.03528">
        <ele>1227</ele>
        <time>2016-03-13T08:30:59Z</time>
      </trkpt>
      <trkpt lat="45.32754" lon="6.03533">
        <ele>1226</ele>
        <time>2016-03-13T08:31:04Z</time>
      </trkpt>
      <trkpt lat="45.32754" lon="6.03538">
        <ele>1225</ele>
        <time>2016-03-13T08:31:09Z</time>
      </trkpt>
      <trkpt lat="45.32753" lon="6.03542">
        <ele>1225</ele>
        <time>2016-03-13T08:31:14Z</time>
      </trkpt>
      <trkpt lat="45.32753" lon="6.03542">
        <ele>1225</ele>
        <time>2016-03-13T08:31:19Z</time>
      </trkpt>
      <trkpt lat="45.32753" lon="6.03542">
        <ele>1224</ele>
        <time>2016-03-13T08:31:24Z</time>
      </trkpt>
      <trkpt lat="45.32753" lon="6.03543">
        <ele>1222</ele>
        <time>2016-03-13T08:31:29Z</time>
      </trkpt>
      <trkpt lat="45.32752" lon="6.03545">
        <ele>1220</ele>
        <time>2016-03-13T08:31:34Z</time>
      </trkpt>
      <trkpt lat="45.32752" lon="6.03546">
        <ele>1218</ele>
        <time>2016-03-13T08:31:39Z</time>
      </trkpt>
      <trkpt lat="45.32753" lon="6.03547">
        <ele>1217</ele>
        <time>2016-03-13T08:31:44Z</time>
      </trkpt>
      <trkpt lat="45.32753" lon="6.03549">
        <ele>1216</ele>
        <time>2016-03-13T08:31:49Z</time>
      </trkpt>
      <trkpt lat="45.32753" lon="6.0355">
        <ele>1217</ele>
        <time>2016-03-13T08:31:54Z</time>
      </trkpt>
      <trkpt lat="45.3275" lon="6.03553">
        <ele>1213</ele>
        <time>2016-03-13T08:33:24Z</time>
      </trkpt>
      <trkpt lat="45.32751" lon="6.03558">
        <ele>1214</ele>
        <time>2016-03-13T08:33:29Z</time>
      </trkpt>
      <trkpt lat="45.32752" lon="6.03562">
        <ele>1214</ele>
        <time>2016-03-13T08:33:34Z</time>
      </trkpt>
      <trkpt lat="45.32753" lon="6.03565">
        <ele>1216</ele>
        <time>2016-03-13T08:33:39Z</time>
      </trkpt>
      <trkpt lat="45.32755" lon="6.03568">
        <ele>1217</ele>
        <time>2016-03-13T08:33:44Z</time>
      </trkpt>
      <trkpt lat="45.32756" lon="6.0357">
        <ele>1219</ele>
        <time>2016-03-13T08:33:49Z</time>
      </trkpt>
      <trkpt lat="45.32758" lon="6.03574">
        <ele>1220</ele>
        <time>2016-03-13T08:33:54Z</time>
      </trkpt>
      <trkpt lat="45.32759" lon="6.03577">
        <ele>1221</ele>
        <time>2016-03-13T08:33:59Z</time>
      </trkpt>
      <trkpt lat="45.32761" lon="6.03579">
        <ele>1223</ele>
        <time>2016-03-13T08:34:04Z</time>
      </trkpt>
      <trkpt lat="45.32763" lon="6.03581">
        <ele>1224</ele>
        <time>2016-03-13T08:34:09Z</time>
      </trkpt>
      <trkpt lat="45.32766" lon="6.03583">
        <ele>1225</ele>
        <time>2016-03-13T08:34:14Z</time>
      </trkpt>
      <trkpt lat="45.32769" lon="6.03586">
        <ele>1224</ele>
        <time>2016-03-13T08:34:19Z</time>
      </trkpt>
      <trkpt lat="45.32771" lon="6.03589">
        <ele>1225</ele>
        <time>2016-03-13T08:34:24Z</time>
      </trkpt>
      <trkpt lat="45.32773" lon="6.03592">
        <ele>1225</ele>
        <time>2016-03-13T08:34:29Z</time>
      </trkpt>
      <trkpt lat="45.32775" lon="6.03594">
        <ele>1226</ele>
        <time>2016-03-13T08:34:34Z</time>
      </trkpt>
      <trkpt lat="45.32777" lon="6.03598">
        <ele>1227</ele>
        <time>2016-03-13T08:34:39Z</time>
      </trkpt>
      <trkpt lat="45.3278" lon="6.03601">
        <ele>1227</ele>
        <time>2016-03-13T08:34:44Z</time>
      </trkpt>
      <trkpt lat="45.32782" lon="6.03603">
        <ele>1229</ele>
        <time>2016-03-13T08:34:49Z</time>
      </trkpt>
      <trkpt lat="45.32785" lon="6.03605">
        <ele>1230</ele>
        <time>2016-03-13T08:34:54Z</time>
      </trkpt>
      <trkpt lat="45.32788" lon="6.03608">
        <ele>1230</ele>
        <time>2016-03-13T08:34:59Z</time>
      </trkpt>
      <trkpt lat="45.3279" lon="6.03611">
        <ele>1231</ele>
        <time>2016-03-13T08:35:04Z</time>
      </trkpt>
      <trkpt lat="45.32792" lon="6.03611">
        <ele>1233</ele>
        <time>2016-03-13T08:35:09Z</time>
      </trkpt>
      <trkpt lat="45.32792" lon="6.03611">
        <ele>1235</ele>
        <time>2016-03-13T08:35:14Z</time>
      </trkpt>
      <trkpt lat="45.32792" lon="6.0361">
        <ele>1238</ele>
        <time>2016-03-13T08:35:19Z</time>
      </trkpt>
      <trkpt lat="45.32792" lon="6.03609">
        <ele>1241</ele>
        <time>2016-03-13T08:35:24Z</time>
      </trkpt>
      <trkpt lat="45.32792" lon="6.03609">
        <ele>1242</ele>
        <time>2016-03-13T08:35:29Z</time>
      </trkpt>
      <trkpt lat="45.32794" lon="6.03609">
        <ele>1243</ele>
        <time>2016-03-13T08:35:34Z</time>
      </trkpt>
      <trkpt lat="45.32795" lon="6.03611">
        <ele>1243</ele>
        <time>2016-03-13T08:35:39Z</time>
      </trkpt>
      <trkpt lat="45.32798" lon="6.03614">
        <ele>1244</ele>
        <time>2016-03-13T08:35:44Z</time>
      </trkpt>
      <trkpt lat="45.32801" lon="6.03618">
        <ele>1243</ele>
        <time>2016-03-13T08:35:49Z</time>
      </trkpt>
      <trkpt lat="45.32803" lon="6.03621">
        <ele>1242</ele>
        <time>2016-03-13T08:35:54Z</time>
      </trkpt>
      <trkpt lat="45.32805" lon="6.03623">
        <ele>1242</ele>
        <time>2016-03-13T08:35:59Z</time>
      </trkpt>
      <trkpt lat="45.32806" lon="6.03626">
        <ele>1242</ele>
        <time>2016-03-13T08:36:04Z</time>
      </trkpt>
      <trkpt lat="45.32808" lon="6.03628">
        <ele>1244</ele>
        <time>2016-03-13T08:36:09Z</time>
      </trkpt>
      <trkpt lat="45.3281" lon="6.0363">
        <ele>1245</ele>
        <time>2016-03-13T08:36:14Z</time>
      </trkpt>
      <trkpt lat="45.32811" lon="6.03632">
        <ele>1246</ele>
        <time>2016-03-13T08:36:19Z</time>
      </trkpt>
      <trkpt lat="45.32813" lon="6.03635">
        <ele>1247</ele>
        <time>2016-03-13T08:36:24Z</time>
      </trkpt>
      <trkpt lat="45.32815" lon="6.03639">
        <ele>1247</ele>
        <time>2016-03-13T08:36:29Z</time>
      </trkpt>
      <trkpt lat="45.32816" lon="6.03642">
        <ele>1249</ele>
        <time>2016-03-13T08:36:34Z</time>
      </trkpt>
      <trkpt lat="45.32819" lon="6.03645">
        <ele>1251</ele>
        <time>2016-03-13T08:36:39Z</time>
      </trkpt>
      <trkpt lat="45.32821" lon="6.03648">
        <ele>1253</ele>
        <time>2016-03-13T08:36:44Z</time>
      </trkpt>
      <trkpt lat="45.32823" lon="6.03651">
        <ele>1253</ele>
        <time>2016-03-13T08:36:49Z</time>
      </trkpt>
      <trkpt lat="45.32826" lon="6.03656">
        <ele>1252</ele>
        <time>2016-03-13T08:36:54Z</time>
      </trkpt>
      <trkpt lat="45.32829" lon="6.0366">
        <ele>1251</ele>
        <time>2016-03-13T08:36:59Z</time>
      </trkpt>
      <trkpt lat="45.32832" lon="6.03664">
        <ele>1252</ele>
        <time>2016-03-13T08:37:04Z</time>
      </trkpt>
      <trkpt lat="45.32834" lon="6.03667">
        <ele>1253</ele>
        <time>2016-03-13T08:37:09Z</time>
      </trkpt>
      <trkpt lat="45.32837" lon="6.0367">
        <ele>1253</ele>
        <time>2016-03-13T08:37:14Z</time>
      </trkpt>
      <trkpt lat="45.32839" lon="6.03674">
        <ele>1253</ele>
        <time>2016-03-13T08:37:19Z</time>
      </trkpt>
      <trkpt lat="45.32841" lon="6.03678">
        <ele>1253</ele>
        <time>2016-03-13T08:37:24Z</time>
      </trkpt>
      <trkpt lat="45.32843" lon="6.03682">
        <ele>1254</ele>
        <time>2016-03-13T08:37:29Z</time>
      </trkpt>
      <trkpt lat="45.32844" lon="6.03686">
        <ele>1256</ele>
        <time>2016-03-13T08:37:34Z</time>
      </trkpt>
      <trkpt lat="45.32846" lon="6.03689">
        <ele>1257</ele>
        <time>2016-03-13T08:37:39Z</time>
      </trkpt>
      <trkpt lat="45.32846" lon="6.03691">
        <ele>1259</ele>
        <time>2016-03-13T08:37:44Z</time>
      </trkpt>
      <trkpt lat="45.32846" lon="6.03691">
        <ele>1259</ele>
        <time>2016-03-13T08:37:49Z</time>
      </trkpt>
      <trkpt lat="45.32846" lon="6.03692">
        <ele>1259</ele>
        <time>2016-03-13T08:37:54Z</time>
      </trkpt>
      <trkpt lat="45.32846" lon="6.03696">
        <ele>1259</ele>
        <time>2016-03-13T08:37:59Z</time>
      </trkpt>
      <trkpt lat="45.32846" lon="6.03701">
        <ele>1260</ele>
        <time>2016-03-13T08:38:04Z</time>
      </trkpt>
      <trkpt lat="45.32848" lon="6.03706">
        <ele>1257</ele>
        <time>2016-03-13T08:38:09Z</time>
      </trkpt>
      <trkpt lat="45.3285" lon="6.03711">
        <ele>1255</ele>
        <time>2016-03-13T08:38:14Z</time>
      </trkpt>
      <trkpt lat="45.32851" lon="6.03716">
        <ele>1255</ele>
        <time>2016-03-13T08:38:19Z</time>
      </trkpt>
      <trkpt lat="45.32853" lon="6.0372">
        <ele>1256</ele>
        <time>2016-03-13T08:38:24Z</time>
      </trkpt>
      <trkpt lat="45.32853" lon="6.03725">
        <ele>1256</ele>
        <time>2016-03-13T08:38:29Z</time>
      </trkpt>
      <trkpt lat="45.32855" lon="6.03729">
        <ele>1256</ele>
        <time>2016-03-13T08:38:34Z</time>
      </trkpt>
      <trkpt lat="45.32856" lon="6.03734">
        <ele>1256</ele>
        <time>2016-03-13T08:38:39Z</time>
      </trkpt>
      <trkpt lat="45.32857" lon="6.03738">
        <ele>1257</ele>
        <time>2016-03-13T08:38:44Z</time>
      </trkpt>
      <trkpt lat="45.32859" lon="6.03743">
        <ele>1258</ele>
        <time>2016-03-13T08:38:49Z</time>
      </trkpt>
      <trkpt lat="45.3286" lon="6.03749">
        <ele>1258</ele>
        <time>2016-03-13T08:38:54Z</time>
      </trkpt>
      <trkpt lat="45.32861" lon="6.03754">
        <ele>1258</ele>
        <time>2016-03-13T08:38:59Z</time>
      </trkpt>
      <trkpt lat="45.32862" lon="6.03758">
        <ele>1258</ele>
        <time>2016-03-13T08:39:04Z</time>
      </trkpt>
      <trkpt lat="45.32864" lon="6.03762">
        <ele>1259</ele>
        <time>2016-03-13T08:39:09Z</time>
      </trkpt>
      <trkpt lat="45.32865" lon="6.03766">
        <ele>1260</ele>
        <time>2016-03-13T08:39:14Z</time>
      </trkpt>
      <trkpt lat="45.32866" lon="6.03769">
        <ele>1262</ele>
        <time>2016-03-13T08:39:19Z</time>
      </trkpt>
      <trkpt lat="45.32867" lon="6.03773">
        <ele>1265</ele>
        <time>2016-03-13T08:39:24Z</time>
      </trkpt>
      <trkpt lat="45.32868" lon="6.03775">
        <ele>1267</ele>
        <time>2016-03-13T08:39:29Z</time>
      </trkpt>
      <trkpt lat="45.32868" lon="6.03777">
        <ele>1269</ele>
        <time>2016-03-13T08:39:34Z</time>
      </trkpt>
      <trkpt lat="45.32869" lon="6.03778">
        <ele>1271</ele>
        <time>2016-03-13T08:39:39Z</time>
      </trkpt>
      <trkpt lat="45.32869" lon="6.0378">
        <ele>1272</ele>
        <time>2016-03-13T08:39:44Z</time>
      </trkpt>
      <trkpt lat="45.32869" lon="6.03784">
        <ele>1273</ele>
        <time>2016-03-13T08:39:49Z</time>
      </trkpt>
      <trkpt lat="45.32871" lon="6.03788">
        <ele>1271</ele>
        <time>2016-03-13T08:39:54Z</time>
      </trkpt>
      <trkpt lat="45.32871" lon="6.03793">
        <ele>1270</ele>
        <time>2016-03-13T08:39:59Z</time>
      </trkpt>
      <trkpt lat="45.32871" lon="6.03797">
        <ele>1269</ele>
        <time>2016-03-13T08:40:04Z</time>
      </trkpt>
      <trkpt lat="45.32871" lon="6.038">
        <ele>1270</ele>
        <time>2016-03-13T08:40:09Z</time>
      </trkpt>
      <trkpt lat="45.32871" lon="6.03805">
        <ele>1272</ele>
        <time>2016-03-13T08:40:14Z</time>
      </trkpt>
      <trkpt lat="45.3287" lon="6.03808">
        <ele>1274</ele>
        <time>2016-03-13T08:40:19Z</time>
      </trkpt>
      <trkpt lat="45.3287" lon="6.03811">
        <ele>1275</ele>
        <time>2016-03-13T08:40:24Z</time>
      </trkpt>
      <trkpt lat="45.32869" lon="6.03814">
        <ele>1276</ele>
        <time>2016-03-13T08:40:29Z</time>
      </trkpt>
      <trkpt lat="45.32869" lon="6.03818">
        <ele>1277</ele>
        <time>2016-03-13T08:40:34Z</time>
      </trkpt>
      <trkpt lat="45.32867" lon="6.03821">
        <ele>1278</ele>
        <time>2016-03-13T08:40:39Z</time>
      </trkpt>
      <trkpt lat="45.32866" lon="6.03824">
        <ele>1278</ele>
        <time>2016-03-13T08:40:44Z</time>
      </trkpt>
      <trkpt lat="45.32865" lon="6.03828">
        <ele>1279</ele>
        <time>2016-03-13T08:40:49Z</time>
      </trkpt>
      <trkpt lat="45.32865" lon="6.03832">
        <ele>1280</ele>
        <time>2016-03-13T08:40:54Z</time>
      </trkpt>
      <trkpt lat="45.32864" lon="6.03836">
        <ele>1281</ele>
        <time>2016-03-13T08:40:59Z</time>
      </trkpt>
      <trkpt lat="45.32863" lon="6.0384">
        <ele>1280</ele>
        <time>2016-03-13T08:41:04Z</time>
      </trkpt>
      <trkpt lat="45.32862" lon="6.03844">
        <ele>1280</ele>
        <time>2016-03-13T08:41:09Z</time>
      </trkpt>
      <trkpt lat="45.32861" lon="6.03848">
        <ele>1279</ele>
        <time>2016-03-13T08:41:14Z</time>
      </trkpt>
      <trkpt lat="45.3286" lon="6.03852">
        <ele>1279</ele>
        <time>2016-03-13T08:41:19Z</time>
      </trkpt>
      <trkpt lat="45.32857" lon="6.03855">
        <ele>1281</ele>
        <time>2016-03-13T08:41:24Z</time>
      </trkpt>
      <trkpt lat="45.32856" lon="6.03859">
        <ele>1282</ele>
        <time>2016-03-13T08:41:29Z</time>
      </trkpt>
      <trkpt lat="45.32854" lon="6.03863">
        <ele>1281</ele>
        <time>2016-03-13T08:41:34Z</time>
      </trkpt>
      <trkpt lat="45.32852" lon="6.03868">
        <ele>1280</ele>
        <time>2016-03-13T08:41:39Z</time>
      </trkpt>
      <trkpt lat="45.3285" lon="6.03872">
        <ele>1280</ele>
        <time>2016-03-13T08:41:44Z</time>
      </trkpt>
      <trkpt lat="45.32848" lon="6.03876">
        <ele>1281</ele>
        <time>2016-03-13T08:41:49Z</time>
      </trkpt>
      <trkpt lat="45.32845" lon="6.03879">
        <ele>1281</ele>
        <time>2016-03-13T08:41:54Z</time>
      </trkpt>
      <trkpt lat="45.32843" lon="6.03883">
        <ele>1283</ele>
        <time>2016-03-13T08:41:59Z</time>
      </trkpt>
      <trkpt lat="45.32841" lon="6.03887">
        <ele>1284</ele>
        <time>2016-03-13T08:42:04Z</time>
      </trkpt>
      <trkpt lat="45.32839" lon="6.0389">
        <ele>1284</ele>
        <time>2016-03-13T08:42:09Z</time>
      </trkpt>
      <trkpt lat="45.32837" lon="6.03893">
        <ele>1285</ele>
        <time>2016-03-13T08:42:14Z</time>
      </trkpt>
      <trkpt lat="45.32835" lon="6.03897">
        <ele>1285</ele>
        <time>2016-03-13T08:42:19Z</time>
      </trkpt>
      <trkpt lat="45.32833" lon="6.03901">
        <ele>1285</ele>
        <time>2016-03-13T08:42:24Z</time>
      </trkpt>
      <trkpt lat="45.32832" lon="6.03905">
        <ele>1285</ele>
        <time>2016-03-13T08:42:29Z</time>
      </trkpt>
      <trkpt lat="45.3283" lon="6.03909">
        <ele>1286</ele>
        <time>2016-03-13T08:42:34Z</time>
      </trkpt>
      <trkpt lat="45.32827" lon="6.03912">
        <ele>1287</ele>
        <time>2016-03-13T08:42:39Z</time>
      </trkpt>
      <trkpt lat="45.32825" lon="6.03916">
        <ele>1288</ele>
        <time>2016-03-13T08:42:44Z</time>
      </trkpt>
      <trkpt lat="45.32824" lon="6.0392">
        <ele>1289</ele>
        <time>2016-03-13T08:42:49Z</time>
      </trkpt>
      <trkpt lat="45.32822" lon="6.03924">
        <ele>1290</ele>
        <time>2016-03-13T08:42:54Z</time>
      </trkpt>
      <trkpt lat="45.32821" lon="6.03929">
        <ele>1290</ele>
        <time>2016-03-13T08:42:59Z</time>
      </trkpt>
      <trkpt lat="45.3282" lon="6.03932">
        <ele>1291</ele>
        <time>2016-03-13T08:43:04Z</time>
      </trkpt>
      <trkpt lat="45.32819" lon="6.03935">
        <ele>1294</ele>
        <time>2016-03-13T08:43:09Z</time>
      </trkpt>
      <trkpt lat="45.32818" lon="6.03939">
        <ele>1295</ele>
        <time>2016-03-13T08:43:14Z</time>
      </trkpt>
      <trkpt lat="45.32818" lon="6.03945">
        <ele>1294</ele>
        <time>2016-03-13T08:43:19Z</time>
      </trkpt>
      <trkpt lat="45.32816" lon="6.0395">
        <ele>1293</ele>
        <time>2016-03-13T08:43:24Z</time>
      </trkpt>
      <trkpt lat="45.32816" lon="6.03955">
        <ele>1293</ele>
        <time>2016-03-13T08:43:29Z</time>
      </trkpt>
      <trkpt lat="45.32815" lon="6.0396">
        <ele>1293</ele>
        <time>2016-03-13T08:43:34Z</time>
      </trkpt>
      <trkpt lat="45.32814" lon="6.03965">
        <ele>1291</ele>
        <time>2016-03-13T08:43:39Z</time>
      </trkpt>
      <trkpt lat="45.32811" lon="6.03971">
        <ele>1290</ele>
        <time>2016-03-13T08:43:44Z</time>
      </trkpt>
      <trkpt lat="45.32809" lon="6.03976">
        <ele>1290</ele>
        <time>2016-03-13T08:43:49Z</time>
      </trkpt>
      <trkpt lat="45.32805" lon="6.0398">
        <ele>1290</ele>
        <time>2016-03-13T08:43:54Z</time>
      </trkpt>
      <trkpt lat="45.32802" lon="6.03984">
        <ele>1291</ele>
        <time>2016-03-13T08:43:59Z</time>
      </trkpt>
      <trkpt lat="45.32798" lon="6.03988">
        <ele>1290</ele>
        <time>2016-03-13T08:44:04Z</time>
      </trkpt>
      <trkpt lat="45.32794" lon="6.03992">
        <ele>1291</ele>
        <time>2016-03-13T08:44:09Z</time>
      </trkpt>
      <trkpt lat="45.32793" lon="6.03993">
        <ele>1291</ele>
        <time>2016-03-13T08:44:14Z</time>
      </trkpt>
      <trkpt lat="45.32792" lon="6.03995">
        <ele>1291</ele>
        <time>2016-03-13T08:44:19Z</time>
      </trkpt>
      <trkpt lat="45.3279" lon="6.03997">
        <ele>1290</ele>
        <time>2016-03-13T08:44:24Z</time>
      </trkpt>
      <trkpt lat="45.32785" lon="6.04">
        <ele>1290</ele>
        <time>2016-03-13T08:44:29Z</time>
      </trkpt>
      <trkpt lat="45.32782" lon="6.04002">
        <ele>1291</ele>
        <time>2016-03-13T08:44:34Z</time>
      </trkpt>
      <trkpt lat="45.32779" lon="6.04005">
        <ele>1291</ele>
        <time>2016-03-13T08:44:39Z</time>
      </trkpt>
      <trkpt lat="45.32774" lon="6.04007">
        <ele>1291</ele>
        <time>2016-03-13T08:44:44Z</time>
      </trkpt>
      <trkpt lat="45.32772" lon="6.0401">
        <ele>1291</ele>
        <time>2016-03-13T08:44:49Z</time>
      </trkpt>
      <trkpt lat="45.32771" lon="6.0401">
        <ele>1291</ele>
        <time>2016-03-13T08:44:54Z</time>
      </trkpt>
      <trkpt lat="45.32767" lon="6.04012">
        <ele>1291</ele>
        <time>2016-03-13T08:44:59Z</time>
      </trkpt>
      <trkpt lat="45.32763" lon="6.04015">
        <ele>1292</ele>
        <time>2016-03-13T08:45:04Z</time>
      </trkpt>
      <trkpt lat="45.3276" lon="6.04017">
        <ele>1293</ele>
        <time>2016-03-13T08:45:09Z</time>
      </trkpt>
      <trkpt lat="45.32757" lon="6.04019">
        <ele>1293</ele>
        <time>2016-03-13T08:45:14Z</time>
      </trkpt>
      <trkpt lat="45.32753" lon="6.04021">
        <ele>1294</ele>
        <time>2016-03-13T08:45:19Z</time>
      </trkpt>
      <trkpt lat="45.32749" lon="6.04023">
        <ele>1294</ele>
        <time>2016-03-13T08:45:24Z</time>
      </trkpt>
      <trkpt lat="45.32746" lon="6.04025">
        <ele>1294</ele>
        <time>2016-03-13T08:45:29Z</time>
      </trkpt>
      <trkpt lat="45.32742" lon="6.04027">
        <ele>1294</ele>
        <time>2016-03-13T08:45:34Z</time>
      </trkpt>
      <trkpt lat="45.32738" lon="6.04029">
        <ele>1295</ele>
        <time>2016-03-13T08:45:39Z</time>
      </trkpt>
      <trkpt lat="45.32735" lon="6.04031">
        <ele>1296</ele>
        <time>2016-03-13T08:45:44Z</time>
      </trkpt>
      <trkpt lat="45.32731" lon="6.04032">
        <ele>1296</ele>
        <time>2016-03-13T08:45:49Z</time>
      </trkpt>
      <trkpt lat="45.32726" lon="6.04035">
        <ele>1297</ele>
        <time>2016-03-13T08:45:54Z</time>
      </trkpt>
      <trkpt lat="45.32722" lon="6.04037">
        <ele>1297</ele>
        <time>2016-03-13T08:45:59Z</time>
      </trkpt>
      <trkpt lat="45.32718" lon="6.04037">
        <ele>1298</ele>
        <time>2016-03-13T08:46:04Z</time>
      </trkpt>
      <trkpt lat="45.32714" lon="6.04038">
        <ele>1299</ele>
        <time>2016-03-13T08:46:09Z</time>
      </trkpt>
      <trkpt lat="45.3271" lon="6.0404">
        <ele>1299</ele>
        <time>2016-03-13T08:46:14Z</time>
      </trkpt>
      <trkpt lat="45.32706" lon="6.04041">
        <ele>1299</ele>
        <time>2016-03-13T08:46:19Z</time>
      </trkpt>
      <trkpt lat="45.32701" lon="6.04042">
        <ele>1300</ele>
        <time>2016-03-13T08:46:24Z</time>
      </trkpt>
      <trkpt lat="45.32696" lon="6.04044">
        <ele>1300</ele>
        <time>2016-03-13T08:46:29Z</time>
      </trkpt>
      <trkpt lat="45.32692" lon="6.04046">
        <ele>1300</ele>
        <time>2016-03-13T08:46:34Z</time>
      </trkpt>
      <trkpt lat="45.32688" lon="6.04048">
        <ele>1301</ele>
        <time>2016-03-13T08:46:39Z</time>
      </trkpt>
      <trkpt lat="45.32684" lon="6.0405">
        <ele>1301</ele>
        <time>2016-03-13T08:46:44Z</time>
      </trkpt>
      <trkpt lat="45.32679" lon="6.04053">
        <ele>1302</ele>
        <time>2016-03-13T08:46:49Z</time>
      </trkpt>
      <trkpt lat="45.32675" lon="6.04055">
        <ele>1302</ele>
        <time>2016-03-13T08:46:54Z</time>
      </trkpt>
      <trkpt lat="45.32671" lon="6.04058">
        <ele>1303</ele>
        <time>2016-03-13T08:46:59Z</time>
      </trkpt>
      <trkpt lat="45.32667" lon="6.04061">
        <ele>1303</ele>
        <time>2016-03-13T08:47:04Z</time>
      </trkpt>
      <trkpt lat="45.32663" lon="6.04065">
        <ele>1303</ele>
        <time>2016-03-13T08:47:09Z</time>
      </trkpt>
      <trkpt lat="45.3266" lon="6.04067">
        <ele>1304</ele>
        <time>2016-03-13T08:47:14Z</time>
      </trkpt>
      <trkpt lat="45.32657" lon="6.0407">
        <ele>1304</ele>
        <time>2016-03-13T08:47:19Z</time>
      </trkpt>
      <trkpt lat="45.32652" lon="6.04074">
        <ele>1304</ele>
        <time>2016-03-13T08:47:24Z</time>
      </trkpt>
      <trkpt lat="45.32647" lon="6.04077">
        <ele>1304</ele>
        <time>2016-03-13T08:47:29Z</time>
      </trkpt>
      <trkpt lat="45.32643" lon="6.0408">
        <ele>1303</ele>
        <time>2016-03-13T08:47:34Z</time>
      </trkpt>
      <trkpt lat="45.32637" lon="6.04083">
        <ele>1303</ele>
        <time>2016-03-13T08:47:39Z</time>
      </trkpt>
      <trkpt lat="45.32632" lon="6.04088">
        <ele>1303</ele>
        <time>2016-03-13T08:47:44Z</time>
      </trkpt>
      <trkpt lat="45.32627" lon="6.04092">
        <ele>1303</ele>
        <time>2016-03-13T08:47:49Z</time>
      </trkpt>
      <trkpt lat="45.32623" lon="6.04095">
        <ele>1304</ele>
        <time>2016-03-13T08:47:54Z</time>
      </trkpt>
      <trkpt lat="45.32618" lon="6.04096">
        <ele>1306</ele>
        <time>2016-03-13T08:47:59Z</time>
      </trkpt>
      <trkpt lat="45.32615" lon="6.04098">
        <ele>1307</ele>
        <time>2016-03-13T08:48:04Z</time>
      </trkpt>
      <trkpt lat="45.3261" lon="6.04099">
        <ele>1307</ele>
        <time>2016-03-13T08:48:09Z</time>
      </trkpt>
      <trkpt lat="45.32605" lon="6.041">
        <ele>1307</ele>
        <time>2016-03-13T08:48:14Z</time>
      </trkpt>
      <trkpt lat="45.32601" lon="6.04099">
        <ele>1308</ele>
        <time>2016-03-13T08:48:19Z</time>
      </trkpt>
      <trkpt lat="45.32597" lon="6.04098">
        <ele>1310</ele>
        <time>2016-03-13T08:48:24Z</time>
      </trkpt>
      <trkpt lat="45.32595" lon="6.04098">
        <ele>1310</ele>
        <time>2016-03-13T08:48:29Z</time>
      </trkpt>
      <trkpt lat="45.32592" lon="6.04098">
        <ele>1310</ele>
        <time>2016-03-13T08:48:34Z</time>
      </trkpt>
      <trkpt lat="45.32589" lon="6.04098">
        <ele>1311</ele>
        <time>2016-03-13T08:48:39Z</time>
      </trkpt>
      <trkpt lat="45.32587" lon="6.04097">
        <ele>1311</ele>
        <time>2016-03-13T08:48:44Z</time>
      </trkpt>
      <trkpt lat="45.32584" lon="6.04096">
        <ele>1311</ele>
        <time>2016-03-13T08:48:49Z</time>
      </trkpt>
      <trkpt lat="45.32581" lon="6.04096">
        <ele>1312</ele>
        <time>2016-03-13T08:48:54Z</time>
      </trkpt>
      <trkpt lat="45.32578" lon="6.04094">
        <ele>1314</ele>
        <time>2016-03-13T08:48:59Z</time>
      </trkpt>
      <trkpt lat="45.32575" lon="6.04094">
        <ele>1314</ele>
        <time>2016-03-13T08:49:04Z</time>
      </trkpt>
      <trkpt lat="45.32573" lon="6.04093">
        <ele>1315</ele>
        <time>2016-03-13T08:49:09Z</time>
      </trkpt>
      <trkpt lat="45.32573" lon="6.04093">
        <ele>1316</ele>
        <time>2016-03-13T08:49:14Z</time>
      </trkpt>
      <trkpt lat="45.32571" lon="6.04093">
        <ele>1317</ele>
        <time>2016-03-13T08:49:19Z</time>
      </trkpt>
      <trkpt lat="45.32569" lon="6.04093">
        <ele>1317</ele>
        <time>2016-03-13T08:49:24Z</time>
      </trkpt>
      <trkpt lat="45.32566" lon="6.04093">
        <ele>1316</ele>
        <time>2016-03-13T08:49:29Z</time>
      </trkpt>
      <trkpt lat="45.32565" lon="6.04093">
        <ele>1315</ele>
        <time>2016-03-13T08:49:34Z</time>
      </trkpt>
      <trkpt lat="45.32565" lon="6.04092">
        <ele>1314</ele>
        <time>2016-03-13T08:49:39Z</time>
      </trkpt>
      <trkpt lat="45.32562" lon="6.04091">
        <ele>1314</ele>
        <time>2016-03-13T08:49:44Z</time>
      </trkpt>
      <trkpt lat="45.32559" lon="6.04091">
        <ele>1314</ele>
        <time>2016-03-13T08:49:49Z</time>
      </trkpt>
      <trkpt lat="45.32555" lon="6.0409">
        <ele>1317</ele>
        <time>2016-03-13T08:49:54Z</time>
      </trkpt>
      <trkpt lat="45.32552" lon="6.04087">
        <ele>1318</ele>
        <time>2016-03-13T08:49:59Z</time>
      </trkpt>
      <trkpt lat="45.32549" lon="6.04084">
        <ele>1318</ele>
        <time>2016-03-13T08:50:04Z</time>
      </trkpt>
      <trkpt lat="45.32548" lon="6.0408">
        <ele>1320</ele>
        <time>2016-03-13T08:50:09Z</time>
      </trkpt>
      <trkpt lat="45.32546" lon="6.04077">
        <ele>1320</ele>
        <time>2016-03-13T08:50:14Z</time>
      </trkpt>
      <trkpt lat="45.32544" lon="6.04072">
        <ele>1320</ele>
        <time>2016-03-13T08:50:19Z</time>
      </trkpt>
      <trkpt lat="45.32543" lon="6.04069">
        <ele>1320</ele>
        <time>2016-03-13T08:50:24Z</time>
      </trkpt>
      <trkpt lat="45.32541" lon="6.04065">
        <ele>1321</ele>
        <time>2016-03-13T08:50:29Z</time>
      </trkpt>
      <trkpt lat="45.32539" lon="6.04063">
        <ele>1324</ele>
        <time>2016-03-13T08:50:34Z</time>
      </trkpt>
      <trkpt lat="45.32538" lon="6.04061">
        <ele>1326</ele>
        <time>2016-03-13T08:50:39Z</time>
      </trkpt>
      <trkpt lat="45.32536" lon="6.04058">
        <ele>1326</ele>
        <time>2016-03-13T08:50:44Z</time>
      </trkpt>
      <trkpt lat="45.32534" lon="6.04055">
        <ele>1329</ele>
        <time>2016-03-13T08:50:49Z</time>
      </trkpt>
      <trkpt lat="45.32533" lon="6.04056">
        <ele>1329</ele>
        <time>2016-03-13T08:50:54Z</time>
      </trkpt>
      <trkpt lat="45.3253" lon="6.04057">
        <ele>1329</ele>
        <time>2016-03-13T08:50:59Z</time>
      </trkpt>
      <trkpt lat="45.3253" lon="6.04057">
        <ele>1329</ele>
        <time>2016-03-13T08:51:04Z</time>
      </trkpt>
      <trkpt lat="45.3253" lon="6.04057">
        <ele>1329</ele>
        <time>2016-03-13T08:51:09Z</time>
      </trkpt>
      <trkpt lat="45.32528" lon="6.04056">
        <ele>1329</ele>
        <time>2016-03-13T08:51:14Z</time>
      </trkpt>
      <trkpt lat="45.32527" lon="6.04056">
        <ele>1330</ele>
        <time>2016-03-13T08:51:19Z</time>
      </trkpt>
      <trkpt lat="45.32526" lon="6.04057">
        <ele>1329</ele>
        <time>2016-03-13T08:51:24Z</time>
      </trkpt>
      <trkpt lat="45.32526" lon="6.04056">
        <ele>1330</ele>
        <time>2016-03-13T08:51:29Z</time>
      </trkpt>
      <trkpt lat="45.32526" lon="6.04056">
        <ele>1332</ele>
        <time>2016-03-13T08:51:34Z</time>
      </trkpt>
      <trkpt lat="45.32526" lon="6.04056">
        <ele>1333</ele>
        <time>2016-03-13T08:51:39Z</time>
      </trkpt>
      <trkpt lat="45.32527" lon="6.04056">
        <ele>1335</ele>
        <time>2016-03-13T08:51:44Z</time>
      </trkpt>
      <trkpt lat="45.32527" lon="6.04056">
        <ele>1335</ele>
        <time>2016-03-13T08:51:49Z</time>
      </trkpt>
      <trkpt lat="45.32526" lon="6.04057">
        <ele>1334</ele>
        <time>2016-03-13T08:51:54Z</time>
      </trkpt>
      <trkpt lat="45.32523" lon="6.04057">
        <ele>1334</ele>
        <time>2016-03-13T08:51:59Z</time>
      </trkpt>
      <trkpt lat="45.32519" lon="6.04056">
        <ele>1334</ele>
        <time>2016-03-13T08:52:04Z</time>
      </trkpt>
      <trkpt lat="45.32515" lon="6.04054">
        <ele>1333</ele>
        <time>2016-03-13T08:52:09Z</time>
      </trkpt>
      <trkpt lat="45.32512" lon="6.04054">
        <ele>1331</ele>
        <time>2016-03-13T08:52:14Z</time>
      </trkpt>
      <trkpt lat="45.3251" lon="6.04051">
        <ele>1334</ele>
        <time>2016-03-13T08:52:19Z</time>
      </trkpt>
      <trkpt lat="45.3251" lon="6.04049">
        <ele>1336</ele>
        <time>2016-03-13T08:52:24Z</time>
      </trkpt>
      <trkpt lat="45.32508" lon="6.0405">
        <ele>1335</ele>
        <time>2016-03-13T08:52:29Z</time>
      </trkpt>
      <trkpt lat="45.32505" lon="6.04049">
        <ele>1334</ele>
        <time>2016-03-13T08:52:34Z</time>
      </trkpt>
      <trkpt lat="45.32504" lon="6.04047">
        <ele>1335</ele>
        <time>2016-03-13T08:52:39Z</time>
      </trkpt>
      <trkpt lat="45.32504" lon="6.04047">
        <ele>1335</ele>
        <time>2016-03-13T08:52:44Z</time>
      </trkpt>
      <trkpt lat="45.32502" lon="6.04047">
        <ele>1336</ele>
        <time>2016-03-13T08:52:49Z</time>
      </trkpt>
      <trkpt lat="45.325" lon="6.04046">
        <ele>1336</ele>
        <time>2016-03-13T08:52:54Z</time>
      </trkpt>
      <trkpt lat="45.32497" lon="6.04046">
        <ele>1335</ele>
        <time>2016-03-13T08:52:59Z</time>
      </trkpt>
      <trkpt lat="45.32494" lon="6.04046">
        <ele>1336</ele>
        <time>2016-03-13T08:53:04Z</time>
      </trkpt>
      <trkpt lat="45.32491" lon="6.04045">
        <ele>1338</ele>
        <time>2016-03-13T08:53:09Z</time>
      </trkpt>
      <trkpt lat="45.32488" lon="6.04045">
        <ele>1339</ele>
        <time>2016-03-13T08:53:14Z</time>
      </trkpt>
      <trkpt lat="45.32485" lon="6.04044">
        <ele>1341</ele>
        <time>2016-03-13T08:53:19Z</time>
      </trkpt>
      <trkpt lat="45.32481" lon="6.04044">
        <ele>1340</ele>
        <time>2016-03-13T08:53:24Z</time>
      </trkpt>
      <trkpt lat="45.32478" lon="6.04043">
        <ele>1340</ele>
        <time>2016-03-13T08:53:29Z</time>
      </trkpt>
      <trkpt lat="45.32475" lon="6.04043">
        <ele>1340</ele>
        <time>2016-03-13T08:53:34Z</time>
      </trkpt>
      <trkpt lat="45.32472" lon="6.04042">
        <ele>1339</ele>
        <time>2016-03-13T08:53:39Z</time>
      </trkpt>
      <trkpt lat="45.32469" lon="6.04041">
        <ele>1339</ele>
        <time>2016-03-13T08:53:44Z</time>
      </trkpt>
      <trkpt lat="45.32466" lon="6.0404">
        <ele>1339</ele>
        <time>2016-03-13T08:53:49Z</time>
      </trkpt>
      <trkpt lat="45.32462" lon="6.04037">
        <ele>1343</ele>
        <time>2016-03-13T08:53:54Z</time>
      </trkpt>
      <trkpt lat="45.3246" lon="6.04035">
        <ele>1343</ele>
        <time>2016-03-13T08:53:59Z</time>
      </trkpt>
      <trkpt lat="45.32457" lon="6.04033">
        <ele>1345</ele>
        <time>2016-03-13T08:54:04Z</time>
      </trkpt>
      <trkpt lat="45.32453" lon="6.04032">
        <ele>1346</ele>
        <time>2016-03-13T08:54:09Z</time>
      </trkpt>
      <trkpt lat="45.32451" lon="6.04031">
        <ele>1347</ele>
        <time>2016-03-13T08:54:14Z</time>
      </trkpt>
      <trkpt lat="45.32448" lon="6.0403">
        <ele>1348</ele>
        <time>2016-03-13T08:54:19Z</time>
      </trkpt>
      <trkpt lat="45.32446" lon="6.0403">
        <ele>1349</ele>
        <time>2016-03-13T08:54:24Z</time>
      </trkpt>
      <trkpt lat="45.32443" lon="6.04029">
        <ele>1351</ele>
        <time>2016-03-13T08:54:29Z</time>
      </trkpt>
      <trkpt lat="45.3244" lon="6.04029">
        <ele>1353</ele>
        <time>2016-03-13T08:54:34Z</time>
      </trkpt>
      <trkpt lat="45.32436" lon="6.04029">
        <ele>1352</ele>
        <time>2016-03-13T08:54:39Z</time>
      </trkpt>
      <trkpt lat="45.32434" lon="6.04029">
        <ele>1353</ele>
        <time>2016-03-13T08:54:44Z</time>
      </trkpt>
      <trkpt lat="45.32431" lon="6.04028">
        <ele>1354</ele>
        <time>2016-03-13T08:54:49Z</time>
      </trkpt>
      <trkpt lat="45.32429" lon="6.04027">
        <ele>1356</ele>
        <time>2016-03-13T08:54:54Z</time>
      </trkpt>
      <trkpt lat="45.32427" lon="6.04027">
        <ele>1356</ele>
        <time>2016-03-13T08:54:59Z</time>
      </trkpt>
      <trkpt lat="45.32424" lon="6.04027">
        <ele>1356</ele>
        <time>2016-03-13T08:55:04Z</time>
      </trkpt>
      <trkpt lat="45.32422" lon="6.04026">
        <ele>1358</ele>
        <time>2016-03-13T08:55:09Z</time>
      </trkpt>
      <trkpt lat="45.3242" lon="6.04025">
        <ele>1359</ele>
        <time>2016-03-13T08:55:14Z</time>
      </trkpt>
      <trkpt lat="45.32417" lon="6.04024">
        <ele>1359</ele>
        <time>2016-03-13T08:55:19Z</time>
      </trkpt>
      <trkpt lat="45.32414" lon="6.04024">
        <ele>1359</ele>
        <time>2016-03-13T08:55:24Z</time>
      </trkpt>
      <trkpt lat="45.32412" lon="6.04024">
        <ele>1360</ele>
        <time>2016-03-13T08:55:29Z</time>
      </trkpt>
      <trkpt lat="45.32409" lon="6.04023">
        <ele>1360</ele>
        <time>2016-03-13T08:55:34Z</time>
      </trkpt>
      <trkpt lat="45.32406" lon="6.04023">
        <ele>1360</ele>
        <time>2016-03-13T08:55:39Z</time>
      </trkpt>
      <trkpt lat="45.32403" lon="6.04023">
        <ele>1361</ele>
        <time>2016-03-13T08:55:44Z</time>
      </trkpt>
      <trkpt lat="45.324" lon="6.04023">
        <ele>1361</ele>
        <time>2016-03-13T08:55:49Z</time>
      </trkpt>
      <trkpt lat="45.32397" lon="6.04023">
        <ele>1361</ele>
        <time>2016-03-13T08:55:54Z</time>
      </trkpt>
      <trkpt lat="45.32394" lon="6.04022">
        <ele>1360</ele>
        <time>2016-03-13T08:55:59Z</time>
      </trkpt>
      <trkpt lat="45.32393" lon="6.04023">
        <ele>1361</ele>
        <time>2016-03-13T08:56:04Z</time>
      </trkpt>
      <trkpt lat="45.32391" lon="6.04026">
        <ele>1360</ele>
        <time>2016-03-13T08:56:09Z</time>
      </trkpt>
      <trkpt lat="45.32388" lon="6.04028">
        <ele>1360</ele>
        <time>2016-03-13T08:56:14Z</time>
      </trkpt>
      <trkpt lat="45.32386" lon="6.04029">
        <ele>1361</ele>
        <time>2016-03-13T08:56:19Z</time>
      </trkpt>
      <trkpt lat="45.32383" lon="6.04031">
        <ele>1363</ele>
        <time>2016-03-13T08:56:24Z</time>
      </trkpt>
      <trkpt lat="45.3238" lon="6.04032">
        <ele>1364</ele>
        <time>2016-03-13T08:56:29Z</time>
      </trkpt>
      <trkpt lat="45.32377" lon="6.04034">
        <ele>1364</ele>
        <time>2016-03-13T08:56:34Z</time>
      </trkpt>
      <trkpt lat="45.32374" lon="6.04035">
        <ele>1364</ele>
        <time>2016-03-13T08:56:39Z</time>
      </trkpt>
      <trkpt lat="45.32371" lon="6.04036">
        <ele>1364</ele>
        <time>2016-03-13T08:56:44Z</time>
      </trkpt>
      <trkpt lat="45.32369" lon="6.04038">
        <ele>1365</ele>
        <time>2016-03-13T08:56:49Z</time>
      </trkpt>
      <trkpt lat="45.32367" lon="6.0404">
        <ele>1366</ele>
        <time>2016-03-13T08:56:54Z</time>
      </trkpt>
      <trkpt lat="45.32364" lon="6.04042">
        <ele>1367</ele>
        <time>2016-03-13T08:56:59Z</time>
      </trkpt>
      <trkpt lat="45.32362" lon="6.04044">
        <ele>1368</ele>
        <time>2016-03-13T08:57:04Z</time>
      </trkpt>
      <trkpt lat="45.3236" lon="6.0404">
        <ele>1375</ele>
        <time>2016-03-13T09:00:19Z</time>
      </trkpt>
      <trkpt lat="45.32357" lon="6.04046">
        <ele>1377</ele>
        <time>2016-03-13T09:00:24Z</time>
      </trkpt>
      <trkpt lat="45.32357" lon="6.04051">
        <ele>1382</ele>
        <time>2016-03-13T09:00:29Z</time>
      </trkpt>
      <trkpt lat="45.32358" lon="6.04055">
        <ele>1384</ele>
        <time>2016-03-13T09:00:34Z</time>
      </trkpt>
      <trkpt lat="45.3236" lon="6.04059">
        <ele>1386</ele>
        <time>2016-03-13T09:00:39Z</time>
      </trkpt>
      <trkpt lat="45.32361" lon="6.04062">
        <ele>1388</ele>
        <time>2016-03-13T09:00:44Z</time>
      </trkpt>
      <trkpt lat="45.32363" lon="6.04064">
        <ele>1389</ele>
        <time>2016-03-13T09:00:49Z</time>
      </trkpt>
      <trkpt lat="45.32365" lon="6.04066">
        <ele>1391</ele>
        <time>2016-03-13T09:00:54Z</time>
      </trkpt>
      <trkpt lat="45.32365" lon="6.04066">
        <ele>1391</ele>
        <time>2016-03-13T09:00:59Z</time>
      </trkpt>
      <trkpt lat="45.32366" lon="6.04067">
        <ele>1393</ele>
        <time>2016-03-13T09:01:04Z</time>
      </trkpt>
      <trkpt lat="45.32367" lon="6.04071">
        <ele>1394</ele>
        <time>2016-03-13T09:01:09Z</time>
      </trkpt>
      <trkpt lat="45.32367" lon="6.04072">
        <ele>1393</ele>
        <time>2016-03-13T09:01:14Z</time>
      </trkpt>
      <trkpt lat="45.32367" lon="6.04072">
        <ele>1394</ele>
        <time>2016-03-13T09:01:19Z</time>
      </trkpt>
      <trkpt lat="45.32367" lon="6.04073">
        <ele>1392</ele>
        <time>2016-03-13T09:01:24Z</time>
      </trkpt>
      <trkpt lat="45.32367" lon="6.04077">
        <ele>1392</ele>
        <time>2016-03-13T09:01:29Z</time>
      </trkpt>
      <trkpt lat="45.32367" lon="6.0408">
        <ele>1393</ele>
        <time>2016-03-13T09:01:34Z</time>
      </trkpt>
      <trkpt lat="45.32367" lon="6.04084">
        <ele>1392</ele>
        <time>2016-03-13T09:01:39Z</time>
      </trkpt>
      <trkpt lat="45.32368" lon="6.04088">
        <ele>1393</ele>
        <time>2016-03-13T09:01:44Z</time>
      </trkpt>
      <trkpt lat="45.32369" lon="6.04094">
        <ele>1392</ele>
        <time>2016-03-13T09:01:49Z</time>
      </trkpt>
      <trkpt lat="45.32369" lon="6.04099">
        <ele>1391</ele>
        <time>2016-03-13T09:01:54Z</time>
      </trkpt>
      <trkpt lat="45.32371" lon="6.04102">
        <ele>1397</ele>
        <time>2016-03-13T09:01:59Z</time>
      </trkpt>
      <trkpt lat="45.32372" lon="6.0411">
        <ele>1396</ele>
        <time>2016-03-13T09:02:04Z</time>
      </trkpt>
      <trkpt lat="45.32373" lon="6.04116">
        <ele>1396</ele>
        <time>2016-03-13T09:02:09Z</time>
      </trkpt>
      <trkpt lat="45.32374" lon="6.04122">
        <ele>1394</ele>
        <time>2016-03-13T09:02:14Z</time>
      </trkpt>
      <trkpt lat="45.32375" lon="6.04127">
        <ele>1392</ele>
        <time>2016-03-13T09:02:19Z</time>
      </trkpt>
      <trkpt lat="45.32378" lon="6.0413">
        <ele>1393</ele>
        <time>2016-03-13T09:02:24Z</time>
      </trkpt>
      <trkpt lat="45.3238" lon="6.04133">
        <ele>1393</ele>
        <time>2016-03-13T09:02:29Z</time>
      </trkpt>
      <trkpt lat="45.32382" lon="6.04135">
        <ele>1393</ele>
        <time>2016-03-13T09:02:34Z</time>
      </trkpt>
      <trkpt lat="45.32383" lon="6.04138">
        <ele>1394</ele>
        <time>2016-03-13T09:02:39Z</time>
      </trkpt>
      <trkpt lat="45.32385" lon="6.0414">
        <ele>1396</ele>
        <time>2016-03-13T09:02:44Z</time>
      </trkpt>
      <trkpt lat="45.32386" lon="6.04141">
        <ele>1397</ele>
        <time>2016-03-13T09:02:49Z</time>
      </trkpt>
      <trkpt lat="45.32388" lon="6.04146">
        <ele>1397</ele>
        <time>2016-03-13T09:02:54Z</time>
      </trkpt>
      <trkpt lat="45.32391" lon="6.04149">
        <ele>1399</ele>
        <time>2016-03-13T09:02:59Z</time>
      </trkpt>
      <trkpt lat="45.32393" lon="6.04154">
        <ele>1397</ele>
        <time>2016-03-13T09:03:04Z</time>
      </trkpt>
      <trkpt lat="45.32394" lon="6.04159">
        <ele>1396</ele>
        <time>2016-03-13T09:03:09Z</time>
      </trkpt>
      <trkpt lat="45.32396" lon="6.04162">
        <ele>1397</ele>
        <time>2016-03-13T09:03:14Z</time>
      </trkpt>
      <trkpt lat="45.32397" lon="6.04165">
        <ele>1398</ele>
        <time>2016-03-13T09:03:19Z</time>
      </trkpt>
      <trkpt lat="45.32399" lon="6.04169">
        <ele>1400</ele>
        <time>2016-03-13T09:03:24Z</time>
      </trkpt>
      <trkpt lat="45.324" lon="6.04172">
        <ele>1401</ele>
        <time>2016-03-13T09:03:29Z</time>
      </trkpt>
      <trkpt lat="45.32402" lon="6.04176">
        <ele>1400</ele>
        <time>2016-03-13T09:03:34Z</time>
      </trkpt>
      <trkpt lat="45.32403" lon="6.04179">
        <ele>1399</ele>
        <time>2016-03-13T09:03:39Z</time>
      </trkpt>
      <trkpt lat="45.32406" lon="6.04182">
        <ele>1401</ele>
        <time>2016-03-13T09:03:44Z</time>
      </trkpt>
      <trkpt lat="45.32408" lon="6.04184">
        <ele>1403</ele>
        <time>2016-03-13T09:03:49Z</time>
      </trkpt>
      <trkpt lat="45.32411" lon="6.04187">
        <ele>1405</ele>
        <time>2016-03-13T09:03:54Z</time>
      </trkpt>
      <trkpt lat="45.32413" lon="6.04189">
        <ele>1405</ele>
        <time>2016-03-13T09:03:59Z</time>
      </trkpt>
      <trkpt lat="45.32415" lon="6.04193">
        <ele>1405</ele>
        <time>2016-03-13T09:04:04Z</time>
      </trkpt>
      <trkpt lat="45.32418" lon="6.04195">
        <ele>1406</ele>
        <time>2016-03-13T09:04:09Z</time>
      </trkpt>
      <trkpt lat="45.32418" lon="6.042">
        <ele>1406</ele>
        <time>2016-03-13T09:04:14Z</time>
      </trkpt>
      <trkpt lat="45.32419" lon="6.04203">
        <ele>1407</ele>
        <time>2016-03-13T09:04:19Z</time>
      </trkpt>
      <trkpt lat="45.3242" lon="6.04205">
        <ele>1408</ele>
        <time>2016-03-13T09:04:24Z</time>
      </trkpt>
      <trkpt lat="45.32421" lon="6.0421">
        <ele>1407</ele>
        <time>2016-03-13T09:04:29Z</time>
      </trkpt>
      <trkpt lat="45.32422" lon="6.04214">
        <ele>1407</ele>
        <time>2016-03-13T09:04:34Z</time>
      </trkpt>
      <trkpt lat="45.32423" lon="6.04217">
        <ele>1408</ele>
        <time>2016-03-13T09:04:39Z</time>
      </trkpt>
      <trkpt lat="45.32425" lon="6.04221">
        <ele>1409</ele>
        <time>2016-03-13T09:04:44Z</time>
      </trkpt>
      <trkpt lat="45.32425" lon="6.04224">
        <ele>1409</ele>
        <time>2016-03-13T09:04:49Z</time>
      </trkpt>
      <trkpt lat="45.32426" lon="6.04227">
        <ele>1411</ele>
        <time>2016-03-13T09:04:54Z</time>
      </trkpt>
      <trkpt lat="45.32428" lon="6.0423">
        <ele>1414</ele>
        <time>2016-03-13T09:04:59Z</time>
      </trkpt>
      <trkpt lat="45.3243" lon="6.04232">
        <ele>1416</ele>
        <time>2016-03-13T09:05:04Z</time>
      </trkpt>
      <trkpt lat="45.32431" lon="6.04235">
        <ele>1417</ele>
        <time>2016-03-13T09:05:09Z</time>
      </trkpt>
      <trkpt lat="45.32433" lon="6.04238">
        <ele>1419</ele>
        <time>2016-03-13T09:05:14Z</time>
      </trkpt>
      <trkpt lat="45.32434" lon="6.0424">
        <ele>1419</ele>
        <time>2016-03-13T09:05:19Z</time>
      </trkpt>
      <trkpt lat="45.32436" lon="6.04243">
        <ele>1421</ele>
        <time>2016-03-13T09:05:24Z</time>
      </trkpt>
      <trkpt lat="45.32438" lon="6.04246">
        <ele>1422</ele>
        <time>2016-03-13T09:05:29Z</time>
      </trkpt>
      <trkpt lat="45.32441" lon="6.04249">
        <ele>1423</ele>
        <time>2016-03-13T09:05:34Z</time>
      </trkpt>
      <trkpt lat="45.32443" lon="6.04252">
        <ele>1424</ele>
        <time>2016-03-13T09:05:39Z</time>
      </trkpt>
      <trkpt lat="45.32446" lon="6.04255">
        <ele>1425</ele>
        <time>2016-03-13T09:05:44Z</time>
      </trkpt>
      <trkpt lat="45.32448" lon="6.04259">
        <ele>1424</ele>
        <time>2016-03-13T09:05:49Z</time>
      </trkpt>
      <trkpt lat="45.32448" lon="6.04265">
        <ele>1420</ele>
        <time>2016-03-13T09:05:54Z</time>
      </trkpt>
      <trkpt lat="45.32449" lon="6.04269">
        <ele>1418</ele>
        <time>2016-03-13T09:05:59Z</time>
      </trkpt>
      <trkpt lat="45.32451" lon="6.04272">
        <ele>1419</ele>
        <time>2016-03-13T09:06:04Z</time>
      </trkpt>
      <trkpt lat="45.32452" lon="6.04276">
        <ele>1418</ele>
        <time>2016-03-13T09:06:09Z</time>
      </trkpt>
      <trkpt lat="45.32452" lon="6.0428">
        <ele>1418</ele>
        <time>2016-03-13T09:06:14Z</time>
      </trkpt>
      <trkpt lat="45.32454" lon="6.04283">
        <ele>1418</ele>
        <time>2016-03-13T09:06:19Z</time>
      </trkpt>
      <trkpt lat="45.32454" lon="6.04287">
        <ele>1417</ele>
        <time>2016-03-13T09:06:24Z</time>
      </trkpt>
      <trkpt lat="45.32454" lon="6.04291">
        <ele>1417</ele>
        <time>2016-03-13T09:06:29Z</time>
      </trkpt>
      <trkpt lat="45.32455" lon="6.04295">
        <ele>1417</ele>
        <time>2016-03-13T09:06:34Z</time>
      </trkpt>
      <trkpt lat="45.32455" lon="6.04299">
        <ele>1419</ele>
        <time>2016-03-13T09:06:39Z</time>
      </trkpt>
      <trkpt lat="45.32455" lon="6.04302">
        <ele>1420</ele>
        <time>2016-03-13T09:06:44Z</time>
      </trkpt>
      <trkpt lat="45.32453" lon="6.04306">
        <ele>1420</ele>
        <time>2016-03-13T09:06:49Z</time>
      </trkpt>
      <trkpt lat="45.32452" lon="6.0431">
        <ele>1421</ele>
        <time>2016-03-13T09:06:54Z</time>
      </trkpt>
      <trkpt lat="45.3245" lon="6.04313">
        <ele>1421</ele>
        <time>2016-03-13T09:06:59Z</time>
      </trkpt>
      <trkpt lat="45.32449" lon="6.04315">
        <ele>1422</ele>
        <time>2016-03-13T09:07:04Z</time>
      </trkpt>
      <trkpt lat="45.32447" lon="6.04317">
        <ele>1422</ele>
        <time>2016-03-13T09:07:09Z</time>
      </trkpt>
      <trkpt lat="45.32445" lon="6.04321">
        <ele>1422</ele>
        <time>2016-03-13T09:07:14Z</time>
      </trkpt>
      <trkpt lat="45.32442" lon="6.04324">
        <ele>1423</ele>
        <time>2016-03-13T09:07:19Z</time>
      </trkpt>
      <trkpt lat="45.32441" lon="6.04327">
        <ele>1424</ele>
        <time>2016-03-13T09:07:24Z</time>
      </trkpt>
      <trkpt lat="45.32439" lon="6.0433">
        <ele>1424</ele>
        <time>2016-03-13T09:07:29Z</time>
      </trkpt>
      <trkpt lat="45.32437" lon="6.04332">
        <ele>1424</ele>
        <time>2016-03-13T09:07:34Z</time>
      </trkpt>
      <trkpt lat="45.32435" lon="6.04335">
        <ele>1424</ele>
        <time>2016-03-13T09:07:39Z</time>
      </trkpt>
      <trkpt lat="45.32431" lon="6.04338">
        <ele>1426</ele>
        <time>2016-03-13T09:07:44Z</time>
      </trkpt>
      <trkpt lat="45.3243" lon="6.0434">
        <ele>1427</ele>
        <time>2016-03-13T09:07:49Z</time>
      </trkpt>
      <trkpt lat="45.32428" lon="6.04342">
        <ele>1428</ele>
        <time>2016-03-13T09:07:54Z</time>
      </trkpt>
      <trkpt lat="45.32428" lon="6.04342">
        <ele>1430</ele>
        <time>2016-03-13T09:07:59Z</time>
      </trkpt>
      <trkpt lat="45.32428" lon="6.04342">
        <ele>1431</ele>
        <time>2016-03-13T09:08:04Z</time>
      </trkpt>
      <trkpt lat="45.32428" lon="6.04342">
        <ele>1432</ele>
        <time>2016-03-13T09:08:09Z</time>
      </trkpt>
      <trkpt lat="45.32429" lon="6.04341">
        <ele>1433</ele>
        <time>2016-03-13T09:08:14Z</time>
      </trkpt>
      <trkpt lat="45.32431" lon="6.04341">
        <ele>1436</ele>
        <time>2016-03-13T09:08:19Z</time>
      </trkpt>
      <trkpt lat="45.32431" lon="6.04341">
        <ele>1436</ele>
        <time>2016-03-13T09:08:24Z</time>
      </trkpt>
      <trkpt lat="45.32431" lon="6.0434">
        <ele>1435</ele>
        <time>2016-03-13T09:08:29Z</time>
      </trkpt>
      <trkpt lat="45.32432" lon="6.0434">
        <ele>1435</ele>
        <time>2016-03-13T09:08:34Z</time>
      </trkpt>
      <trkpt lat="45.3243" lon="6.04341">
        <ele>1433</ele>
        <time>2016-03-13T09:08:39Z</time>
      </trkpt>
      <trkpt lat="45.32427" lon="6.04343">
        <ele>1431</ele>
        <time>2016-03-13T09:08:44Z</time>
      </trkpt>
      <trkpt lat="45.32427" lon="6.04342">
        <ele>1432</ele>
        <time>2016-03-13T09:08:49Z</time>
      </trkpt>
      <trkpt lat="45.32426" lon="6.04342">
        <ele>1431</ele>
        <time>2016-03-13T09:08:54Z</time>
      </trkpt>
      <trkpt lat="45.32425" lon="6.04343">
        <ele>1431</ele>
        <time>2016-03-13T09:08:59Z</time>
      </trkpt>
      <trkpt lat="45.32425" lon="6.04343">
        <ele>1431</ele>
        <time>2016-03-13T09:09:04Z</time>
      </trkpt>
      <trkpt lat="45.32425" lon="6.04342">
        <ele>1431</ele>
        <time>2016-03-13T09:09:09Z</time>
      </trkpt>
      <trkpt lat="45.32424" lon="6.04342">
        <ele>1432</ele>
        <time>2016-03-13T09:09:14Z</time>
      </trkpt>
      <trkpt lat="45.32424" lon="6.04342">
        <ele>1432</ele>
        <time>2016-03-13T09:09:19Z</time>
      </trkpt>
      <trkpt lat="45.32423" lon="6.04342">
        <ele>1433</ele>
        <time>2016-03-13T09:09:24Z</time>
      </trkpt>
      <trkpt lat="45.32422" lon="6.04344">
        <ele>1434</ele>
        <time>2016-03-13T09:09:29Z</time>
      </trkpt>
      <trkpt lat="45.3242" lon="6.04345">
        <ele>1435</ele>
        <time>2016-03-13T09:09:34Z</time>
      </trkpt>
      <trkpt lat="45.3242" lon="6.04346">
        <ele>1435</ele>
        <time>2016-03-13T09:09:39Z</time>
      </trkpt>
      <trkpt lat="45.32418" lon="6.04349">
        <ele>1435</ele>
        <time>2016-03-13T09:09:44Z</time>
      </trkpt>
      <trkpt lat="45.32415" lon="6.04354">
        <ele>1434</ele>
        <time>2016-03-13T09:09:49Z</time>
      </trkpt>
      <trkpt lat="45.32413" lon="6.04358">
        <ele>1432</ele>
        <time>2016-03-13T09:09:54Z</time>
      </trkpt>
      <trkpt lat="45.32411" lon="6.04362">
        <ele>1432</ele>
        <time>2016-03-13T09:09:59Z</time>
      </trkpt>
      <trkpt lat="45.32408" lon="6.04364">
        <ele>1432</ele>
        <time>2016-03-13T09:10:04Z</time>
      </trkpt>
      <trkpt lat="45.32405" lon="6.04367">
        <ele>1432</ele>
        <time>2016-03-13T09:10:09Z</time>
      </trkpt>
      <trkpt lat="45.32403" lon="6.04369">
        <ele>1432</ele>
        <time>2016-03-13T09:10:14Z</time>
      </trkpt>
      <trkpt lat="45.324" lon="6.04372">
        <ele>1434</ele>
        <time>2016-03-13T09:10:19Z</time>
      </trkpt>
      <trkpt lat="45.32398" lon="6.04374">
        <ele>1436</ele>
        <time>2016-03-13T09:10:24Z</time>
      </trkpt>
      <trkpt lat="45.32396" lon="6.04377">
        <ele>1437</ele>
        <time>2016-03-13T09:10:29Z</time>
      </trkpt>
      <trkpt lat="45.32391" lon="6.04379">
        <ele>1437</ele>
        <time>2016-03-13T09:10:34Z</time>
      </trkpt>
      <trkpt lat="45.32388" lon="6.04382">
        <ele>1437</ele>
        <time>2016-03-13T09:10:39Z</time>
      </trkpt>
      <trkpt lat="45.32386" lon="6.04384">
        <ele>1439</ele>
        <time>2016-03-13T09:10:44Z</time>
      </trkpt>
      <trkpt lat="45.32384" lon="6.04386">
        <ele>1439</ele>
        <time>2016-03-13T09:10:49Z</time>
      </trkpt>
      <trkpt lat="45.32382" lon="6.04388">
        <ele>1438</ele>
        <time>2016-03-13T09:10:54Z</time>
      </trkpt>
      <trkpt lat="45.3238" lon="6.04391">
        <ele>1439</ele>
        <time>2016-03-13T09:10:59Z</time>
      </trkpt>
      <trkpt lat="45.32378" lon="6.04394">
        <ele>1439</ele>
        <time>2016-03-13T09:11:04Z</time>
      </trkpt>
      <trkpt lat="45.32377" lon="6.04394">
        <ele>1438</ele>
        <time>2016-03-13T09:11:09Z</time>
      </trkpt>
      <trkpt lat="45.32376" lon="6.04395">
        <ele>1438</ele>
        <time>2016-03-13T09:11:14Z</time>
      </trkpt>
      <trkpt lat="45.32373" lon="6.04396">
        <ele>1438</ele>
        <time>2016-03-13T09:11:19Z</time>
      </trkpt>
      <trkpt lat="45.32371" lon="6.04397">
        <ele>1437</ele>
        <time>2016-03-13T09:11:24Z</time>
      </trkpt>
      <trkpt lat="45.32367" lon="6.04398">
        <ele>1437</ele>
        <time>2016-03-13T09:11:29Z</time>
      </trkpt>
      <trkpt lat="45.32364" lon="6.04399">
        <ele>1438</ele>
        <time>2016-03-13T09:11:34Z</time>
      </trkpt>
      <trkpt lat="45.32361" lon="6.04397">
        <ele>1438</ele>
        <time>2016-03-13T09:11:39Z</time>
      </trkpt>
      <trkpt lat="45.32357" lon="6.04396">
        <ele>1440</ele>
        <time>2016-03-13T09:11:44Z</time>
      </trkpt>
      <trkpt lat="45.32353" lon="6.04396">
        <ele>1440</ele>
        <time>2016-03-13T09:11:49Z</time>
      </trkpt>
      <trkpt lat="45.32349" lon="6.04395">
        <ele>1441</ele>
        <time>2016-03-13T09:11:54Z</time>
      </trkpt>
      <trkpt lat="45.32346" lon="6.04395">
        <ele>1441</ele>
        <time>2016-03-13T09:11:59Z</time>
      </trkpt>
      <trkpt lat="45.32342" lon="6.04394">
        <ele>1442</ele>
        <time>2016-03-13T09:12:04Z</time>
      </trkpt>
      <trkpt lat="45.32339" lon="6.04393">
        <ele>1444</ele>
        <time>2016-03-13T09:12:09Z</time>
      </trkpt>
      <trkpt lat="45.32335" lon="6.04392">
        <ele>1444</ele>
        <time>2016-03-13T09:12:14Z</time>
      </trkpt>
      <trkpt lat="45.32332" lon="6.0439">
        <ele>1445</ele>
        <time>2016-03-13T09:12:19Z</time>
      </trkpt>
      <trkpt lat="45.32328" lon="6.04389">
        <ele>1445</ele>
        <time>2016-03-13T09:12:24Z</time>
      </trkpt>
      <trkpt lat="45.32325" lon="6.04386">
        <ele>1444</ele>
        <time>2016-03-13T09:12:29Z</time>
      </trkpt>
      <trkpt lat="45.32321" lon="6.04384">
        <ele>1444</ele>
        <time>2016-03-13T09:12:34Z</time>
      </trkpt>
      <trkpt lat="45.32317" lon="6.04383">
        <ele>1444</ele>
        <time>2016-03-13T09:12:39Z</time>
      </trkpt>
      <trkpt lat="45.32316" lon="6.04383">
        <ele>1445</ele>
        <time>2016-03-13T09:12:44Z</time>
      </trkpt>
      <trkpt lat="45.32314" lon="6.04382">
        <ele>1446</ele>
        <time>2016-03-13T09:12:49Z</time>
      </trkpt>
      <trkpt lat="45.32311" lon="6.0438">
        <ele>1448</ele>
        <time>2016-03-13T09:12:54Z</time>
      </trkpt>
      <trkpt lat="45.32308" lon="6.0438">
        <ele>1449</ele>
        <time>2016-03-13T09:12:59Z</time>
      </trkpt>
      <trkpt lat="45.32304" lon="6.0438">
        <ele>1450</ele>
        <time>2016-03-13T09:13:04Z</time>
      </trkpt>
      <trkpt lat="45.32301" lon="6.04379">
        <ele>1450</ele>
        <time>2016-03-13T09:13:09Z</time>
      </trkpt>
      <trkpt lat="45.323" lon="6.04378">
        <ele>1452</ele>
        <time>2016-03-13T09:13:14Z</time>
      </trkpt>
      <trkpt lat="45.32298" lon="6.04378">
        <ele>1453</ele>
        <time>2016-03-13T09:13:19Z</time>
      </trkpt>
      <trkpt lat="45.32296" lon="6.04378">
        <ele>1454</ele>
        <time>2016-03-13T09:13:24Z</time>
      </trkpt>
      <trkpt lat="45.32294" lon="6.04378">
        <ele>1455</ele>
        <time>2016-03-13T09:13:29Z</time>
      </trkpt>
      <trkpt lat="45.32291" lon="6.04379">
        <ele>1455</ele>
        <time>2016-03-13T09:13:34Z</time>
      </trkpt>
      <trkpt lat="45.32288" lon="6.04379">
        <ele>1457</ele>
        <time>2016-03-13T09:13:39Z</time>
      </trkpt>
      <trkpt lat="45.32286" lon="6.04378">
        <ele>1457</ele>
        <time>2016-03-13T09:13:44Z</time>
      </trkpt>
      <trkpt lat="45.32283" lon="6.04377">
        <ele>1458</ele>
        <time>2016-03-13T09:13:49Z</time>
      </trkpt>
      <trkpt lat="45.32282" lon="6.04376">
        <ele>1460</ele>
        <time>2016-03-13T09:13:54Z</time>
      </trkpt>
      <trkpt lat="45.32279" lon="6.04376">
        <ele>1460</ele>
        <time>2016-03-13T09:13:59Z</time>
      </trkpt>
      <trkpt lat="45.32276" lon="6.04376">
        <ele>1461</ele>
        <time>2016-03-13T09:14:04Z</time>
      </trkpt>
      <trkpt lat="45.32272" lon="6.04376">
        <ele>1460</ele>
        <time>2016-03-13T09:14:09Z</time>
      </trkpt>
      <trkpt lat="45.3227" lon="6.04375">
        <ele>1460</ele>
        <time>2016-03-13T09:14:14Z</time>
      </trkpt>
      <trkpt lat="45.32267" lon="6.04375">
        <ele>1460</ele>
        <time>2016-03-13T09:14:19Z</time>
      </trkpt>
      <trkpt lat="45.32264" lon="6.04375">
        <ele>1461</ele>
        <time>2016-03-13T09:14:24Z</time>
      </trkpt>
      <trkpt lat="45.32261" lon="6.04376">
        <ele>1461</ele>
        <time>2016-03-13T09:14:29Z</time>
      </trkpt>
      <trkpt lat="45.32259" lon="6.04377">
        <ele>1461</ele>
        <time>2016-03-13T09:14:34Z</time>
      </trkpt>
      <trkpt lat="45.32256" lon="6.04378">
        <ele>1462</ele>
        <time>2016-03-13T09:14:39Z</time>
      </trkpt>
      <trkpt lat="45.32254" lon="6.0438">
        <ele>1463</ele>
        <time>2016-03-13T09:14:44Z</time>
      </trkpt>
      <trkpt lat="45.32251" lon="6.0438">
        <ele>1464</ele>
        <time>2016-03-13T09:14:49Z</time>
      </trkpt>
      <trkpt lat="45.32249" lon="6.04382">
        <ele>1466</ele>
        <time>2016-03-13T09:14:54Z</time>
      </trkpt>
      <trkpt lat="45.32246" lon="6.04382">
        <ele>1467</ele>
        <time>2016-03-13T09:14:59Z</time>
      </trkpt>
      <trkpt lat="45.32244" lon="6.04382">
        <ele>1468</ele>
        <time>2016-03-13T09:15:04Z</time>
      </trkpt>
      <trkpt lat="45.32242" lon="6.04383">
        <ele>1469</ele>
        <time>2016-03-13T09:15:09Z</time>
      </trkpt>
      <trkpt lat="45.3224" lon="6.04384">
        <ele>1470</ele>
        <time>2016-03-13T09:15:14Z</time>
      </trkpt>
      <trkpt lat="45.32238" lon="6.04385">
        <ele>1471</ele>
        <time>2016-03-13T09:15:19Z</time>
      </trkpt>
      <trkpt lat="45.32237" lon="6.04385">
        <ele>1473</ele>
        <time>2016-03-13T09:15:24Z</time>
      </trkpt>
      <trkpt lat="45.32236" lon="6.04386">
        <ele>1475</ele>
        <time>2016-03-13T09:15:29Z</time>
      </trkpt>
      <trkpt lat="45.32233" lon="6.04386">
        <ele>1475</ele>
        <time>2016-03-13T09:15:34Z</time>
      </trkpt>
      <trkpt lat="45.3223" lon="6.04388">
        <ele>1474</ele>
        <time>2016-03-13T09:15:39Z</time>
      </trkpt>
      <trkpt lat="45.32228" lon="6.04388">
        <ele>1476</ele>
        <time>2016-03-13T09:15:44Z</time>
      </trkpt>
      <trkpt lat="45.32226" lon="6.04389">
        <ele>1475</ele>
        <time>2016-03-13T09:15:49Z</time>
      </trkpt>
      <trkpt lat="45.32223" lon="6.0439">
        <ele>1476</ele>
        <time>2016-03-13T09:15:54Z</time>
      </trkpt>
      <trkpt lat="45.32222" lon="6.0439">
        <ele>1477</ele>
        <time>2016-03-13T09:15:59Z</time>
      </trkpt>
      <trkpt lat="45.3222" lon="6.04391">
        <ele>1478</ele>
        <time>2016-03-13T09:16:04Z</time>
      </trkpt>
      <trkpt lat="45.32218" lon="6.04393">
        <ele>1478</ele>
        <time>2016-03-13T09:16:09Z</time>
      </trkpt>
      <trkpt lat="45.32215" lon="6.04394">
        <ele>1478</ele>
        <time>2016-03-13T09:16:14Z</time>
      </trkpt>
      <trkpt lat="45.32212" lon="6.04394">
        <ele>1477</ele>
        <time>2016-03-13T09:16:19Z</time>
      </trkpt>
      <trkpt lat="45.3221" lon="6.04395">
        <ele>1478</ele>
        <time>2016-03-13T09:16:24Z</time>
      </trkpt>
      <trkpt lat="45.32207" lon="6.04396">
        <ele>1479</ele>
        <time>2016-03-13T09:16:29Z</time>
      </trkpt>
      <trkpt lat="45.32205" lon="6.04396">
        <ele>1481</ele>
        <time>2016-03-13T09:16:34Z</time>
      </trkpt>
      <trkpt lat="45.32202" lon="6.04398">
        <ele>1481</ele>
        <time>2016-03-13T09:16:39Z</time>
      </trkpt>
      <trkpt lat="45.32199" lon="6.04398">
        <ele>1481</ele>
        <time>2016-03-13T09:16:44Z</time>
      </trkpt>
      <trkpt lat="45.32194" lon="6.04401">
        <ele>1480</ele>
        <time>2016-03-13T09:16:49Z</time>
      </trkpt>
      <trkpt lat="45.32191" lon="6.044">
        <ele>1480</ele>
        <time>2016-03-13T09:16:54Z</time>
      </trkpt>
      <trkpt lat="45.32188" lon="6.04401">
        <ele>1480</ele>
        <time>2016-03-13T09:16:59Z</time>
      </trkpt>
      <trkpt lat="45.32185" lon="6.04401">
        <ele>1481</ele>
        <time>2016-03-13T09:17:04Z</time>
      </trkpt>
      <trkpt lat="45.32182" lon="6.04402">
        <ele>1481</ele>
        <time>2016-03-13T09:17:09Z</time>
      </trkpt>
      <trkpt lat="45.32178" lon="6.04404">
        <ele>1482</ele>
        <time>2016-03-13T09:17:14Z</time>
      </trkpt>
      <trkpt lat="45.32174" lon="6.04405">
        <ele>1482</ele>
        <time>2016-03-13T09:17:19Z</time>
      </trkpt>
      <trkpt lat="45.32171" lon="6.04406">
        <ele>1482</ele>
        <time>2016-03-13T09:17:24Z</time>
      </trkpt>
      <trkpt lat="45.32167" lon="6.04406">
        <ele>1482</ele>
        <time>2016-03-13T09:17:29Z</time>
      </trkpt>
      <trkpt lat="45.32164" lon="6.04408">
        <ele>1483</ele>
        <time>2016-03-13T09:17:34Z</time>
      </trkpt>
      <trkpt lat="45.32161" lon="6.0441">
        <ele>1483</ele>
        <time>2016-03-13T09:17:39Z</time>
      </trkpt>
      <trkpt lat="45.32158" lon="6.04411">
        <ele>1485</ele>
        <time>2016-03-13T09:17:44Z</time>
      </trkpt>
      <trkpt lat="45.32156" lon="6.04412">
        <ele>1486</ele>
        <time>2016-03-13T09:17:49Z</time>
      </trkpt>
      <trkpt lat="45.32153" lon="6.04413">
        <ele>1487</ele>
        <time>2016-03-13T09:17:54Z</time>
      </trkpt>
      <trkpt lat="45.3215" lon="6.04412">
        <ele>1488</ele>
        <time>2016-03-13T09:17:59Z</time>
      </trkpt>
      <trkpt lat="45.32146" lon="6.04412">
        <ele>1488</ele>
        <time>2016-03-13T09:18:04Z</time>
      </trkpt>
      <trkpt lat="45.32142" lon="6.04411">
        <ele>1488</ele>
        <time>2016-03-13T09:18:09Z</time>
      </trkpt>
      <trkpt lat="45.32139" lon="6.04408">
        <ele>1489</ele>
        <time>2016-03-13T09:18:14Z</time>
      </trkpt>
      <trkpt lat="45.32135" lon="6.04407">
        <ele>1489</ele>
        <time>2016-03-13T09:18:19Z</time>
      </trkpt>
      <trkpt lat="45.32132" lon="6.04407">
        <ele>1489</ele>
        <time>2016-03-13T09:18:24Z</time>
      </trkpt>
      <trkpt lat="45.32129" lon="6.04406">
        <ele>1489</ele>
        <time>2016-03-13T09:18:29Z</time>
      </trkpt>
      <trkpt lat="45.32127" lon="6.04406">
        <ele>1489</ele>
        <time>2016-03-13T09:18:34Z</time>
      </trkpt>
      <trkpt lat="45.32124" lon="6.04407">
        <ele>1489</ele>
        <time>2016-03-13T09:18:39Z</time>
      </trkpt>
      <trkpt lat="45.32123" lon="6.0441">
        <ele>1490</ele>
        <time>2016-03-13T09:18:44Z</time>
      </trkpt>
      <trkpt lat="45.32119" lon="6.04412">
        <ele>1491</ele>
        <time>2016-03-13T09:18:49Z</time>
      </trkpt>
      <trkpt lat="45.32116" lon="6.04412">
        <ele>1493</ele>
        <time>2016-03-13T09:18:54Z</time>
      </trkpt>
      <trkpt lat="45.32112" lon="6.04411">
        <ele>1494</ele>
        <time>2016-03-13T09:18:59Z</time>
      </trkpt>
      <trkpt lat="45.32109" lon="6.04414">
        <ele>1495</ele>
        <time>2016-03-13T09:19:04Z</time>
      </trkpt>
      <trkpt lat="45.32106" lon="6.04415">
        <ele>1496</ele>
        <time>2016-03-13T09:19:09Z</time>
      </trkpt>
      <trkpt lat="45.32105" lon="6.04415">
        <ele>1495</ele>
        <time>2016-03-13T09:19:14Z</time>
      </trkpt>
      <trkpt lat="45.32102" lon="6.04414">
        <ele>1495</ele>
        <time>2016-03-13T09:19:19Z</time>
      </trkpt>
      <trkpt lat="45.32099" lon="6.04413">
        <ele>1493</ele>
        <time>2016-03-13T09:19:24Z</time>
      </trkpt>
      <trkpt lat="45.32096" lon="6.04413">
        <ele>1492</ele>
        <time>2016-03-13T09:19:29Z</time>
      </trkpt>
      <trkpt lat="45.32093" lon="6.04412">
        <ele>1491</ele>
        <time>2016-03-13T09:19:34Z</time>
      </trkpt>
      <trkpt lat="45.32089" lon="6.04412">
        <ele>1491</ele>
        <time>2016-03-13T09:19:39Z</time>
      </trkpt>
      <trkpt lat="45.32086" lon="6.04412">
        <ele>1491</ele>
        <time>2016-03-13T09:19:44Z</time>
      </trkpt>
      <trkpt lat="45.32086" lon="6.04411">
        <ele>1492</ele>
        <time>2016-03-13T09:19:49Z</time>
      </trkpt>
      <trkpt lat="45.32086" lon="6.04409">
        <ele>1495</ele>
        <time>2016-03-13T09:19:54Z</time>
      </trkpt>
      <trkpt lat="45.32085" lon="6.04409">
        <ele>1500</ele>
        <time>2016-03-13T09:19:59Z</time>
      </trkpt>
      <trkpt lat="45.32082" lon="6.04408">
        <ele>1502</ele>
        <time>2016-03-13T09:20:04Z</time>
      </trkpt>
      <trkpt lat="45.32082" lon="6.04408">
        <ele>1503</ele>
        <time>2016-03-13T09:20:09Z</time>
      </trkpt>
      <trkpt lat="45.3208" lon="6.04407">
        <ele>1505</ele>
        <time>2016-03-13T09:20:14Z</time>
      </trkpt>
      <trkpt lat="45.32076" lon="6.04408">
        <ele>1507</ele>
        <time>2016-03-13T09:20:19Z</time>
      </trkpt>
      <trkpt lat="45.32072" lon="6.0441">
        <ele>1508</ele>
        <time>2016-03-13T09:20:24Z</time>
      </trkpt>
      <trkpt lat="45.32069" lon="6.04414">
        <ele>1509</ele>
        <time>2016-03-13T09:20:29Z</time>
      </trkpt>
      <trkpt lat="45.32066" lon="6.04418">
        <ele>1510</ele>
        <time>2016-03-13T09:20:34Z</time>
      </trkpt>
      <trkpt lat="45.32061" lon="6.0442">
        <ele>1510</ele>
        <time>2016-03-13T09:20:39Z</time>
      </trkpt>
      <trkpt lat="45.32056" lon="6.04422">
        <ele>1511</ele>
        <time>2016-03-13T09:20:44Z</time>
      </trkpt>
      <trkpt lat="45.3205" lon="6.04424">
        <ele>1511</ele>
        <time>2016-03-13T09:20:49Z</time>
      </trkpt>
      <trkpt lat="45.32045" lon="6.04424">
        <ele>1510</ele>
        <time>2016-03-13T09:20:54Z</time>
      </trkpt>
      <trkpt lat="45.32041" lon="6.04423">
        <ele>1509</ele>
        <time>2016-03-13T09:20:59Z</time>
      </trkpt>
      <trkpt lat="45.32037" lon="6.04422">
        <ele>1508</ele>
        <time>2016-03-13T09:21:04Z</time>
      </trkpt>
      <trkpt lat="45.32033" lon="6.04418">
        <ele>1508</ele>
        <time>2016-03-13T09:21:09Z</time>
      </trkpt>
      <trkpt lat="45.32029" lon="6.04415">
        <ele>1508</ele>
        <time>2016-03-13T09:21:14Z</time>
      </trkpt>
      <trkpt lat="45.32026" lon="6.04412">
        <ele>1507</ele>
        <time>2016-03-13T09:21:19Z</time>
      </trkpt>
      <trkpt lat="45.32021" lon="6.04408">
        <ele>1508</ele>
        <time>2016-03-13T09:21:24Z</time>
      </trkpt>
      <trkpt lat="45.32018" lon="6.04405">
        <ele>1507</ele>
        <time>2016-03-13T09:21:29Z</time>
      </trkpt>
      <trkpt lat="45.32015" lon="6.04404">
        <ele>1506</ele>
        <time>2016-03-13T09:21:34Z</time>
      </trkpt>
      <trkpt lat="45.3201" lon="6.04402">
        <ele>1506</ele>
        <time>2016-03-13T09:21:39Z</time>
      </trkpt>
      <trkpt lat="45.32005" lon="6.044">
        <ele>1506</ele>
        <time>2016-03-13T09:21:44Z</time>
      </trkpt>
      <trkpt lat="45.32004" lon="6.04399">
        <ele>1507</ele>
        <time>2016-03-13T09:21:49Z</time>
      </trkpt>
      <trkpt lat="45.32004" lon="6.04399">
        <ele>1507</ele>
        <time>2016-03-13T09:21:54Z</time>
      </trkpt>
      <trkpt lat="45.32004" lon="6.04399">
        <ele>1507</ele>
        <time>2016-03-13T09:21:59Z</time>
      </trkpt>
      <trkpt lat="45.32004" lon="6.04397">
        <ele>1507</ele>
        <time>2016-03-13T09:22:04Z</time>
      </trkpt>
      <trkpt lat="45.32004" lon="6.04395">
        <ele>1507</ele>
        <time>2016-03-13T09:22:09Z</time>
      </trkpt>
      <trkpt lat="45.32005" lon="6.04395">
        <ele>1509</ele>
        <time>2016-03-13T09:22:14Z</time>
      </trkpt>
      <trkpt lat="45.32005" lon="6.04397">
        <ele>1508</ele>
        <time>2016-03-13T09:22:19Z</time>
      </trkpt>
      <trkpt lat="45.32005" lon="6.04397">
        <ele>1507</ele>
        <time>2016-03-13T09:22:24Z</time>
      </trkpt>
      <trkpt lat="45.32004" lon="6.04397">
        <ele>1507</ele>
        <time>2016-03-13T09:22:29Z</time>
      </trkpt>
      <trkpt lat="45.32005" lon="6.04398">
        <ele>1508</ele>
        <time>2016-03-13T09:22:34Z</time>
      </trkpt>
      <trkpt lat="45.32005" lon="6.04399">
        <ele>1507</ele>
        <time>2016-03-13T09:22:39Z</time>
      </trkpt>
      <trkpt lat="45.32005" lon="6.04399">
        <ele>1507</ele>
        <time>2016-03-13T09:22:44Z</time>
      </trkpt>
      <trkpt lat="45.32004" lon="6.04398">
        <ele>1508</ele>
        <time>2016-03-13T09:22:49Z</time>
      </trkpt>
      <trkpt lat="45.32004" lon="6.04397">
        <ele>1511</ele>
        <time>2016-03-13T09:22:54Z</time>
      </trkpt>
      <trkpt lat="45.32003" lon="6.04395">
        <ele>1514</ele>
        <time>2016-03-13T09:22:59Z</time>
      </trkpt>
      <trkpt lat="45.32003" lon="6.04395">
        <ele>1514</ele>
        <time>2016-03-13T09:23:04Z</time>
      </trkpt>
      <trkpt lat="45.32001" lon="6.04394">
        <ele>1515</ele>
        <time>2016-03-13T09:23:09Z</time>
      </trkpt>
      <trkpt lat="45.31995" lon="6.04392">
        <ele>1515</ele>
        <time>2016-03-13T09:23:14Z</time>
      </trkpt>
      <trkpt lat="45.3199" lon="6.04391">
        <ele>1515</ele>
        <time>2016-03-13T09:23:19Z</time>
      </trkpt>
      <trkpt lat="45.31984" lon="6.0439">
        <ele>1515</ele>
        <time>2016-03-13T09:23:24Z</time>
      </trkpt>
      <trkpt lat="45.31978" lon="6.04389">
        <ele>1514</ele>
        <time>2016-03-13T09:23:29Z</time>
      </trkpt>
      <trkpt lat="45.31972" lon="6.04387">
        <ele>1514</ele>
        <time>2016-03-13T09:23:34Z</time>
      </trkpt>
      <trkpt lat="45.31967" lon="6.04386">
        <ele>1514</ele>
        <time>2016-03-13T09:23:39Z</time>
      </trkpt>
      <trkpt lat="45.31962" lon="6.04385">
        <ele>1514</ele>
        <time>2016-03-13T09:23:44Z</time>
      </trkpt>
      <trkpt lat="45.31956" lon="6.04386">
        <ele>1514</ele>
        <time>2016-03-13T09:23:49Z</time>
      </trkpt>
      <trkpt lat="45.31951" lon="6.04387">
        <ele>1515</ele>
        <time>2016-03-13T09:23:54Z</time>
      </trkpt>
      <trkpt lat="45.31946" lon="6.04388">
        <ele>1517</ele>
        <time>2016-03-13T09:23:59Z</time>
      </trkpt>
      <trkpt lat="45.31942" lon="6.04391">
        <ele>1518</ele>
        <time>2016-03-13T09:24:04Z</time>
      </trkpt>
      <trkpt lat="45.31937" lon="6.04394">
        <ele>1518</ele>
        <time>2016-03-13T09:24:09Z</time>
      </trkpt>
      <trkpt lat="45.31933" lon="6.04397">
        <ele>1519</ele>
        <time>2016-03-13T09:24:14Z</time>
      </trkpt>
      <trkpt lat="45.31929" lon="6.04398">
        <ele>1519</ele>
        <time>2016-03-13T09:24:19Z</time>
      </trkpt>
      <trkpt lat="45.31925" lon="6.044">
        <ele>1520</ele>
        <time>2016-03-13T09:24:24Z</time>
      </trkpt>
      <trkpt lat="45.3192" lon="6.04404">
        <ele>1518</ele>
        <time>2016-03-13T09:24:29Z</time>
      </trkpt>
      <trkpt lat="45.31915" lon="6.04407">
        <ele>1518</ele>
        <time>2016-03-13T09:24:34Z</time>
      </trkpt>
      <trkpt lat="45.31911" lon="6.04411">
        <ele>1518</ele>
        <time>2016-03-13T09:24:39Z</time>
      </trkpt>
      <trkpt lat="45.31906" lon="6.04414">
        <ele>1518</ele>
        <time>2016-03-13T09:24:44Z</time>
      </trkpt>
      <trkpt lat="45.31901" lon="6.04418">
        <ele>1519</ele>
        <time>2016-03-13T09:24:49Z</time>
      </trkpt>
      <trkpt lat="45.31897" lon="6.04422">
        <ele>1520</ele>
        <time>2016-03-13T09:24:54Z</time>
      </trkpt>
      <trkpt lat="45.31893" lon="6.04425">
        <ele>1521</ele>
        <time>2016-03-13T09:24:59Z</time>
      </trkpt>
      <trkpt lat="45.31889" lon="6.04427">
        <ele>1521</ele>
        <time>2016-03-13T09:25:04Z</time>
      </trkpt>
      <trkpt lat="45.31884" lon="6.04429">
        <ele>1522</ele>
        <time>2016-03-13T09:25:09Z</time>
      </trkpt>
      <trkpt lat="45.3188" lon="6.04431">
        <ele>1524</ele>
        <time>2016-03-13T09:25:14Z</time>
      </trkpt>
      <trkpt lat="45.31875" lon="6.04432">
        <ele>1525</ele>
        <time>2016-03-13T09:25:19Z</time>
      </trkpt>
      <trkpt lat="45.31871" lon="6.04434">
        <ele>1526</ele>
        <time>2016-03-13T09:25:24Z</time>
      </trkpt>
      <trkpt lat="45.31867" lon="6.04434">
        <ele>1528</ele>
        <time>2016-03-13T09:25:29Z</time>
      </trkpt>
      <trkpt lat="45.31862" lon="6.04435">
        <ele>1529</ele>
        <time>2016-03-13T09:25:34Z</time>
      </trkpt>
      <trkpt lat="45.31857" lon="6.04437">
        <ele>1530</ele>
        <time>2016-03-13T09:25:39Z</time>
      </trkpt>
      <trkpt lat="45.31852" lon="6.04439">
        <ele>1531</ele>
        <time>2016-03-13T09:25:44Z</time>
      </trkpt>
      <trkpt lat="45.31849" lon="6.04442">
        <ele>1532</ele>
        <time>2016-03-13T09:25:49Z</time>
      </trkpt>
      <trkpt lat="45.31845" lon="6.04446">
        <ele>1531</ele>
        <time>2016-03-13T09:25:54Z</time>
      </trkpt>
      <trkpt lat="45.31841" lon="6.04451">
        <ele>1531</ele>
        <time>2016-03-13T09:25:59Z</time>
      </trkpt>
      <trkpt lat="45.31838" lon="6.04457">
        <ele>1531</ele>
        <time>2016-03-13T09:26:04Z</time>
      </trkpt>
      <trkpt lat="45.31835" lon="6.04462">
        <ele>1531</ele>
        <time>2016-03-13T09:26:09Z</time>
      </trkpt>
      <trkpt lat="45.31832" lon="6.04466">
        <ele>1532</ele>
        <time>2016-03-13T09:26:14Z</time>
      </trkpt>
      <trkpt lat="45.31829" lon="6.04469">
        <ele>1532</ele>
        <time>2016-03-13T09:26:19Z</time>
      </trkpt>
      <trkpt lat="45.31828" lon="6.0447">
        <ele>1531</ele>
        <time>2016-03-13T09:26:24Z</time>
      </trkpt>
      <trkpt lat="45.31828" lon="6.0447">
        <ele>1531</ele>
        <time>2016-03-13T09:26:29Z</time>
      </trkpt>
      <trkpt lat="45.31828" lon="6.0447">
        <ele>1531</ele>
        <time>2016-03-13T09:26:34Z</time>
      </trkpt>
      <trkpt lat="45.31825" lon="6.04473">
        <ele>1531</ele>
        <time>2016-03-13T09:26:39Z</time>
      </trkpt>
      <trkpt lat="45.31823" lon="6.04473">
        <ele>1530</ele>
        <time>2016-03-13T09:26:44Z</time>
      </trkpt>
      <trkpt lat="45.31823" lon="6.04473">
        <ele>1530</ele>
        <time>2016-03-13T09:26:49Z</time>
      </trkpt>
      <trkpt lat="45.31823" lon="6.04474">
        <ele>1530</ele>
        <time>2016-03-13T09:26:54Z</time>
      </trkpt>
      <trkpt lat="45.31823" lon="6.04474">
        <ele>1529</ele>
        <time>2016-03-13T09:26:59Z</time>
      </trkpt>
      <trkpt lat="45.31823" lon="6.04474">
        <ele>1529</ele>
        <time>2016-03-13T09:27:04Z</time>
      </trkpt>
      <trkpt lat="45.31823" lon="6.04474">
        <ele>1529</ele>
        <time>2016-03-13T09:27:09Z</time>
      </trkpt>
      <trkpt lat="45.31822" lon="6.04477">
        <ele>1529</ele>
        <time>2016-03-13T09:27:14Z</time>
      </trkpt>
      <trkpt lat="45.31822" lon="6.04477">
        <ele>1529</ele>
        <time>2016-03-13T09:27:19Z</time>
      </trkpt>
      <trkpt lat="45.31822" lon="6.04477">
        <ele>1529</ele>
        <time>2016-03-13T09:27:24Z</time>
      </trkpt>
      <trkpt lat="45.31822" lon="6.04477">
        <ele>1529</ele>
        <time>2016-03-13T09:27:29Z</time>
      </trkpt>
      <trkpt lat="45.31822" lon="6.04477">
        <ele>1528</ele>
        <time>2016-03-13T09:27:34Z</time>
      </trkpt>
      <trkpt lat="45.31822" lon="6.04477">
        <ele>1528</ele>
        <time>2016-03-13T09:27:39Z</time>
      </trkpt>
      <trkpt lat="45.31822" lon="6.04477">
        <ele>1528</ele>
        <time>2016-03-13T09:27:44Z</time>
      </trkpt>
      <trkpt lat="45.31822" lon="6.04477">
        <ele>1528</ele>
        <time>2016-03-13T09:27:49Z</time>
      </trkpt>
      <trkpt lat="45.31822" lon="6.04477">
        <ele>1528</ele>
        <time>2016-03-13T09:27:54Z</time>
      </trkpt>
      <trkpt lat="45.31822" lon="6.04477">
        <ele>1528</ele>
        <time>2016-03-13T09:27:59Z</time>
      </trkpt>
      <trkpt lat="45.31821" lon="6.04482">
        <ele>1528</ele>
        <time>2016-03-13T09:28:04Z</time>
      </trkpt>
      <trkpt lat="45.31823" lon="6.04487">
        <ele>1529</ele>
        <time>2016-03-13T09:28:09Z</time>
      </trkpt>
      <trkpt lat="45.31825" lon="6.04491">
        <ele>1529</ele>
        <time>2016-03-13T09:28:14Z</time>
      </trkpt>
      <trkpt lat="45.31826" lon="6.04492">
        <ele>1530</ele>
        <time>2016-03-13T09:28:19Z</time>
      </trkpt>
      <trkpt lat="45.31826" lon="6.04492">
        <ele>1529</ele>
        <time>2016-03-13T09:28:24Z</time>
      </trkpt>
      <trkpt lat="45.31826" lon="6.04492">
        <ele>1529</ele>
        <time>2016-03-13T09:28:29Z</time>
      </trkpt>
      <trkpt lat="45.31826" lon="6.04492">
        <ele>1530</ele>
        <time>2016-03-13T09:28:34Z</time>
      </trkpt>
      <trkpt lat="45.31826" lon="6.04492">
        <ele>1530</ele>
        <time>2016-03-13T09:28:39Z</time>
      </trkpt>
      <trkpt lat="45.31826" lon="6.04492">
        <ele>1530</ele>
        <time>2016-03-13T09:28:44Z</time>
      </trkpt>
      <trkpt lat="45.31826" lon="6.04492">
        <ele>1530</ele>
        <time>2016-03-13T09:28:49Z</time>
      </trkpt>
      <trkpt lat="45.31826" lon="6.04492">
        <ele>1530</ele>
        <time>2016-03-13T09:28:54Z</time>
      </trkpt>
      <trkpt lat="45.31826" lon="6.04492">
        <ele>1530</ele>
        <time>2016-03-13T09:28:59Z</time>
      </trkpt>
      <trkpt lat="45.31826" lon="6.04492">
        <ele>1530</ele>
        <time>2016-03-13T09:29:04Z</time>
      </trkpt>
      <trkpt lat="45.31826" lon="6.04492">
        <ele>1530</ele>
        <time>2016-03-13T09:29:09Z</time>
      </trkpt>
      <trkpt lat="45.31826" lon="6.04492">
        <ele>1530</ele>
        <time>2016-03-13T09:29:14Z</time>
      </trkpt>
      <trkpt lat="45.31826" lon="6.04492">
        <ele>1530</ele>
        <time>2016-03-13T09:29:19Z</time>
      </trkpt>
      <trkpt lat="45.31826" lon="6.04492">
        <ele>1530</ele>
        <time>2016-03-13T09:29:24Z</time>
      </trkpt>
      <trkpt lat="45.31826" lon="6.04492">
        <ele>1530</ele>
        <time>2016-03-13T09:29:29Z</time>
      </trkpt>
      <trkpt lat="45.31826" lon="6.04492">
        <ele>1530</ele>
        <time>2016-03-13T09:29:34Z</time>
      </trkpt>
      <trkpt lat="45.31826" lon="6.04492">
        <ele>1529</ele>
        <time>2016-03-13T09:29:39Z</time>
      </trkpt>
      <trkpt lat="45.31826" lon="6.04492">
        <ele>1529</ele>
        <time>2016-03-13T09:29:44Z</time>
      </trkpt>
      <trkpt lat="45.31826" lon="6.04492">
        <ele>1529</ele>
        <time>2016-03-13T09:29:49Z</time>
      </trkpt>
      <trkpt lat="45.31827" lon="6.04492">
        <ele>1529</ele>
        <time>2016-03-13T09:29:54Z</time>
      </trkpt>
      <trkpt lat="45.31826" lon="6.04492">
        <ele>1529</ele>
        <time>2016-03-13T09:29:59Z</time>
      </trkpt>
      <trkpt lat="45.31827" lon="6.04492">
        <ele>1529</ele>
        <time>2016-03-13T09:30:04Z</time>
      </trkpt>
      <trkpt lat="45.31827" lon="6.04492">
        <ele>1529</ele>
        <time>2016-03-13T09:30:09Z</time>
      </trkpt>
      <trkpt lat="45.31827" lon="6.04492">
        <ele>1529</ele>
        <time>2016-03-13T09:30:14Z</time>
      </trkpt>
      <trkpt lat="45.31827" lon="6.04492">
        <ele>1529</ele>
        <time>2016-03-13T09:30:19Z</time>
      </trkpt>
      <trkpt lat="45.31827" lon="6.04493">
        <ele>1529</ele>
        <time>2016-03-13T09:30:24Z</time>
      </trkpt>
      <trkpt lat="45.31828" lon="6.04497">
        <ele>1529</ele>
        <time>2016-03-13T09:30:29Z</time>
      </trkpt>
      <trkpt lat="45.3183" lon="6.04501">
        <ele>1530</ele>
        <time>2016-03-13T09:30:34Z</time>
      </trkpt>
      <trkpt lat="45.31832" lon="6.04504">
        <ele>1531</ele>
        <time>2016-03-13T09:30:39Z</time>
      </trkpt>
      <trkpt lat="45.31833" lon="6.04506">
        <ele>1531</ele>
        <time>2016-03-13T09:30:44Z</time>
      </trkpt>
      <trkpt lat="45.31833" lon="6.04511">
        <ele>1532</ele>
        <time>2016-03-13T09:30:49Z</time>
      </trkpt>
      <trkpt lat="45.31834" lon="6.04515">
        <ele>1533</ele>
        <time>2016-03-13T09:30:54Z</time>
      </trkpt>
      <trkpt lat="45.31835" lon="6.0452">
        <ele>1533</ele>
        <time>2016-03-13T09:30:59Z</time>
      </trkpt>
      <trkpt lat="45.31835" lon="6.04525">
        <ele>1534</ele>
        <time>2016-03-13T09:31:04Z</time>
      </trkpt>
      <trkpt lat="45.31835" lon="6.04531">
        <ele>1535</ele>
        <time>2016-03-13T09:31:09Z</time>
      </trkpt>
      <trkpt lat="45.31835" lon="6.04536">
        <ele>1535</ele>
        <time>2016-03-13T09:31:14Z</time>
      </trkpt>
      <trkpt lat="45.31834" lon="6.04541">
        <ele>1536</ele>
        <time>2016-03-13T09:31:19Z</time>
      </trkpt>
      <trkpt lat="45.31834" lon="6.04546">
        <ele>1537</ele>
        <time>2016-03-13T09:31:24Z</time>
      </trkpt>
      <trkpt lat="45.31834" lon="6.04551">
        <ele>1538</ele>
        <time>2016-03-13T09:31:29Z</time>
      </trkpt>
      <trkpt lat="45.31835" lon="6.04557">
        <ele>1539</ele>
        <time>2016-03-13T09:31:34Z</time>
      </trkpt>
      <trkpt lat="45.31836" lon="6.04561">
        <ele>1540</ele>
        <time>2016-03-13T09:31:39Z</time>
      </trkpt>
      <trkpt lat="45.31836" lon="6.04566">
        <ele>1541</ele>
        <time>2016-03-13T09:31:44Z</time>
      </trkpt>
      <trkpt lat="45.31836" lon="6.0457">
        <ele>1542</ele>
        <time>2016-03-13T09:31:49Z</time>
      </trkpt>
      <trkpt lat="45.31837" lon="6.04574">
        <ele>1542</ele>
        <time>2016-03-13T09:31:54Z</time>
      </trkpt>
      <trkpt lat="45.31837" lon="6.04578">
        <ele>1543</ele>
        <time>2016-03-13T09:31:59Z</time>
      </trkpt>
      <trkpt lat="45.31836" lon="6.04582">
        <ele>1544</ele>
        <time>2016-03-13T09:32:04Z</time>
      </trkpt>
      <trkpt lat="45.31836" lon="6.04587">
        <ele>1545</ele>
        <time>2016-03-13T09:32:09Z</time>
      </trkpt>
      <trkpt lat="45.31837" lon="6.0459">
        <ele>1546</ele>
        <time>2016-03-13T09:32:14Z</time>
      </trkpt>
      <trkpt lat="45.31838" lon="6.04594">
        <ele>1547</ele>
        <time>2016-03-13T09:32:19Z</time>
      </trkpt>
      <trkpt lat="45.31839" lon="6.04596">
        <ele>1548</ele>
        <time>2016-03-13T09:32:24Z</time>
      </trkpt>
      <trkpt lat="45.31841" lon="6.04599">
        <ele>1549</ele>
        <time>2016-03-13T09:32:29Z</time>
      </trkpt>
      <trkpt lat="45.31844" lon="6.046">
        <ele>1550</ele>
        <time>2016-03-13T09:32:34Z</time>
      </trkpt>
      <trkpt lat="45.31846" lon="6.04601">
        <ele>1550</ele>
        <time>2016-03-13T09:32:39Z</time>
      </trkpt>
      <trkpt lat="45.31846" lon="6.04605">
        <ele>1551</ele>
        <time>2016-03-13T09:32:44Z</time>
      </trkpt>
      <trkpt lat="45.31844" lon="6.04608">
        <ele>1551</ele>
        <time>2016-03-13T09:32:49Z</time>
      </trkpt>
      <trkpt lat="45.31842" lon="6.0461">
        <ele>1552</ele>
        <time>2016-03-13T09:32:54Z</time>
      </trkpt>
      <trkpt lat="45.31839" lon="6.04613">
        <ele>1553</ele>
        <time>2016-03-13T09:32:59Z</time>
      </trkpt>
      <trkpt lat="45.31838" lon="6.04616">
        <ele>1553</ele>
        <time>2016-03-13T09:33:04Z</time>
      </trkpt>
      <trkpt lat="45.31838" lon="6.04618">
        <ele>1554</ele>
        <time>2016-03-13T09:33:09Z</time>
      </trkpt>
      <trkpt lat="45.3184" lon="6.04619">
        <ele>1554</ele>
        <time>2016-03-13T09:33:14Z</time>
      </trkpt>
      <trkpt lat="45.3184" lon="6.04619">
        <ele>1554</ele>
        <time>2016-03-13T09:33:19Z</time>
      </trkpt>
      <trkpt lat="45.31842" lon="6.04621">
        <ele>1555</ele>
        <time>2016-03-13T09:33:24Z</time>
      </trkpt>
      <trkpt lat="45.31845" lon="6.04624">
        <ele>1555</ele>
        <time>2016-03-13T09:33:29Z</time>
      </trkpt>
      <trkpt lat="45.31846" lon="6.04625">
        <ele>1556</ele>
        <time>2016-03-13T09:33:34Z</time>
      </trkpt>
      <trkpt lat="45.31846" lon="6.04625">
        <ele>1556</ele>
        <time>2016-03-13T09:33:39Z</time>
      </trkpt>
      <trkpt lat="45.31846" lon="6.04625">
        <ele>1556</ele>
        <time>2016-03-13T09:33:44Z</time>
      </trkpt>
      <trkpt lat="45.31846" lon="6.04625">
        <ele>1556</ele>
        <time>2016-03-13T09:33:49Z</time>
      </trkpt>
      <trkpt lat="45.31846" lon="6.04625">
        <ele>1555</ele>
        <time>2016-03-13T09:33:54Z</time>
      </trkpt>
      <trkpt lat="45.31846" lon="6.04625">
        <ele>1555</ele>
        <time>2016-03-13T09:33:59Z</time>
      </trkpt>
      <trkpt lat="45.31846" lon="6.04625">
        <ele>1555</ele>
        <time>2016-03-13T09:34:04Z</time>
      </trkpt>
      <trkpt lat="45.31846" lon="6.04625">
        <ele>1555</ele>
        <time>2016-03-13T09:34:09Z</time>
      </trkpt>
      <trkpt lat="45.31846" lon="6.04625">
        <ele>1555</ele>
        <time>2016-03-13T09:34:14Z</time>
      </trkpt>
      <trkpt lat="45.31846" lon="6.04625">
        <ele>1555</ele>
        <time>2016-03-13T09:34:19Z</time>
      </trkpt>
      <trkpt lat="45.31846" lon="6.04625">
        <ele>1555</ele>
        <time>2016-03-13T09:34:24Z</time>
      </trkpt>
      <trkpt lat="45.31847" lon="6.04626">
        <ele>1555</ele>
        <time>2016-03-13T09:34:29Z</time>
      </trkpt>
      <trkpt lat="45.31849" lon="6.04629">
        <ele>1556</ele>
        <time>2016-03-13T09:34:34Z</time>
      </trkpt>
      <trkpt lat="45.31852" lon="6.04632">
        <ele>1556</ele>
        <time>2016-03-13T09:34:39Z</time>
      </trkpt>
      <trkpt lat="45.31854" lon="6.04634">
        <ele>1557</ele>
        <time>2016-03-13T09:34:44Z</time>
      </trkpt>
      <trkpt lat="45.31856" lon="6.04637">
        <ele>1558</ele>
        <time>2016-03-13T09:34:49Z</time>
      </trkpt>
      <trkpt lat="45.31858" lon="6.04639">
        <ele>1558</ele>
        <time>2016-03-13T09:34:54Z</time>
      </trkpt>
      <trkpt lat="45.3186" lon="6.04642">
        <ele>1559</ele>
        <time>2016-03-13T09:34:59Z</time>
      </trkpt>
      <trkpt lat="45.31861" lon="6.04644">
        <ele>1560</ele>
        <time>2016-03-13T09:35:04Z</time>
      </trkpt>
      <trkpt lat="45.31864" lon="6.04646">
        <ele>1561</ele>
        <time>2016-03-13T09:35:09Z</time>
      </trkpt>
      <trkpt lat="45.31866" lon="6.04648">
        <ele>1561</ele>
        <time>2016-03-13T09:35:14Z</time>
      </trkpt>
      <trkpt lat="45.31868" lon="6.04649">
        <ele>1562</ele>
        <time>2016-03-13T09:35:19Z</time>
      </trkpt>
      <trkpt lat="45.3187" lon="6.04651">
        <ele>1563</ele>
        <time>2016-03-13T09:35:24Z</time>
      </trkpt>
      <trkpt lat="45.31872" lon="6.04653">
        <ele>1564</ele>
        <time>2016-03-13T09:35:29Z</time>
      </trkpt>
      <trkpt lat="45.31875" lon="6.04655">
        <ele>1564</ele>
        <time>2016-03-13T09:35:34Z</time>
      </trkpt>
      <trkpt lat="45.31876" lon="6.04658">
        <ele>1565</ele>
        <time>2016-03-13T09:35:39Z</time>
      </trkpt>
      <trkpt lat="45.31874" lon="6.04659">
        <ele>1565</ele>
        <time>2016-03-13T09:35:44Z</time>
      </trkpt>
      <trkpt lat="45.31871" lon="6.04661">
        <ele>1566</ele>
        <time>2016-03-13T09:35:49Z</time>
      </trkpt>
      <trkpt lat="45.31869" lon="6.04663">
        <ele>1566</ele>
        <time>2016-03-13T09:35:54Z</time>
      </trkpt>
      <trkpt lat="45.31867" lon="6.04665">
        <ele>1566</ele>
        <time>2016-03-13T09:35:59Z</time>
      </trkpt>
      <trkpt lat="45.31865" lon="6.04667">
        <ele>1567</ele>
        <time>2016-03-13T09:36:04Z</time>
      </trkpt>
      <trkpt lat="45.31863" lon="6.04669">
        <ele>1567</ele>
        <time>2016-03-13T09:36:09Z</time>
      </trkpt>
      <trkpt lat="45.3186" lon="6.04671">
        <ele>1568</ele>
        <time>2016-03-13T09:36:14Z</time>
      </trkpt>
      <trkpt lat="45.31859" lon="6.04672">
        <ele>1568</ele>
        <time>2016-03-13T09:36:19Z</time>
      </trkpt>
      <trkpt lat="45.31858" lon="6.04673">
        <ele>1569</ele>
        <time>2016-03-13T09:36:24Z</time>
      </trkpt>
      <trkpt lat="45.31856" lon="6.04675">
        <ele>1570</ele>
        <time>2016-03-13T09:36:29Z</time>
      </trkpt>
      <trkpt lat="45.31854" lon="6.04676">
        <ele>1570</ele>
        <time>2016-03-13T09:36:34Z</time>
      </trkpt>
      <trkpt lat="45.31852" lon="6.04677">
        <ele>1571</ele>
        <time>2016-03-13T09:36:39Z</time>
      </trkpt>
      <trkpt lat="45.31849" lon="6.04678">
        <ele>1572</ele>
        <time>2016-03-13T09:36:44Z</time>
      </trkpt>
      <trkpt lat="45.31847" lon="6.04679">
        <ele>1572</ele>
        <time>2016-03-13T09:36:49Z</time>
      </trkpt>
      <trkpt lat="45.31844" lon="6.0468">
        <ele>1573</ele>
        <time>2016-03-13T09:36:54Z</time>
      </trkpt>
      <trkpt lat="45.31842" lon="6.04681">
        <ele>1574</ele>
        <time>2016-03-13T09:36:59Z</time>
      </trkpt>
      <trkpt lat="45.3184" lon="6.04681">
        <ele>1575</ele>
        <time>2016-03-13T09:37:04Z</time>
      </trkpt>
      <trkpt lat="45.31837" lon="6.04682">
        <ele>1575</ele>
        <time>2016-03-13T09:37:09Z</time>
      </trkpt>
      <trkpt lat="45.31835" lon="6.04682">
        <ele>1576</ele>
        <time>2016-03-13T09:37:14Z</time>
      </trkpt>
      <trkpt lat="45.31832" lon="6.04683">
        <ele>1577</ele>
        <time>2016-03-13T09:37:19Z</time>
      </trkpt>
      <trkpt lat="45.3183" lon="6.04683">
        <ele>1577</ele>
        <time>2016-03-13T09:37:24Z</time>
      </trkpt>
      <trkpt lat="45.31827" lon="6.04683">
        <ele>1578</ele>
        <time>2016-03-13T09:37:29Z</time>
      </trkpt>
      <trkpt lat="45.31825" lon="6.04683">
        <ele>1579</ele>
        <time>2016-03-13T09:37:34Z</time>
      </trkpt>
      <trkpt lat="45.31822" lon="6.04684">
        <ele>1579</ele>
        <time>2016-03-13T09:37:39Z</time>
      </trkpt>
      <trkpt lat="45.3182" lon="6.04684">
        <ele>1580</ele>
        <time>2016-03-13T09:37:44Z</time>
      </trkpt>
      <trkpt lat="45.31819" lon="6.04684">
        <ele>1580</ele>
        <time>2016-03-13T09:37:49Z</time>
      </trkpt>
      <trkpt lat="45.31821" lon="6.04686">
        <ele>1581</ele>
        <time>2016-03-13T09:37:54Z</time>
      </trkpt>
      <trkpt lat="45.31822" lon="6.04689">
        <ele>1582</ele>
        <time>2016-03-13T09:37:59Z</time>
      </trkpt>
      <trkpt lat="45.31823" lon="6.0469">
        <ele>1582</ele>
        <time>2016-03-13T09:38:04Z</time>
      </trkpt>
      <trkpt lat="45.31823" lon="6.0469">
        <ele>1582</ele>
        <time>2016-03-13T09:38:09Z</time>
      </trkpt>
      <trkpt lat="45.31824" lon="6.04692">
        <ele>1582</ele>
        <time>2016-03-13T09:38:14Z</time>
      </trkpt>
      <trkpt lat="45.31826" lon="6.04694">
        <ele>1583</ele>
        <time>2016-03-13T09:38:19Z</time>
      </trkpt>
      <trkpt lat="45.31828" lon="6.04697">
        <ele>1583</ele>
        <time>2016-03-13T09:38:24Z</time>
      </trkpt>
      <trkpt lat="45.3183" lon="6.04699">
        <ele>1584</ele>
        <time>2016-03-13T09:38:29Z</time>
      </trkpt>
      <trkpt lat="45.31832" lon="6.04702">
        <ele>1585</ele>
        <time>2016-03-13T09:38:34Z</time>
      </trkpt>
      <trkpt lat="45.31832" lon="6.04702">
        <ele>1585</ele>
        <time>2016-03-13T09:38:39Z</time>
      </trkpt>
      <trkpt lat="45.31831" lon="6.04703">
        <ele>1585</ele>
        <time>2016-03-13T09:38:44Z</time>
      </trkpt>
      <trkpt lat="45.31831" lon="6.04702">
        <ele>1585</ele>
        <time>2016-03-13T09:38:49Z</time>
      </trkpt>
      <trkpt lat="45.3183" lon="6.04703">
        <ele>1585</ele>
        <time>2016-03-13T09:38:54Z</time>
      </trkpt>
      <trkpt lat="45.3183" lon="6.04702">
        <ele>1585</ele>
        <time>2016-03-13T09:38:59Z</time>
      </trkpt>
      <trkpt lat="45.31828" lon="6.04703">
        <ele>1586</ele>
        <time>2016-03-13T09:39:04Z</time>
      </trkpt>
      <trkpt lat="45.31824" lon="6.04704">
        <ele>1586</ele>
        <time>2016-03-13T09:39:09Z</time>
      </trkpt>
      <trkpt lat="45.31821" lon="6.04704">
        <ele>1587</ele>
        <time>2016-03-13T09:39:14Z</time>
      </trkpt>
      <trkpt lat="45.31818" lon="6.04705">
        <ele>1588</ele>
        <time>2016-03-13T09:39:19Z</time>
      </trkpt>
      <trkpt lat="45.31815" lon="6.04705">
        <ele>1588</ele>
        <time>2016-03-13T09:39:24Z</time>
      </trkpt>
      <trkpt lat="45.31812" lon="6.04706">
        <ele>1589</ele>
        <time>2016-03-13T09:39:29Z</time>
      </trkpt>
      <trkpt lat="45.3181" lon="6.04707">
        <ele>1589</ele>
        <time>2016-03-13T09:39:34Z</time>
      </trkpt>
      <trkpt lat="45.31811" lon="6.04707">
        <ele>1589</ele>
        <time>2016-03-13T09:39:39Z</time>
      </trkpt>
      <trkpt lat="45.31811" lon="6.04707">
        <ele>1590</ele>
        <time>2016-03-13T09:39:44Z</time>
      </trkpt>
      <trkpt lat="45.31808" lon="6.04707">
        <ele>1590</ele>
        <time>2016-03-13T09:39:49Z</time>
      </trkpt>
      <trkpt lat="45.31805" lon="6.04707">
        <ele>1591</ele>
        <time>2016-03-13T09:39:54Z</time>
      </trkpt>
      <trkpt lat="45.31801" lon="6.04707">
        <ele>1591</ele>
        <time>2016-03-13T09:39:59Z</time>
      </trkpt>
      <trkpt lat="45.31798" lon="6.04709">
        <ele>1592</ele>
        <time>2016-03-13T09:40:04Z</time>
      </trkpt>
      <trkpt lat="45.31797" lon="6.04711">
        <ele>1593</ele>
        <time>2016-03-13T09:40:09Z</time>
      </trkpt>
      <trkpt lat="45.318" lon="6.04713">
        <ele>1593</ele>
        <time>2016-03-13T09:40:14Z</time>
      </trkpt>
      <trkpt lat="45.31803" lon="6.04715">
        <ele>1593</ele>
        <time>2016-03-13T09:40:19Z</time>
      </trkpt>
      <trkpt lat="45.31806" lon="6.04718">
        <ele>1594</ele>
        <time>2016-03-13T09:40:24Z</time>
      </trkpt>
      <trkpt lat="45.31808" lon="6.0472">
        <ele>1595</ele>
        <time>2016-03-13T09:40:29Z</time>
      </trkpt>
      <trkpt lat="45.31809" lon="6.04721">
        <ele>1595</ele>
        <time>2016-03-13T09:40:34Z</time>
      </trkpt>
      <trkpt lat="45.31809" lon="6.04721">
        <ele>1595</ele>
        <time>2016-03-13T09:40:39Z</time>
      </trkpt>
      <trkpt lat="45.31809" lon="6.04721">
        <ele>1595</ele>
        <time>2016-03-13T09:40:44Z</time>
      </trkpt>
      <trkpt lat="45.31809" lon="6.04721">
        <ele>1595</ele>
        <time>2016-03-13T09:40:49Z</time>
      </trkpt>
      <trkpt lat="45.31809" lon="6.04721">
        <ele>1595</ele>
        <time>2016-03-13T09:40:54Z</time>
      </trkpt>
      <trkpt lat="45.31809" lon="6.04721">
        <ele>1595</ele>
        <time>2016-03-13T09:40:59Z</time>
      </trkpt>
      <trkpt lat="45.3181" lon="6.04722">
        <ele>1596</ele>
        <time>2016-03-13T09:41:04Z</time>
      </trkpt>
      <trkpt lat="45.31812" lon="6.04724">
        <ele>1596</ele>
        <time>2016-03-13T09:41:09Z</time>
      </trkpt>
      <trkpt lat="45.31815" lon="6.04726">
        <ele>1597</ele>
        <time>2016-03-13T09:41:14Z</time>
      </trkpt>
      <trkpt lat="45.31818" lon="6.04728">
        <ele>1598</ele>
        <time>2016-03-13T09:41:19Z</time>
      </trkpt>
      <trkpt lat="45.31819" lon="6.04729">
        <ele>1598</ele>
        <time>2016-03-13T09:41:24Z</time>
      </trkpt>
      <trkpt lat="45.31822" lon="6.04731">
        <ele>1599</ele>
        <time>2016-03-13T09:41:29Z</time>
      </trkpt>
      <trkpt lat="45.31823" lon="6.04733">
        <ele>1600</ele>
        <time>2016-03-13T09:41:34Z</time>
      </trkpt>
      <trkpt lat="45.31825" lon="6.04736">
        <ele>1600</ele>
        <time>2016-03-13T09:41:39Z</time>
      </trkpt>
      <trkpt lat="45.31824" lon="6.04739">
        <ele>1601</ele>
        <time>2016-03-13T09:41:44Z</time>
      </trkpt>
      <trkpt lat="45.31823" lon="6.04741">
        <ele>1601</ele>
        <time>2016-03-13T09:41:49Z</time>
      </trkpt>
      <trkpt lat="45.31824" lon="6.04741">
        <ele>1601</ele>
        <time>2016-03-13T09:41:54Z</time>
      </trkpt>
      <trkpt lat="45.31824" lon="6.04741">
        <ele>1601</ele>
        <time>2016-03-13T09:41:59Z</time>
      </trkpt>
      <trkpt lat="45.31824" lon="6.04741">
        <ele>1601</ele>
        <time>2016-03-13T09:42:04Z</time>
      </trkpt>
      <trkpt lat="45.31824" lon="6.04741">
        <ele>1601</ele>
        <time>2016-03-13T09:42:09Z</time>
      </trkpt>
      <trkpt lat="45.31824" lon="6.0474">
        <ele>1601</ele>
        <time>2016-03-13T09:42:14Z</time>
      </trkpt>
      <trkpt lat="45.31824" lon="6.0474">
        <ele>1601</ele>
        <time>2016-03-13T09:42:19Z</time>
      </trkpt>
      <trkpt lat="45.31824" lon="6.0474">
        <ele>1601</ele>
        <time>2016-03-13T09:42:24Z</time>
      </trkpt>
      <trkpt lat="45.31824" lon="6.0474">
        <ele>1601</ele>
        <time>2016-03-13T09:42:29Z</time>
      </trkpt>
      <trkpt lat="45.31824" lon="6.0474">
        <ele>1601</ele>
        <time>2016-03-13T09:42:34Z</time>
      </trkpt>
      <trkpt lat="45.31824" lon="6.0474">
        <ele>1601</ele>
        <time>2016-03-13T09:42:39Z</time>
      </trkpt>
      <trkpt lat="45.31823" lon="6.0474">
        <ele>1601</ele>
        <time>2016-03-13T09:42:44Z</time>
      </trkpt>
      <trkpt lat="45.3182" lon="6.04742">
        <ele>1602</ele>
        <time>2016-03-13T09:42:49Z</time>
      </trkpt>
      <trkpt lat="45.31819" lon="6.04744">
        <ele>1603</ele>
        <time>2016-03-13T09:42:54Z</time>
      </trkpt>
      <trkpt lat="45.31816" lon="6.04747">
        <ele>1604</ele>
        <time>2016-03-13T09:42:59Z</time>
      </trkpt>
      <trkpt lat="45.31813" lon="6.0475">
        <ele>1604</ele>
        <time>2016-03-13T09:43:04Z</time>
      </trkpt>
      <trkpt lat="45.31809" lon="6.04754">
        <ele>1605</ele>
        <time>2016-03-13T09:43:09Z</time>
      </trkpt>
      <trkpt lat="45.31808" lon="6.04756">
        <ele>1605</ele>
        <time>2016-03-13T09:43:14Z</time>
      </trkpt>
      <trkpt lat="45.31806" lon="6.04758">
        <ele>1606</ele>
        <time>2016-03-13T09:43:19Z</time>
      </trkpt>
      <trkpt lat="45.31803" lon="6.04761">
        <ele>1607</ele>
        <time>2016-03-13T09:43:24Z</time>
      </trkpt>
      <trkpt lat="45.31801" lon="6.04764">
        <ele>1607</ele>
        <time>2016-03-13T09:43:29Z</time>
      </trkpt>
      <trkpt lat="45.31798" lon="6.04767">
        <ele>1608</ele>
        <time>2016-03-13T09:43:34Z</time>
      </trkpt>
      <trkpt lat="45.31795" lon="6.0477">
        <ele>1609</ele>
        <time>2016-03-13T09:43:39Z</time>
      </trkpt>
      <trkpt lat="45.31793" lon="6.04773">
        <ele>1610</ele>
        <time>2016-03-13T09:43:44Z</time>
      </trkpt>
      <trkpt lat="45.31791" lon="6.04775">
        <ele>1610</ele>
        <time>2016-03-13T09:43:49Z</time>
      </trkpt>
      <trkpt lat="45.31789" lon="6.04778">
        <ele>1611</ele>
        <time>2016-03-13T09:43:54Z</time>
      </trkpt>
      <trkpt lat="45.31786" lon="6.04782">
        <ele>1611</ele>
        <time>2016-03-13T09:43:59Z</time>
      </trkpt>
      <trkpt lat="45.31784" lon="6.04785">
        <ele>1612</ele>
        <time>2016-03-13T09:44:04Z</time>
      </trkpt>
      <trkpt lat="45.31782" lon="6.04788">
        <ele>1613</ele>
        <time>2016-03-13T09:44:09Z</time>
      </trkpt>
      <trkpt lat="45.3178" lon="6.04791">
        <ele>1614</ele>
        <time>2016-03-13T09:44:14Z</time>
      </trkpt>
      <trkpt lat="45.31777" lon="6.04793">
        <ele>1615</ele>
        <time>2016-03-13T09:44:19Z</time>
      </trkpt>
      <trkpt lat="45.31775" lon="6.04796">
        <ele>1615</ele>
        <time>2016-03-13T09:44:24Z</time>
      </trkpt>
      <trkpt lat="45.31773" lon="6.04798">
        <ele>1616</ele>
        <time>2016-03-13T09:44:29Z</time>
      </trkpt>
      <trkpt lat="45.31772" lon="6.048">
        <ele>1617</ele>
        <time>2016-03-13T09:44:34Z</time>
      </trkpt>
      <trkpt lat="45.31771" lon="6.04802">
        <ele>1618</ele>
        <time>2016-03-13T09:44:39Z</time>
      </trkpt>
      <trkpt lat="45.3177" lon="6.04803">
        <ele>1619</ele>
        <time>2016-03-13T09:44:44Z</time>
      </trkpt>
      <trkpt lat="45.31769" lon="6.04804">
        <ele>1619</ele>
        <time>2016-03-13T09:44:49Z</time>
      </trkpt>
      <trkpt lat="45.31769" lon="6.04804">
        <ele>1619</ele>
        <time>2016-03-13T09:44:54Z</time>
      </trkpt>
      <trkpt lat="45.31767" lon="6.04807">
        <ele>1619</ele>
        <time>2016-03-13T09:44:59Z</time>
      </trkpt>
      <trkpt lat="45.31765" lon="6.04808">
        <ele>1620</ele>
        <time>2016-03-13T09:45:04Z</time>
      </trkpt>
      <trkpt lat="45.31766" lon="6.04811">
        <ele>1621</ele>
        <time>2016-03-13T09:45:09Z</time>
      </trkpt>
      <trkpt lat="45.31767" lon="6.04813">
        <ele>1622</ele>
        <time>2016-03-13T09:45:14Z</time>
      </trkpt>
      <trkpt lat="45.31765" lon="6.04813">
        <ele>1622</ele>
        <time>2016-03-13T09:45:19Z</time>
      </trkpt>
      <trkpt lat="45.31764" lon="6.04814">
        <ele>1623</ele>
        <time>2016-03-13T09:45:24Z</time>
      </trkpt>
      <trkpt lat="45.31764" lon="6.04814">
        <ele>1623</ele>
        <time>2016-03-13T09:45:29Z</time>
      </trkpt>
      <trkpt lat="45.31764" lon="6.04814">
        <ele>1623</ele>
        <time>2016-03-13T09:45:34Z</time>
      </trkpt>
      <trkpt lat="45.31764" lon="6.04815">
        <ele>1624</ele>
        <time>2016-03-13T09:45:39Z</time>
      </trkpt>
      <trkpt lat="45.31764" lon="6.04818">
        <ele>1625</ele>
        <time>2016-03-13T09:45:44Z</time>
      </trkpt>
      <trkpt lat="45.31765" lon="6.0482">
        <ele>1625</ele>
        <time>2016-03-13T09:45:49Z</time>
      </trkpt>
      <trkpt lat="45.31767" lon="6.0482">
        <ele>1625</ele>
        <time>2016-03-13T09:45:54Z</time>
      </trkpt>
      <trkpt lat="45.3177" lon="6.04818">
        <ele>1625</ele>
        <time>2016-03-13T09:45:59Z</time>
      </trkpt>
      <trkpt lat="45.31772" lon="6.04817">
        <ele>1625</ele>
        <time>2016-03-13T09:46:04Z</time>
      </trkpt>
      <trkpt lat="45.31774" lon="6.04819">
        <ele>1626</ele>
        <time>2016-03-13T09:46:09Z</time>
      </trkpt>
      <trkpt lat="45.31774" lon="6.04821">
        <ele>1627</ele>
        <time>2016-03-13T09:46:14Z</time>
      </trkpt>
      <trkpt lat="45.31775" lon="6.04821">
        <ele>1627</ele>
        <time>2016-03-13T09:46:19Z</time>
      </trkpt>
      <trkpt lat="45.31774" lon="6.04821">
        <ele>1627</ele>
        <time>2016-03-13T09:46:24Z</time>
      </trkpt>
      <trkpt lat="45.31774" lon="6.04821">
        <ele>1627</ele>
        <time>2016-03-13T09:46:29Z</time>
      </trkpt>
      <trkpt lat="45.31774" lon="6.04821">
        <ele>1627</ele>
        <time>2016-03-13T09:46:34Z</time>
      </trkpt>
      <trkpt lat="45.31774" lon="6.04821">
        <ele>1627</ele>
        <time>2016-03-13T09:46:39Z</time>
      </trkpt>
      <trkpt lat="45.31774" lon="6.0482">
        <ele>1627</ele>
        <time>2016-03-13T09:46:44Z</time>
      </trkpt>
      <trkpt lat="45.31774" lon="6.0482">
        <ele>1627</ele>
        <time>2016-03-13T09:46:49Z</time>
      </trkpt>
      <trkpt lat="45.31774" lon="6.0482">
        <ele>1626</ele>
        <time>2016-03-13T09:46:54Z</time>
      </trkpt>
      <trkpt lat="45.31774" lon="6.0482">
        <ele>1626</ele>
        <time>2016-03-13T09:46:59Z</time>
      </trkpt>
      <trkpt lat="45.31774" lon="6.0482">
        <ele>1626</ele>
        <time>2016-03-13T09:47:04Z</time>
      </trkpt>
      <trkpt lat="45.31773" lon="6.04822">
        <ele>1626</ele>
        <time>2016-03-13T09:47:09Z</time>
      </trkpt>
      <trkpt lat="45.31772" lon="6.04825">
        <ele>1627</ele>
        <time>2016-03-13T09:47:14Z</time>
      </trkpt>
      <trkpt lat="45.3177" lon="6.04827">
        <ele>1627</ele>
        <time>2016-03-13T09:47:19Z</time>
      </trkpt>
      <trkpt lat="45.31768" lon="6.0483">
        <ele>1628</ele>
        <time>2016-03-13T09:47:24Z</time>
      </trkpt>
      <trkpt lat="45.31767" lon="6.04833">
        <ele>1630</ele>
        <time>2016-03-13T09:47:29Z</time>
      </trkpt>
      <trkpt lat="45.31765" lon="6.04835">
        <ele>1631</ele>
        <time>2016-03-13T09:47:34Z</time>
      </trkpt>
      <trkpt lat="45.31764" lon="6.04837">
        <ele>1632</ele>
        <time>2016-03-13T09:47:39Z</time>
      </trkpt>
      <trkpt lat="45.31762" lon="6.04837">
        <ele>1632</ele>
        <time>2016-03-13T09:47:44Z</time>
      </trkpt>
      <trkpt lat="45.31762" lon="6.04838">
        <ele>1633</ele>
        <time>2016-03-13T09:47:49Z</time>
      </trkpt>
      <trkpt lat="45.31762" lon="6.04839">
        <ele>1633</ele>
        <time>2016-03-13T09:47:54Z</time>
      </trkpt>
      <trkpt lat="45.31763" lon="6.04842">
        <ele>1634</ele>
        <time>2016-03-13T09:47:59Z</time>
      </trkpt>
      <trkpt lat="45.31764" lon="6.04844">
        <ele>1635</ele>
        <time>2016-03-13T09:48:04Z</time>
      </trkpt>
      <trkpt lat="45.31766" lon="6.04845">
        <ele>1636</ele>
        <time>2016-03-13T09:48:09Z</time>
      </trkpt>
      <trkpt lat="45.31767" lon="6.04847">
        <ele>1636</ele>
        <time>2016-03-13T09:48:14Z</time>
      </trkpt>
      <trkpt lat="45.31764" lon="6.0485">
        <ele>1637</ele>
        <time>2016-03-13T09:48:19Z</time>
      </trkpt>
      <trkpt lat="45.31761" lon="6.04851">
        <ele>1638</ele>
        <time>2016-03-13T09:48:24Z</time>
      </trkpt>
      <trkpt lat="45.3176" lon="6.04854">
        <ele>1639</ele>
        <time>2016-03-13T09:48:29Z</time>
      </trkpt>
      <trkpt lat="45.3176" lon="6.04856">
        <ele>1639</ele>
        <time>2016-03-13T09:48:34Z</time>
      </trkpt>
      <trkpt lat="45.31761" lon="6.04857">
        <ele>1639</ele>
        <time>2016-03-13T09:48:39Z</time>
      </trkpt>
      <trkpt lat="45.31764" lon="6.04858">
        <ele>1640</ele>
        <time>2016-03-13T09:48:44Z</time>
      </trkpt>
      <trkpt lat="45.31764" lon="6.04858">
        <ele>1640</ele>
        <time>2016-03-13T09:48:49Z</time>
      </trkpt>
      <trkpt lat="45.31765" lon="6.04858">
        <ele>1642</ele>
        <time>2016-03-13T09:48:54Z</time>
      </trkpt>
      <trkpt lat="45.31767" lon="6.04859">
        <ele>1642</ele>
        <time>2016-03-13T09:48:59Z</time>
      </trkpt>
      <trkpt lat="45.31769" lon="6.04859">
        <ele>1642</ele>
        <time>2016-03-13T09:49:04Z</time>
      </trkpt>
      <trkpt lat="45.31769" lon="6.04859">
        <ele>1641</ele>
        <time>2016-03-13T09:49:09Z</time>
      </trkpt>
      <trkpt lat="45.31771" lon="6.04859">
        <ele>1642</ele>
        <time>2016-03-13T09:49:14Z</time>
      </trkpt>
      <trkpt lat="45.31774" lon="6.0486">
        <ele>1642</ele>
        <time>2016-03-13T09:53:04Z</time>
      </trkpt>
      <trkpt lat="45.31774" lon="6.04861">
        <ele>1641</ele>
        <time>2016-03-13T09:53:09Z</time>
      </trkpt>
      <trkpt lat="45.31774" lon="6.04861">
        <ele>1640</ele>
        <time>2016-03-13T09:53:14Z</time>
      </trkpt>
      <trkpt lat="45.31774" lon="6.04862">
        <ele>1640</ele>
        <time>2016-03-13T09:53:19Z</time>
      </trkpt>
      <trkpt lat="45.31775" lon="6.04862">
        <ele>1640</ele>
        <time>2016-03-13T09:53:24Z</time>
      </trkpt>
      <trkpt lat="45.31775" lon="6.04862">
        <ele>1640</ele>
        <time>2016-03-13T09:53:29Z</time>
      </trkpt>
      <trkpt lat="45.31775" lon="6.04862">
        <ele>1640</ele>
        <time>2016-03-13T09:53:34Z</time>
      </trkpt>
      <trkpt lat="45.31773" lon="6.04864">
        <ele>1640</ele>
        <time>2016-03-13T09:53:39Z</time>
      </trkpt>
      <trkpt lat="45.3177" lon="6.04866">
        <ele>1640</ele>
        <time>2016-03-13T09:53:44Z</time>
      </trkpt>
      <trkpt lat="45.31766" lon="6.04867">
        <ele>1640</ele>
        <time>2016-03-13T09:53:49Z</time>
      </trkpt>
      <trkpt lat="45.31762" lon="6.04866">
        <ele>1640</ele>
        <time>2016-03-13T09:53:54Z</time>
      </trkpt>
      <trkpt lat="45.31757" lon="6.04866">
        <ele>1641</ele>
        <time>2016-03-13T09:53:59Z</time>
      </trkpt>
      <trkpt lat="45.31753" lon="6.04866">
        <ele>1641</ele>
        <time>2016-03-13T09:54:04Z</time>
      </trkpt>
      <trkpt lat="45.31749" lon="6.04865">
        <ele>1643</ele>
        <time>2016-03-13T09:54:09Z</time>
      </trkpt>
      <trkpt lat="45.31746" lon="6.04865">
        <ele>1645</ele>
        <time>2016-03-13T09:54:14Z</time>
      </trkpt>
      <trkpt lat="45.31744" lon="6.04864">
        <ele>1648</ele>
        <time>2016-03-13T09:54:19Z</time>
      </trkpt>
      <trkpt lat="45.31741" lon="6.04864">
        <ele>1648</ele>
        <time>2016-03-13T09:54:24Z</time>
      </trkpt>
      <trkpt lat="45.31738" lon="6.04864">
        <ele>1649</ele>
        <time>2016-03-13T09:54:29Z</time>
      </trkpt>
      <trkpt lat="45.31736" lon="6.04864">
        <ele>1650</ele>
        <time>2016-03-13T09:54:34Z</time>
      </trkpt>
      <trkpt lat="45.31733" lon="6.04864">
        <ele>1651</ele>
        <time>2016-03-13T09:54:39Z</time>
      </trkpt>
      <trkpt lat="45.3173" lon="6.04863">
        <ele>1651</ele>
        <time>2016-03-13T09:54:44Z</time>
      </trkpt>
      <trkpt lat="45.31727" lon="6.04861">
        <ele>1653</ele>
        <time>2016-03-13T09:54:49Z</time>
      </trkpt>
      <trkpt lat="45.31725" lon="6.04859">
        <ele>1653</ele>
        <time>2016-03-13T09:54:54Z</time>
      </trkpt>
      <trkpt lat="45.31722" lon="6.04858">
        <ele>1654</ele>
        <time>2016-03-13T09:54:59Z</time>
      </trkpt>
      <trkpt lat="45.31719" lon="6.04858">
        <ele>1654</ele>
        <time>2016-03-13T09:55:04Z</time>
      </trkpt>
      <trkpt lat="45.31717" lon="6.04858">
        <ele>1655</ele>
        <time>2016-03-13T09:55:09Z</time>
      </trkpt>
      <trkpt lat="45.31715" lon="6.0486">
        <ele>1655</ele>
        <time>2016-03-13T09:55:14Z</time>
      </trkpt>
      <trkpt lat="45.31713" lon="6.04863">
        <ele>1656</ele>
        <time>2016-03-13T09:55:19Z</time>
      </trkpt>
      <trkpt lat="45.31712" lon="6.04865">
        <ele>1658</ele>
        <time>2016-03-13T09:55:24Z</time>
      </trkpt>
      <trkpt lat="45.31711" lon="6.04868">
        <ele>1660</ele>
        <time>2016-03-13T09:55:29Z</time>
      </trkpt>
      <trkpt lat="45.3171" lon="6.04871">
        <ele>1660</ele>
        <time>2016-03-13T09:55:34Z</time>
      </trkpt>
      <trkpt lat="45.31708" lon="6.04874">
        <ele>1660</ele>
        <time>2016-03-13T09:55:39Z</time>
      </trkpt>
      <trkpt lat="45.31706" lon="6.04876">
        <ele>1660</ele>
        <time>2016-03-13T09:55:44Z</time>
      </trkpt>
      <trkpt lat="45.31703" lon="6.04877">
        <ele>1660</ele>
        <time>2016-03-13T09:55:49Z</time>
      </trkpt>
      <trkpt lat="45.317" lon="6.04876">
        <ele>1660</ele>
        <time>2016-03-13T09:55:54Z</time>
      </trkpt>
      <trkpt lat="45.31698" lon="6.04875">
        <ele>1660</ele>
        <time>2016-03-13T09:55:59Z</time>
      </trkpt>
      <trkpt lat="45.31695" lon="6.04873">
        <ele>1661</ele>
        <time>2016-03-13T09:56:04Z</time>
      </trkpt>
      <trkpt lat="45.31693" lon="6.04873">
        <ele>1661</ele>
        <time>2016-03-13T09:56:09Z</time>
      </trkpt>
      <trkpt lat="45.31693" lon="6.04873">
        <ele>1660</ele>
        <time>2016-03-13T09:56:14Z</time>
      </trkpt>
      <trkpt lat="45.31693" lon="6.04873">
        <ele>1660</ele>
        <time>2016-03-13T09:56:19Z</time>
      </trkpt>
      <trkpt lat="45.31693" lon="6.04873">
        <ele>1660</ele>
        <time>2016-03-13T09:56:24Z</time>
      </trkpt>
      <trkpt lat="45.31693" lon="6.04873">
        <ele>1660</ele>
        <time>2016-03-13T09:56:29Z</time>
      </trkpt>
      <trkpt lat="45.31693" lon="6.04873">
        <ele>1660</ele>
        <time>2016-03-13T09:56:34Z</time>
      </trkpt>
      <trkpt lat="45.31693" lon="6.04873">
        <ele>1660</ele>
        <time>2016-03-13T09:56:39Z</time>
      </trkpt>
      <trkpt lat="45.31693" lon="6.04873">
        <ele>1660</ele>
        <time>2016-03-13T09:56:44Z</time>
      </trkpt>
      <trkpt lat="45.31693" lon="6.04873">
        <ele>1660</ele>
        <time>2016-03-13T09:56:49Z</time>
      </trkpt>
      <trkpt lat="45.31692" lon="6.04874">
        <ele>1660</ele>
        <time>2016-03-13T09:56:54Z</time>
      </trkpt>
      <trkpt lat="45.31689" lon="6.04875">
        <ele>1660</ele>
        <time>2016-03-13T09:56:59Z</time>
      </trkpt>
      <trkpt lat="45.31686" lon="6.04874">
        <ele>1661</ele>
        <time>2016-03-13T09:57:04Z</time>
      </trkpt>
      <trkpt lat="45.31685" lon="6.04875">
        <ele>1661</ele>
        <time>2016-03-13T09:57:09Z</time>
      </trkpt>
      <trkpt lat="45.31685" lon="6.04875">
        <ele>1661</ele>
        <time>2016-03-13T09:57:14Z</time>
      </trkpt>
      <trkpt lat="45.31684" lon="6.04878">
        <ele>1661</ele>
        <time>2016-03-13T09:57:19Z</time>
      </trkpt>
      <trkpt lat="45.31682" lon="6.0488">
        <ele>1662</ele>
        <time>2016-03-13T09:57:24Z</time>
      </trkpt>
      <trkpt lat="45.31679" lon="6.04882">
        <ele>1662</ele>
        <time>2016-03-13T09:57:29Z</time>
      </trkpt>
      <trkpt lat="45.31679" lon="6.04883">
        <ele>1662</ele>
        <time>2016-03-13T09:57:34Z</time>
      </trkpt>
      <trkpt lat="45.31676" lon="6.04888">
        <ele>1662</ele>
        <time>2016-03-13T09:57:39Z</time>
      </trkpt>
      <trkpt lat="45.31672" lon="6.04892">
        <ele>1662</ele>
        <time>2016-03-13T09:57:44Z</time>
      </trkpt>
      <trkpt lat="45.31669" lon="6.04899">
        <ele>1662</ele>
        <time>2016-03-13T09:57:49Z</time>
      </trkpt>
      <trkpt lat="45.31666" lon="6.04904">
        <ele>1663</ele>
        <time>2016-03-13T09:57:54Z</time>
      </trkpt>
      <trkpt lat="45.31663" lon="6.04909">
        <ele>1663</ele>
        <time>2016-03-13T09:57:59Z</time>
      </trkpt>
      <trkpt lat="45.3166" lon="6.04913">
        <ele>1664</ele>
        <time>2016-03-13T09:58:04Z</time>
      </trkpt>
      <trkpt lat="45.31656" lon="6.04917">
        <ele>1664</ele>
        <time>2016-03-13T09:58:09Z</time>
      </trkpt>
      <trkpt lat="45.31653" lon="6.04922">
        <ele>1665</ele>
        <time>2016-03-13T09:58:14Z</time>
      </trkpt>
      <trkpt lat="45.31651" lon="6.04925">
        <ele>1666</ele>
        <time>2016-03-13T09:58:19Z</time>
      </trkpt>
      <trkpt lat="45.31648" lon="6.04928">
        <ele>1667</ele>
        <time>2016-03-13T09:58:24Z</time>
      </trkpt>
      <trkpt lat="45.31645" lon="6.04931">
        <ele>1668</ele>
        <time>2016-03-13T09:58:29Z</time>
      </trkpt>
      <trkpt lat="45.31642" lon="6.04933">
        <ele>1668</ele>
        <time>2016-03-13T09:58:34Z</time>
      </trkpt>
      <trkpt lat="45.31639" lon="6.04936">
        <ele>1669</ele>
        <time>2016-03-13T09:58:39Z</time>
      </trkpt>
      <trkpt lat="45.31636" lon="6.04939">
        <ele>1670</ele>
        <time>2016-03-13T09:58:44Z</time>
      </trkpt>
      <trkpt lat="45.31633" lon="6.04941">
        <ele>1671</ele>
        <time>2016-03-13T09:58:49Z</time>
      </trkpt>
      <trkpt lat="45.3163" lon="6.04944">
        <ele>1671</ele>
        <time>2016-03-13T09:58:54Z</time>
      </trkpt>
      <trkpt lat="45.31627" lon="6.04947">
        <ele>1672</ele>
        <time>2016-03-13T09:58:59Z</time>
      </trkpt>
      <trkpt lat="45.31624" lon="6.0495">
        <ele>1673</ele>
        <time>2016-03-13T09:59:04Z</time>
      </trkpt>
      <trkpt lat="45.31621" lon="6.04952">
        <ele>1674</ele>
        <time>2016-03-13T09:59:09Z</time>
      </trkpt>
      <trkpt lat="45.31618" lon="6.04955">
        <ele>1674</ele>
        <time>2016-03-13T09:59:14Z</time>
      </trkpt>
      <trkpt lat="45.31616" lon="6.04957">
        <ele>1675</ele>
        <time>2016-03-13T09:59:19Z</time>
      </trkpt>
      <trkpt lat="45.31613" lon="6.04959">
        <ele>1675</ele>
        <time>2016-03-13T09:59:24Z</time>
      </trkpt>
      <trkpt lat="45.3161" lon="6.04961">
        <ele>1676</ele>
        <time>2016-03-13T09:59:29Z</time>
      </trkpt>
      <trkpt lat="45.31608" lon="6.04963">
        <ele>1677</ele>
        <time>2016-03-13T09:59:34Z</time>
      </trkpt>
      <trkpt lat="45.31605" lon="6.04965">
        <ele>1678</ele>
        <time>2016-03-13T09:59:39Z</time>
      </trkpt>
      <trkpt lat="45.31603" lon="6.04966">
        <ele>1679</ele>
        <time>2016-03-13T09:59:44Z</time>
      </trkpt>
      <trkpt lat="45.316" lon="6.04969">
        <ele>1679</ele>
        <time>2016-03-13T09:59:49Z</time>
      </trkpt>
      <trkpt lat="45.31598" lon="6.0497">
        <ele>1680</ele>
        <time>2016-03-13T09:59:54Z</time>
      </trkpt>
      <trkpt lat="45.31595" lon="6.04971">
        <ele>1681</ele>
        <time>2016-03-13T09:59:59Z</time>
      </trkpt>
      <trkpt lat="45.31591" lon="6.04972">
        <ele>1681</ele>
        <time>2016-03-13T10:00:04Z</time>
      </trkpt>
      <trkpt lat="45.31588" lon="6.04972">
        <ele>1682</ele>
        <time>2016-03-13T10:00:09Z</time>
      </trkpt>
      <trkpt lat="45.31585" lon="6.04972">
        <ele>1682</ele>
        <time>2016-03-13T10:00:14Z</time>
      </trkpt>
      <trkpt lat="45.31582" lon="6.04971">
        <ele>1683</ele>
        <time>2016-03-13T10:00:19Z</time>
      </trkpt>
      <trkpt lat="45.31578" lon="6.04971">
        <ele>1683</ele>
        <time>2016-03-13T10:00:24Z</time>
      </trkpt>
      <trkpt lat="45.31574" lon="6.0497">
        <ele>1683</ele>
        <time>2016-03-13T10:00:29Z</time>
      </trkpt>
      <trkpt lat="45.31571" lon="6.0497">
        <ele>1683</ele>
        <time>2016-03-13T10:00:34Z</time>
      </trkpt>
      <trkpt lat="45.31568" lon="6.0497">
        <ele>1684</ele>
        <time>2016-03-13T10:00:39Z</time>
      </trkpt>
      <trkpt lat="45.31565" lon="6.0497">
        <ele>1684</ele>
        <time>2016-03-13T10:00:44Z</time>
      </trkpt>
      <trkpt lat="45.31562" lon="6.0497">
        <ele>1685</ele>
        <time>2016-03-13T10:00:49Z</time>
      </trkpt>
      <trkpt lat="45.31559" lon="6.04971">
        <ele>1685</ele>
        <time>2016-03-13T10:00:54Z</time>
      </trkpt>
      <trkpt lat="45.31558" lon="6.04971">
        <ele>1686</ele>
        <time>2016-03-13T10:00:59Z</time>
      </trkpt>
      <trkpt lat="45.31555" lon="6.04972">
        <ele>1686</ele>
        <time>2016-03-13T10:01:04Z</time>
      </trkpt>
      <trkpt lat="45.31553" lon="6.04973">
        <ele>1687</ele>
        <time>2016-03-13T10:01:09Z</time>
      </trkpt>
      <trkpt lat="45.3155" lon="6.04973">
        <ele>1688</ele>
        <time>2016-03-13T10:01:14Z</time>
      </trkpt>
      <trkpt lat="45.31548" lon="6.04972">
        <ele>1689</ele>
        <time>2016-03-13T10:01:19Z</time>
      </trkpt>
      <trkpt lat="45.31545" lon="6.04971">
        <ele>1690</ele>
        <time>2016-03-13T10:01:24Z</time>
      </trkpt>
      <trkpt lat="45.31543" lon="6.04969">
        <ele>1690</ele>
        <time>2016-03-13T10:01:29Z</time>
      </trkpt>
      <trkpt lat="45.31541" lon="6.04968">
        <ele>1691</ele>
        <time>2016-03-13T10:01:34Z</time>
      </trkpt>
      <trkpt lat="45.31538" lon="6.04966">
        <ele>1692</ele>
        <time>2016-03-13T10:01:39Z</time>
      </trkpt>
      <trkpt lat="45.31536" lon="6.04963">
        <ele>1693</ele>
        <time>2016-03-13T10:01:44Z</time>
      </trkpt>
      <trkpt lat="45.31534" lon="6.04961">
        <ele>1694</ele>
        <time>2016-03-13T10:01:49Z</time>
      </trkpt>
      <trkpt lat="45.31532" lon="6.04958">
        <ele>1695</ele>
        <time>2016-03-13T10:01:54Z</time>
      </trkpt>
      <trkpt lat="45.3153" lon="6.04954">
        <ele>1699</ele>
        <time>2016-03-13T10:01:59Z</time>
      </trkpt>
      <trkpt lat="45.31529" lon="6.04948">
        <ele>1701</ele>
        <time>2016-03-13T10:02:04Z</time>
      </trkpt>
      <trkpt lat="45.31529" lon="6.04943">
        <ele>1702</ele>
        <time>2016-03-13T10:02:09Z</time>
      </trkpt>
      <trkpt lat="45.31528" lon="6.04939">
        <ele>1703</ele>
        <time>2016-03-13T10:02:14Z</time>
      </trkpt>
      <trkpt lat="45.31527" lon="6.04935">
        <ele>1703</ele>
        <time>2016-03-13T10:02:19Z</time>
      </trkpt>
      <trkpt lat="45.31526" lon="6.04932">
        <ele>1703</ele>
        <time>2016-03-13T10:02:24Z</time>
      </trkpt>
      <trkpt lat="45.31525" lon="6.04929">
        <ele>1701</ele>
        <time>2016-03-13T10:02:29Z</time>
      </trkpt>
      <trkpt lat="45.31523" lon="6.04926">
        <ele>1702</ele>
        <time>2016-03-13T10:02:34Z</time>
      </trkpt>
      <trkpt lat="45.31522" lon="6.04923">
        <ele>1702</ele>
        <time>2016-03-13T10:02:39Z</time>
      </trkpt>
      <trkpt lat="45.3152" lon="6.04921">
        <ele>1703</ele>
        <time>2016-03-13T10:02:44Z</time>
      </trkpt>
      <trkpt lat="45.31518" lon="6.04918">
        <ele>1703</ele>
        <time>2016-03-13T10:02:49Z</time>
      </trkpt>
      <trkpt lat="45.31516" lon="6.04914">
        <ele>1703</ele>
        <time>2016-03-13T10:02:54Z</time>
      </trkpt>
      <trkpt lat="45.31515" lon="6.04911">
        <ele>1704</ele>
        <time>2016-03-13T10:02:59Z</time>
      </trkpt>
      <trkpt lat="45.31513" lon="6.04908">
        <ele>1704</ele>
        <time>2016-03-13T10:03:04Z</time>
      </trkpt>
      <trkpt lat="45.31511" lon="6.04905">
        <ele>1705</ele>
        <time>2016-03-13T10:03:09Z</time>
      </trkpt>
      <trkpt lat="45.31509" lon="6.04901">
        <ele>1706</ele>
        <time>2016-03-13T10:03:14Z</time>
      </trkpt>
      <trkpt lat="45.31507" lon="6.04898">
        <ele>1707</ele>
        <time>2016-03-13T10:03:19Z</time>
      </trkpt>
      <trkpt lat="45.31506" lon="6.04895">
        <ele>1708</ele>
        <time>2016-03-13T10:03:24Z</time>
      </trkpt>
      <trkpt lat="45.31504" lon="6.04892">
        <ele>1708</ele>
        <time>2016-03-13T10:03:29Z</time>
      </trkpt>
      <trkpt lat="45.31502" lon="6.04889">
        <ele>1709</ele>
        <time>2016-03-13T10:03:34Z</time>
      </trkpt>
      <trkpt lat="45.315" lon="6.04887">
        <ele>1710</ele>
        <time>2016-03-13T10:03:39Z</time>
      </trkpt>
      <trkpt lat="45.31497" lon="6.04886">
        <ele>1710</ele>
        <time>2016-03-13T10:03:44Z</time>
      </trkpt>
      <trkpt lat="45.31495" lon="6.04888">
        <ele>1711</ele>
        <time>2016-03-13T10:03:49Z</time>
      </trkpt>
      <trkpt lat="45.31494" lon="6.04892">
        <ele>1711</ele>
        <time>2016-03-13T10:03:54Z</time>
      </trkpt>
      <trkpt lat="45.31493" lon="6.04895">
        <ele>1712</ele>
        <time>2016-03-13T10:03:59Z</time>
      </trkpt>
      <trkpt lat="45.31493" lon="6.04899">
        <ele>1712</ele>
        <time>2016-03-13T10:04:04Z</time>
      </trkpt>
      <trkpt lat="45.31492" lon="6.04902">
        <ele>1713</ele>
        <time>2016-03-13T10:04:09Z</time>
      </trkpt>
      <trkpt lat="45.3149" lon="6.04905">
        <ele>1714</ele>
        <time>2016-03-13T10:04:14Z</time>
      </trkpt>
      <trkpt lat="45.31489" lon="6.04908">
        <ele>1715</ele>
        <time>2016-03-13T10:04:19Z</time>
      </trkpt>
      <trkpt lat="45.31487" lon="6.04911">
        <ele>1716</ele>
        <time>2016-03-13T10:04:24Z</time>
      </trkpt>
      <trkpt lat="45.31486" lon="6.04914">
        <ele>1717</ele>
        <time>2016-03-13T10:04:29Z</time>
      </trkpt>
      <trkpt lat="45.31484" lon="6.04917">
        <ele>1719</ele>
        <time>2016-03-13T10:04:34Z</time>
      </trkpt>
      <trkpt lat="45.31483" lon="6.04919">
        <ele>1720</ele>
        <time>2016-03-13T10:04:39Z</time>
      </trkpt>
      <trkpt lat="45.31483" lon="6.04921">
        <ele>1721</ele>
        <time>2016-03-13T10:04:44Z</time>
      </trkpt>
      <trkpt lat="45.31482" lon="6.04923">
        <ele>1721</ele>
        <time>2016-03-13T10:04:49Z</time>
      </trkpt>
      <trkpt lat="45.31481" lon="6.04926">
        <ele>1722</ele>
        <time>2016-03-13T10:04:54Z</time>
      </trkpt>
      <trkpt lat="45.3148" lon="6.04926">
        <ele>1722</ele>
        <time>2016-03-13T10:04:59Z</time>
      </trkpt>
      <trkpt lat="45.3148" lon="6.04928">
        <ele>1723</ele>
        <time>2016-03-13T10:05:04Z</time>
      </trkpt>
      <trkpt lat="45.31479" lon="6.0493">
        <ele>1724</ele>
        <time>2016-03-13T10:05:09Z</time>
      </trkpt>
      <trkpt lat="45.31478" lon="6.04933">
        <ele>1725</ele>
        <time>2016-03-13T10:05:14Z</time>
      </trkpt>
      <trkpt lat="45.31477" lon="6.04936">
        <ele>1726</ele>
        <time>2016-03-13T10:05:19Z</time>
      </trkpt>
      <trkpt lat="45.31477" lon="6.04938">
        <ele>1727</ele>
        <time>2016-03-13T10:05:24Z</time>
      </trkpt>
      <trkpt lat="45.31475" lon="6.04941">
        <ele>1728</ele>
        <time>2016-03-13T10:05:29Z</time>
      </trkpt>
      <trkpt lat="45.31472" lon="6.04943">
        <ele>1728</ele>
        <time>2016-03-13T10:05:34Z</time>
      </trkpt>
      <trkpt lat="45.31471" lon="6.04942">
        <ele>1728</ele>
        <time>2016-03-13T10:05:39Z</time>
      </trkpt>
      <trkpt lat="45.31469" lon="6.04942">
        <ele>1728</ele>
        <time>2016-03-13T10:05:44Z</time>
      </trkpt>
      <trkpt lat="45.31466" lon="6.04942">
        <ele>1729</ele>
        <time>2016-03-13T10:05:49Z</time>
      </trkpt>
      <trkpt lat="45.31464" lon="6.04941">
        <ele>1729</ele>
        <time>2016-03-13T10:05:54Z</time>
      </trkpt>
      <trkpt lat="45.31461" lon="6.04943">
        <ele>1729</ele>
        <time>2016-03-13T10:05:59Z</time>
      </trkpt>
      <trkpt lat="45.3146" lon="6.04945">
        <ele>1730</ele>
        <time>2016-03-13T10:06:04Z</time>
      </trkpt>
      <trkpt lat="45.31457" lon="6.04947">
        <ele>1731</ele>
        <time>2016-03-13T10:06:09Z</time>
      </trkpt>
      <trkpt lat="45.31456" lon="6.04948">
        <ele>1731</ele>
        <time>2016-03-13T10:06:14Z</time>
      </trkpt>
      <trkpt lat="45.31456" lon="6.04948">
        <ele>1731</ele>
        <time>2016-03-13T10:06:19Z</time>
      </trkpt>
      <trkpt lat="45.31456" lon="6.04948">
        <ele>1730</ele>
        <time>2016-03-13T10:06:24Z</time>
      </trkpt>
      <trkpt lat="45.31456" lon="6.04948">
        <ele>1730</ele>
        <time>2016-03-13T10:06:29Z</time>
      </trkpt>
      <trkpt lat="45.31456" lon="6.04948">
        <ele>1730</ele>
        <time>2016-03-13T10:06:34Z</time>
      </trkpt>
      <trkpt lat="45.31456" lon="6.04948">
        <ele>1730</ele>
        <time>2016-03-13T10:06:39Z</time>
      </trkpt>
      <trkpt lat="45.31456" lon="6.04948">
        <ele>1731</ele>
        <time>2016-03-13T10:06:44Z</time>
      </trkpt>
      <trkpt lat="45.31456" lon="6.04948">
        <ele>1731</ele>
        <time>2016-03-13T10:06:49Z</time>
      </trkpt>
      <trkpt lat="45.31456" lon="6.04948">
        <ele>1731</ele>
        <time>2016-03-13T10:06:54Z</time>
      </trkpt>
      <trkpt lat="45.31456" lon="6.04948">
        <ele>1731</ele>
        <time>2016-03-13T10:06:59Z</time>
      </trkpt>
      <trkpt lat="45.31455" lon="6.04949">
        <ele>1732</ele>
        <time>2016-03-13T10:07:04Z</time>
      </trkpt>
      <trkpt lat="45.31454" lon="6.04952">
        <ele>1733</ele>
        <time>2016-03-13T10:07:09Z</time>
      </trkpt>
      <trkpt lat="45.31451" lon="6.04954">
        <ele>1733</ele>
        <time>2016-03-13T10:07:14Z</time>
      </trkpt>
      <trkpt lat="45.3145" lon="6.04955">
        <ele>1734</ele>
        <time>2016-03-13T10:07:19Z</time>
      </trkpt>
      <trkpt lat="45.31447" lon="6.04957">
        <ele>1735</ele>
        <time>2016-03-13T10:07:24Z</time>
      </trkpt>
      <trkpt lat="45.31445" lon="6.04957">
        <ele>1736</ele>
        <time>2016-03-13T10:07:29Z</time>
      </trkpt>
      <trkpt lat="45.31444" lon="6.04958">
        <ele>1736</ele>
        <time>2016-03-13T10:07:34Z</time>
      </trkpt>
      <trkpt lat="45.31443" lon="6.04958">
        <ele>1737</ele>
        <time>2016-03-13T10:07:39Z</time>
      </trkpt>
      <trkpt lat="45.31441" lon="6.04958">
        <ele>1738</ele>
        <time>2016-03-13T10:07:44Z</time>
      </trkpt>
      <trkpt lat="45.31439" lon="6.04959">
        <ele>1739</ele>
        <time>2016-03-13T10:07:49Z</time>
      </trkpt>
      <trkpt lat="45.31437" lon="6.04958">
        <ele>1740</ele>
        <time>2016-03-13T10:07:54Z</time>
      </trkpt>
      <trkpt lat="45.31435" lon="6.04956">
        <ele>1740</ele>
        <time>2016-03-13T10:07:59Z</time>
      </trkpt>
      <trkpt lat="45.31432" lon="6.04956">
        <ele>1740</ele>
        <time>2016-03-13T10:08:04Z</time>
      </trkpt>
      <trkpt lat="45.3143" lon="6.04954">
        <ele>1741</ele>
        <time>2016-03-13T10:08:09Z</time>
      </trkpt>
      <trkpt lat="45.31428" lon="6.04952">
        <ele>1741</ele>
        <time>2016-03-13T10:08:14Z</time>
      </trkpt>
      <trkpt lat="45.31427" lon="6.0495">
        <ele>1741</ele>
        <time>2016-03-13T10:08:19Z</time>
      </trkpt>
      <trkpt lat="45.31427" lon="6.04951">
        <ele>1740</ele>
        <time>2016-03-13T10:08:24Z</time>
      </trkpt>
      <trkpt lat="45.31424" lon="6.04948">
        <ele>1741</ele>
        <time>2016-03-13T10:08:29Z</time>
      </trkpt>
      <trkpt lat="45.31421" lon="6.04946">
        <ele>1741</ele>
        <time>2016-03-13T10:08:34Z</time>
      </trkpt>
      <trkpt lat="45.31418" lon="6.04945">
        <ele>1742</ele>
        <time>2016-03-13T10:08:39Z</time>
      </trkpt>
      <trkpt lat="45.31418" lon="6.04945">
        <ele>1742</ele>
        <time>2016-03-13T10:08:44Z</time>
      </trkpt>
      <trkpt lat="45.31416" lon="6.04944">
        <ele>1743</ele>
        <time>2016-03-13T10:08:49Z</time>
      </trkpt>
      <trkpt lat="45.31416" lon="6.04944">
        <ele>1743</ele>
        <time>2016-03-13T10:08:54Z</time>
      </trkpt>
      <trkpt lat="45.31416" lon="6.04944">
        <ele>1743</ele>
        <time>2016-03-13T10:08:59Z</time>
      </trkpt>
      <trkpt lat="45.31416" lon="6.04944">
        <ele>1743</ele>
        <time>2016-03-13T10:09:04Z</time>
      </trkpt>
      <trkpt lat="45.31414" lon="6.04941">
        <ele>1743</ele>
        <time>2016-03-13T10:09:09Z</time>
      </trkpt>
      <trkpt lat="45.31412" lon="6.04939">
        <ele>1744</ele>
        <time>2016-03-13T10:09:14Z</time>
      </trkpt>
      <trkpt lat="45.31412" lon="6.04939">
        <ele>1745</ele>
        <time>2016-03-13T10:09:19Z</time>
      </trkpt>
      <trkpt lat="45.3141" lon="6.04937">
        <ele>1745</ele>
        <time>2016-03-13T10:09:24Z</time>
      </trkpt>
      <trkpt lat="45.31408" lon="6.04936">
        <ele>1746</ele>
        <time>2016-03-13T10:09:29Z</time>
      </trkpt>
      <trkpt lat="45.31405" lon="6.04934">
        <ele>1746</ele>
        <time>2016-03-13T10:09:34Z</time>
      </trkpt>
      <trkpt lat="45.31403" lon="6.04933">
        <ele>1747</ele>
        <time>2016-03-13T10:09:39Z</time>
      </trkpt>
      <trkpt lat="45.314" lon="6.04932">
        <ele>1748</ele>
        <time>2016-03-13T10:09:44Z</time>
      </trkpt>
      <trkpt lat="45.31397" lon="6.04931">
        <ele>1748</ele>
        <time>2016-03-13T10:09:49Z</time>
      </trkpt>
      <trkpt lat="45.31395" lon="6.04931">
        <ele>1749</ele>
        <time>2016-03-13T10:09:54Z</time>
      </trkpt>
      <trkpt lat="45.31395" lon="6.04932">
        <ele>1750</ele>
        <time>2016-03-13T10:09:59Z</time>
      </trkpt>
      <trkpt lat="45.31393" lon="6.04934">
        <ele>1751</ele>
        <time>2016-03-13T10:10:04Z</time>
      </trkpt>
      <trkpt lat="45.31392" lon="6.04936">
        <ele>1751</ele>
        <time>2016-03-13T10:10:09Z</time>
      </trkpt>
      <trkpt lat="45.3139" lon="6.04939">
        <ele>1753</ele>
        <time>2016-03-13T10:10:14Z</time>
      </trkpt>
      <trkpt lat="45.31387" lon="6.04941">
        <ele>1754</ele>
        <time>2016-03-13T10:10:19Z</time>
      </trkpt>
      <trkpt lat="45.31386" lon="6.04943">
        <ele>1754</ele>
        <time>2016-03-13T10:10:24Z</time>
      </trkpt>
      <trkpt lat="45.31382" lon="6.04944">
        <ele>1755</ele>
        <time>2016-03-13T10:10:29Z</time>
      </trkpt>
      <trkpt lat="45.3138" lon="6.04942">
        <ele>1755</ele>
        <time>2016-03-13T10:10:34Z</time>
      </trkpt>
      <trkpt lat="45.31377" lon="6.04941">
        <ele>1756</ele>
        <time>2016-03-13T10:10:39Z</time>
      </trkpt>
      <trkpt lat="45.31374" lon="6.0494">
        <ele>1756</ele>
        <time>2016-03-13T10:10:44Z</time>
      </trkpt>
      <trkpt lat="45.31371" lon="6.04938">
        <ele>1757</ele>
        <time>2016-03-13T10:10:49Z</time>
      </trkpt>
      <trkpt lat="45.31368" lon="6.04938">
        <ele>1758</ele>
        <time>2016-03-13T10:10:54Z</time>
      </trkpt>
      <trkpt lat="45.31366" lon="6.04938">
        <ele>1758</ele>
        <time>2016-03-13T10:10:59Z</time>
      </trkpt>
      <trkpt lat="45.31363" lon="6.04938">
        <ele>1759</ele>
        <time>2016-03-13T10:11:04Z</time>
      </trkpt>
      <trkpt lat="45.31361" lon="6.04936">
        <ele>1760</ele>
        <time>2016-03-13T10:11:09Z</time>
      </trkpt>
      <trkpt lat="45.31358" lon="6.04933">
        <ele>1760</ele>
        <time>2016-03-13T10:11:14Z</time>
      </trkpt>
      <trkpt lat="45.31355" lon="6.04931">
        <ele>1761</ele>
        <time>2016-03-13T10:11:19Z</time>
      </trkpt>
      <trkpt lat="45.31352" lon="6.04929">
        <ele>1761</ele>
        <time>2016-03-13T10:11:24Z</time>
      </trkpt>
      <trkpt lat="45.3135" lon="6.04929">
        <ele>1762</ele>
        <time>2016-03-13T10:11:29Z</time>
      </trkpt>
      <trkpt lat="45.31349" lon="6.04933">
        <ele>1762</ele>
        <time>2016-03-13T10:11:34Z</time>
      </trkpt>
      <trkpt lat="45.3135" lon="6.04936">
        <ele>1763</ele>
        <time>2016-03-13T10:11:39Z</time>
      </trkpt>
      <trkpt lat="45.3135" lon="6.04937">
        <ele>1763</ele>
        <time>2016-03-13T10:11:44Z</time>
      </trkpt>
      <trkpt lat="45.3135" lon="6.04941">
        <ele>1763</ele>
        <time>2016-03-13T10:11:49Z</time>
      </trkpt>
      <trkpt lat="45.31351" lon="6.04945">
        <ele>1764</ele>
        <time>2016-03-13T10:11:54Z</time>
      </trkpt>
      <trkpt lat="45.31352" lon="6.04949">
        <ele>1764</ele>
        <time>2016-03-13T10:11:59Z</time>
      </trkpt>
      <trkpt lat="45.31351" lon="6.04952">
        <ele>1765</ele>
        <time>2016-03-13T10:12:04Z</time>
      </trkpt>
      <trkpt lat="45.3135" lon="6.04953">
        <ele>1766</ele>
        <time>2016-03-13T10:12:09Z</time>
      </trkpt>
      <trkpt lat="45.31347" lon="6.04953">
        <ele>1766</ele>
        <time>2016-03-13T10:12:14Z</time>
      </trkpt>
      <trkpt lat="45.31346" lon="6.04953">
        <ele>1766</ele>
        <time>2016-03-13T10:12:19Z</time>
      </trkpt>
      <trkpt lat="45.31344" lon="6.04953">
        <ele>1767</ele>
        <time>2016-03-13T10:12:24Z</time>
      </trkpt>
      <trkpt lat="45.31341" lon="6.04953">
        <ele>1768</ele>
        <time>2016-03-13T10:12:29Z</time>
      </trkpt>
      <trkpt lat="45.31338" lon="6.04953">
        <ele>1768</ele>
        <time>2016-03-13T10:12:34Z</time>
      </trkpt>
      <trkpt lat="45.31335" lon="6.04953">
        <ele>1769</ele>
        <time>2016-03-13T10:12:39Z</time>
      </trkpt>
      <trkpt lat="45.31332" lon="6.04953">
        <ele>1770</ele>
        <time>2016-03-13T10:12:44Z</time>
      </trkpt>
      <trkpt lat="45.31329" lon="6.04953">
        <ele>1771</ele>
        <time>2016-03-13T10:12:49Z</time>
      </trkpt>
      <trkpt lat="45.31327" lon="6.04953">
        <ele>1772</ele>
        <time>2016-03-13T10:12:54Z</time>
      </trkpt>
      <trkpt lat="45.31324" lon="6.04953">
        <ele>1772</ele>
        <time>2016-03-13T10:12:59Z</time>
      </trkpt>
      <trkpt lat="45.31321" lon="6.04952">
        <ele>1773</ele>
        <time>2016-03-13T10:13:04Z</time>
      </trkpt>
      <trkpt lat="45.31318" lon="6.04951">
        <ele>1773</ele>
        <time>2016-03-13T10:13:09Z</time>
      </trkpt>
      <trkpt lat="45.31315" lon="6.04951">
        <ele>1774</ele>
        <time>2016-03-13T10:13:14Z</time>
      </trkpt>
      <trkpt lat="45.31312" lon="6.04951">
        <ele>1774</ele>
        <time>2016-03-13T10:13:19Z</time>
      </trkpt>
      <trkpt lat="45.3131" lon="6.04952">
        <ele>1775</ele>
        <time>2016-03-13T10:13:24Z</time>
      </trkpt>
      <trkpt lat="45.31307" lon="6.04953">
        <ele>1776</ele>
        <time>2016-03-13T10:13:29Z</time>
      </trkpt>
      <trkpt lat="45.31305" lon="6.04954">
        <ele>1777</ele>
        <time>2016-03-13T10:13:34Z</time>
      </trkpt>
      <trkpt lat="45.31302" lon="6.04955">
        <ele>1778</ele>
        <time>2016-03-13T10:13:39Z</time>
      </trkpt>
      <trkpt lat="45.313" lon="6.04957">
        <ele>1779</ele>
        <time>2016-03-13T10:13:44Z</time>
      </trkpt>
      <trkpt lat="45.31298" lon="6.04959">
        <ele>1779</ele>
        <time>2016-03-13T10:13:49Z</time>
      </trkpt>
      <trkpt lat="45.31297" lon="6.0496">
        <ele>1780</ele>
        <time>2016-03-13T10:13:54Z</time>
      </trkpt>
      <trkpt lat="45.31294" lon="6.04961">
        <ele>1781</ele>
        <time>2016-03-13T10:13:59Z</time>
      </trkpt>
      <trkpt lat="45.31292" lon="6.04963">
        <ele>1782</ele>
        <time>2016-03-13T10:14:04Z</time>
      </trkpt>
      <trkpt lat="45.3129" lon="6.04965">
        <ele>1783</ele>
        <time>2016-03-13T10:14:09Z</time>
      </trkpt>
      <trkpt lat="45.31288" lon="6.04967">
        <ele>1783</ele>
        <time>2016-03-13T10:14:14Z</time>
      </trkpt>
      <trkpt lat="45.31287" lon="6.0497">
        <ele>1784</ele>
        <time>2016-03-13T10:14:19Z</time>
      </trkpt>
      <trkpt lat="45.31284" lon="6.04973">
        <ele>1785</ele>
        <time>2016-03-13T10:14:24Z</time>
      </trkpt>
      <trkpt lat="45.31281" lon="6.04974">
        <ele>1785</ele>
        <time>2016-03-13T10:14:29Z</time>
      </trkpt>
      <trkpt lat="45.31278" lon="6.04975">
        <ele>1786</ele>
        <time>2016-03-13T10:14:34Z</time>
      </trkpt>
      <trkpt lat="45.31275" lon="6.04977">
        <ele>1786</ele>
        <time>2016-03-13T10:14:39Z</time>
      </trkpt>
      <trkpt lat="45.31272" lon="6.04978">
        <ele>1787</ele>
        <time>2016-03-13T10:14:44Z</time>
      </trkpt>
      <trkpt lat="45.31269" lon="6.04979">
        <ele>1787</ele>
        <time>2016-03-13T10:14:49Z</time>
      </trkpt>
      <trkpt lat="45.31266" lon="6.0498">
        <ele>1788</ele>
        <time>2016-03-13T10:14:54Z</time>
      </trkpt>
      <trkpt lat="45.31263" lon="6.04981">
        <ele>1788</ele>
        <time>2016-03-13T10:14:59Z</time>
      </trkpt>
      <trkpt lat="45.31261" lon="6.04982">
        <ele>1789</ele>
        <time>2016-03-13T10:15:04Z</time>
      </trkpt>
      <trkpt lat="45.3126" lon="6.04981">
        <ele>1789</ele>
        <time>2016-03-13T10:15:09Z</time>
      </trkpt>
      <trkpt lat="45.3126" lon="6.04981">
        <ele>1789</ele>
        <time>2016-03-13T10:15:14Z</time>
      </trkpt>
      <trkpt lat="45.31258" lon="6.04981">
        <ele>1789</ele>
        <time>2016-03-13T10:15:19Z</time>
      </trkpt>
      <trkpt lat="45.31256" lon="6.04981">
        <ele>1789</ele>
        <time>2016-03-13T10:15:24Z</time>
      </trkpt>
      <trkpt lat="45.31254" lon="6.04981">
        <ele>1789</ele>
        <time>2016-03-13T10:15:29Z</time>
      </trkpt>
      <trkpt lat="45.31251" lon="6.04981">
        <ele>1790</ele>
        <time>2016-03-13T10:15:34Z</time>
      </trkpt>
      <trkpt lat="45.31251" lon="6.04981">
        <ele>1790</ele>
        <time>2016-03-13T10:15:39Z</time>
      </trkpt>
      <trkpt lat="45.3125" lon="6.04981">
        <ele>1790</ele>
        <time>2016-03-13T10:15:44Z</time>
      </trkpt>
      <trkpt lat="45.3125" lon="6.04981">
        <ele>1790</ele>
        <time>2016-03-13T10:15:49Z</time>
      </trkpt>
      <trkpt lat="45.31247" lon="6.04982">
        <ele>1790</ele>
        <time>2016-03-13T10:15:54Z</time>
      </trkpt>
      <trkpt lat="45.31244" lon="6.04982">
        <ele>1791</ele>
        <time>2016-03-13T10:15:59Z</time>
      </trkpt>
      <trkpt lat="45.31242" lon="6.04983">
        <ele>1792</ele>
        <time>2016-03-13T10:16:04Z</time>
      </trkpt>
      <trkpt lat="45.31239" lon="6.04984">
        <ele>1792</ele>
        <time>2016-03-13T10:16:09Z</time>
      </trkpt>
      <trkpt lat="45.31236" lon="6.04985">
        <ele>1793</ele>
        <time>2016-03-13T10:16:14Z</time>
      </trkpt>
      <trkpt lat="45.31233" lon="6.04986">
        <ele>1793</ele>
        <time>2016-03-13T10:16:19Z</time>
      </trkpt>
      <trkpt lat="45.31229" lon="6.04987">
        <ele>1794</ele>
        <time>2016-03-13T10:16:24Z</time>
      </trkpt>
      <trkpt lat="45.31227" lon="6.04988">
        <ele>1795</ele>
        <time>2016-03-13T10:16:29Z</time>
      </trkpt>
      <trkpt lat="45.31224" lon="6.04989">
        <ele>1795</ele>
        <time>2016-03-13T10:16:34Z</time>
      </trkpt>
      <trkpt lat="45.3122" lon="6.0499">
        <ele>1795</ele>
        <time>2016-03-13T10:16:39Z</time>
      </trkpt>
      <trkpt lat="45.31217" lon="6.04991">
        <ele>1796</ele>
        <time>2016-03-13T10:16:44Z</time>
      </trkpt>
      <trkpt lat="45.31213" lon="6.04992">
        <ele>1796</ele>
        <time>2016-03-13T10:16:49Z</time>
      </trkpt>
      <trkpt lat="45.31209" lon="6.04993">
        <ele>1797</ele>
        <time>2016-03-13T10:16:54Z</time>
      </trkpt>
      <trkpt lat="45.31205" lon="6.04994">
        <ele>1797</ele>
        <time>2016-03-13T10:16:59Z</time>
      </trkpt>
      <trkpt lat="45.31202" lon="6.04995">
        <ele>1798</ele>
        <time>2016-03-13T10:17:04Z</time>
      </trkpt>
      <trkpt lat="45.31198" lon="6.04995">
        <ele>1798</ele>
        <time>2016-03-13T10:17:09Z</time>
      </trkpt>
      <trkpt lat="45.31195" lon="6.04995">
        <ele>1798</ele>
        <time>2016-03-13T10:17:14Z</time>
      </trkpt>
      <trkpt lat="45.31191" lon="6.04996">
        <ele>1799</ele>
        <time>2016-03-13T10:17:19Z</time>
      </trkpt>
      <trkpt lat="45.31188" lon="6.04996">
        <ele>1800</ele>
        <time>2016-03-13T10:17:24Z</time>
      </trkpt>
      <trkpt lat="45.31185" lon="6.04996">
        <ele>1801</ele>
        <time>2016-03-13T10:17:29Z</time>
      </trkpt>
      <trkpt lat="45.31182" lon="6.04996">
        <ele>1801</ele>
        <time>2016-03-13T10:17:34Z</time>
      </trkpt>
      <trkpt lat="45.31181" lon="6.04996">
        <ele>1801</ele>
        <time>2016-03-13T10:17:39Z</time>
      </trkpt>
      <trkpt lat="45.31181" lon="6.04996">
        <ele>1801</ele>
        <time>2016-03-13T10:17:44Z</time>
      </trkpt>
      <trkpt lat="45.31181" lon="6.04996">
        <ele>1801</ele>
        <time>2016-03-13T10:17:49Z</time>
      </trkpt>
      <trkpt lat="45.31181" lon="6.04996">
        <ele>1801</ele>
        <time>2016-03-13T10:17:54Z</time>
      </trkpt>
      <trkpt lat="45.3118" lon="6.04997">
        <ele>1802</ele>
        <time>2016-03-13T10:17:59Z</time>
      </trkpt>
      <trkpt lat="45.3118" lon="6.04997">
        <ele>1802</ele>
        <time>2016-03-13T10:18:04Z</time>
      </trkpt>
      <trkpt lat="45.3118" lon="6.04997">
        <ele>1802</ele>
        <time>2016-03-13T10:18:09Z</time>
      </trkpt>
      <trkpt lat="45.3118" lon="6.04997">
        <ele>1802</ele>
        <time>2016-03-13T10:18:14Z</time>
      </trkpt>
      <trkpt lat="45.31179" lon="6.04997">
        <ele>1803</ele>
        <time>2016-03-13T10:18:19Z</time>
      </trkpt>
      <trkpt lat="45.31178" lon="6.04997">
        <ele>1803</ele>
        <time>2016-03-13T10:18:24Z</time>
      </trkpt>
      <trkpt lat="45.31178" lon="6.04997">
        <ele>1804</ele>
        <time>2016-03-13T10:18:29Z</time>
      </trkpt>
      <trkpt lat="45.31178" lon="6.04997">
        <ele>1804</ele>
        <time>2016-03-13T10:18:34Z</time>
      </trkpt>
      <trkpt lat="45.31178" lon="6.04997">
        <ele>1804</ele>
        <time>2016-03-13T10:18:39Z</time>
      </trkpt>
      <trkpt lat="45.31177" lon="6.04996">
        <ele>1804</ele>
        <time>2016-03-13T10:18:44Z</time>
      </trkpt>
      <trkpt lat="45.31177" lon="6.04996">
        <ele>1805</ele>
        <time>2016-03-13T10:18:49Z</time>
      </trkpt>
      <trkpt lat="45.31177" lon="6.04996">
        <ele>1805</ele>
        <time>2016-03-13T10:18:54Z</time>
      </trkpt>
      <trkpt lat="45.31177" lon="6.04996">
        <ele>1804</ele>
        <time>2016-03-13T10:18:59Z</time>
      </trkpt>
      <trkpt lat="45.31178" lon="6.04997">
        <ele>1804</ele>
        <time>2016-03-13T10:19:04Z</time>
      </trkpt>
      <trkpt lat="45.31178" lon="6.04997">
        <ele>1803</ele>
        <time>2016-03-13T10:19:09Z</time>
      </trkpt>
      <trkpt lat="45.31178" lon="6.04998">
        <ele>1803</ele>
        <time>2016-03-13T10:19:14Z</time>
      </trkpt>
      <trkpt lat="45.31179" lon="6.04998">
        <ele>1802</ele>
        <time>2016-03-13T10:19:19Z</time>
      </trkpt>
      <trkpt lat="45.3118" lon="6.04998">
        <ele>1802</ele>
        <time>2016-03-13T10:19:24Z</time>
      </trkpt>
      <trkpt lat="45.31178" lon="6.04999">
        <ele>1802</ele>
        <time>2016-03-13T10:19:29Z</time>
      </trkpt>
      <trkpt lat="45.31178" lon="6.04999">
        <ele>1802</ele>
        <time>2016-03-13T10:19:34Z</time>
      </trkpt>
      <trkpt lat="45.31177" lon="6.04999">
        <ele>1802</ele>
        <time>2016-03-13T10:19:39Z</time>
      </trkpt>
      <trkpt lat="45.31176" lon="6.04999">
        <ele>1803</ele>
        <time>2016-03-13T10:19:44Z</time>
      </trkpt>
      <trkpt lat="45.31175" lon="6.04999">
        <ele>1803</ele>
        <time>2016-03-13T10:19:49Z</time>
      </trkpt>
      <trkpt lat="45.31175" lon="6.04998">
        <ele>1804</ele>
        <time>2016-03-13T10:19:54Z</time>
      </trkpt>
      <trkpt lat="45.31175" lon="6.04997">
        <ele>1805</ele>
        <time>2016-03-13T10:19:59Z</time>
      </trkpt>
      <trkpt lat="45.31174" lon="6.04997">
        <ele>1805</ele>
        <time>2016-03-13T10:20:04Z</time>
      </trkpt>
      <trkpt lat="45.31174" lon="6.04997">
        <ele>1806</ele>
        <time>2016-03-13T10:20:09Z</time>
      </trkpt>
      <trkpt lat="45.31174" lon="6.04997">
        <ele>1806</ele>
        <time>2016-03-13T10:20:14Z</time>
      </trkpt>
      <trkpt lat="45.31174" lon="6.04997">
        <ele>1806</ele>
        <time>2016-03-13T10:20:19Z</time>
      </trkpt>
      <trkpt lat="45.31173" lon="6.04996">
        <ele>1807</ele>
        <time>2016-03-13T10:20:24Z</time>
      </trkpt>
      <trkpt lat="45.31174" lon="6.04997">
        <ele>1806</ele>
        <time>2016-03-13T10:20:29Z</time>
      </trkpt>
      <trkpt lat="45.31174" lon="6.04997">
        <ele>1806</ele>
        <time>2016-03-13T10:20:34Z</time>
      </trkpt>
      <trkpt lat="45.31174" lon="6.04997">
        <ele>1806</ele>
        <time>2016-03-13T10:20:39Z</time>
      </trkpt>
      <trkpt lat="45.31174" lon="6.04997">
        <ele>1806</ele>
        <time>2016-03-13T10:20:44Z</time>
      </trkpt>
      <trkpt lat="45.31174" lon="6.04997">
        <ele>1806</ele>
        <time>2016-03-13T10:20:49Z</time>
      </trkpt>
      <trkpt lat="45.31174" lon="6.04996">
        <ele>1807</ele>
        <time>2016-03-13T10:20:54Z</time>
      </trkpt>
      <trkpt lat="45.31174" lon="6.04996">
        <ele>1807</ele>
        <time>2016-03-13T10:20:59Z</time>
      </trkpt>
      <trkpt lat="45.31174" lon="6.04996">
        <ele>1807</ele>
        <time>2016-03-13T10:21:04Z</time>
      </trkpt>
      <trkpt lat="45.31172" lon="6.04997">
        <ele>1808</ele>
        <time>2016-03-13T10:21:09Z</time>
      </trkpt>
      <trkpt lat="45.31169" lon="6.04998">
        <ele>1809</ele>
        <time>2016-03-13T10:21:14Z</time>
      </trkpt>
      <trkpt lat="45.31167" lon="6.05">
        <ele>1810</ele>
        <time>2016-03-13T10:21:19Z</time>
      </trkpt>
      <trkpt lat="45.31164" lon="6.05002">
        <ele>1811</ele>
        <time>2016-03-13T10:21:24Z</time>
      </trkpt>
      <trkpt lat="45.31162" lon="6.05005">
        <ele>1812</ele>
        <time>2016-03-13T10:21:29Z</time>
      </trkpt>
      <trkpt lat="45.31159" lon="6.05007">
        <ele>1813</ele>
        <time>2016-03-13T10:21:34Z</time>
      </trkpt>
      <trkpt lat="45.31156" lon="6.05009">
        <ele>1813</ele>
        <time>2016-03-13T10:21:39Z</time>
      </trkpt>
      <trkpt lat="45.31152" lon="6.05012">
        <ele>1814</ele>
        <time>2016-03-13T10:21:44Z</time>
      </trkpt>
      <trkpt lat="45.31149" lon="6.05014">
        <ele>1814</ele>
        <time>2016-03-13T10:21:49Z</time>
      </trkpt>
      <trkpt lat="45.31146" lon="6.05015">
        <ele>1814</ele>
        <time>2016-03-13T10:21:54Z</time>
      </trkpt>
      <trkpt lat="45.31142" lon="6.05018">
        <ele>1815</ele>
        <time>2016-03-13T10:21:59Z</time>
      </trkpt>
      <trkpt lat="45.31139" lon="6.05019">
        <ele>1815</ele>
        <time>2016-03-13T10:22:04Z</time>
      </trkpt>
      <trkpt lat="45.31137" lon="6.05019">
        <ele>1816</ele>
        <time>2016-03-13T10:22:09Z</time>
      </trkpt>
      <trkpt lat="45.31136" lon="6.05019">
        <ele>1816</ele>
        <time>2016-03-13T10:22:14Z</time>
      </trkpt>
      <trkpt lat="45.31136" lon="6.05018">
        <ele>1816</ele>
        <time>2016-03-13T10:22:19Z</time>
      </trkpt>
      <trkpt lat="45.31137" lon="6.05019">
        <ele>1818</ele>
        <time>2016-03-13T10:25:19Z</time>
      </trkpt>
      <trkpt lat="45.31137" lon="6.05019">
        <ele>1818</ele>
        <time>2016-03-13T10:25:24Z</time>
      </trkpt>
      <trkpt lat="45.31136" lon="6.05019">
        <ele>1818</ele>
        <time>2016-03-13T10:25:29Z</time>
      </trkpt>
      <trkpt lat="45.31132" lon="6.0502">
        <ele>1818</ele>
        <time>2016-03-13T10:25:34Z</time>
      </trkpt>
      <trkpt lat="45.31128" lon="6.05021">
        <ele>1818</ele>
        <time>2016-03-13T10:25:39Z</time>
      </trkpt>
      <trkpt lat="45.31123" lon="6.05022">
        <ele>1818</ele>
        <time>2016-03-13T10:25:44Z</time>
      </trkpt>
      <trkpt lat="45.31119" lon="6.05023">
        <ele>1819</ele>
        <time>2016-03-13T10:25:49Z</time>
      </trkpt>
      <trkpt lat="45.31114" lon="6.05023">
        <ele>1819</ele>
        <time>2016-03-13T10:25:54Z</time>
      </trkpt>
      <trkpt lat="45.3111" lon="6.05024">
        <ele>1819</ele>
        <time>2016-03-13T10:25:59Z</time>
      </trkpt>
      <trkpt lat="45.31104" lon="6.05026">
        <ele>1817</ele>
        <time>2016-03-13T10:26:04Z</time>
      </trkpt>
      <trkpt lat="45.31092" lon="6.05031">
        <ele>1815</ele>
        <time>2016-03-13T10:26:09Z</time>
      </trkpt>
      <trkpt lat="45.31092" lon="6.05031">
        <ele>1815</ele>
        <time>2016-03-13T10:26:14Z</time>
      </trkpt>
      <trkpt lat="45.31093" lon="6.0503">
        <ele>1815</ele>
        <time>2016-03-13T10:26:19Z</time>
      </trkpt>
      <trkpt lat="45.3109" lon="6.05032">
        <ele>1815</ele>
        <time>2016-03-13T10:26:24Z</time>
      </trkpt>
      <trkpt lat="45.31087" lon="6.05034">
        <ele>1816</ele>
        <time>2016-03-13T10:26:29Z</time>
      </trkpt>
      <trkpt lat="45.31083" lon="6.05036">
        <ele>1816</ele>
        <time>2016-03-13T10:26:34Z</time>
      </trkpt>
      <trkpt lat="45.31079" lon="6.05037">
        <ele>1817</ele>
        <time>2016-03-13T10:26:39Z</time>
      </trkpt>
      <trkpt lat="45.31075" lon="6.05038">
        <ele>1817</ele>
        <time>2016-03-13T10:26:44Z</time>
      </trkpt>
      <trkpt lat="45.31072" lon="6.05039">
        <ele>1818</ele>
        <time>2016-03-13T10:26:49Z</time>
      </trkpt>
      <trkpt lat="45.31068" lon="6.05039">
        <ele>1819</ele>
        <time>2016-03-13T10:26:54Z</time>
      </trkpt>
      <trkpt lat="45.31064" lon="6.05039">
        <ele>1819</ele>
        <time>2016-03-13T10:26:59Z</time>
      </trkpt>
      <trkpt lat="45.31061" lon="6.05039">
        <ele>1820</ele>
        <time>2016-03-13T10:27:04Z</time>
      </trkpt>
      <trkpt lat="45.31057" lon="6.05039">
        <ele>1821</ele>
        <time>2016-03-13T10:27:09Z</time>
      </trkpt>
      <trkpt lat="45.31054" lon="6.05039">
        <ele>1822</ele>
        <time>2016-03-13T10:27:14Z</time>
      </trkpt>
      <trkpt lat="45.31052" lon="6.0504">
        <ele>1823</ele>
        <time>2016-03-13T10:27:19Z</time>
      </trkpt>
      <trkpt lat="45.31048" lon="6.05039">
        <ele>1824</ele>
        <time>2016-03-13T10:27:24Z</time>
      </trkpt>
      <trkpt lat="45.31045" lon="6.05038">
        <ele>1824</ele>
        <time>2016-03-13T10:27:29Z</time>
      </trkpt>
      <trkpt lat="45.31043" lon="6.05038">
        <ele>1825</ele>
        <time>2016-03-13T10:27:34Z</time>
      </trkpt>
      <trkpt lat="45.31041" lon="6.05037">
        <ele>1825</ele>
        <time>2016-03-13T10:27:39Z</time>
      </trkpt>
      <trkpt lat="45.31038" lon="6.05037">
        <ele>1826</ele>
        <time>2016-03-13T10:27:44Z</time>
      </trkpt>
      <trkpt lat="45.31036" lon="6.05036">
        <ele>1827</ele>
        <time>2016-03-13T10:27:49Z</time>
      </trkpt>
      <trkpt lat="45.31034" lon="6.05036">
        <ele>1828</ele>
        <time>2016-03-13T10:27:54Z</time>
      </trkpt>
      <trkpt lat="45.31034" lon="6.05036">
        <ele>1828</ele>
        <time>2016-03-13T10:27:59Z</time>
      </trkpt>
      <trkpt lat="45.31034" lon="6.05036">
        <ele>1829</ele>
        <time>2016-03-13T10:28:04Z</time>
      </trkpt>
      <trkpt lat="45.31035" lon="6.05037">
        <ele>1829</ele>
        <time>2016-03-13T10:28:09Z</time>
      </trkpt>
      <trkpt lat="45.31035" lon="6.05036">
        <ele>1830</ele>
        <time>2016-03-13T10:28:14Z</time>
      </trkpt>
      <trkpt lat="45.31035" lon="6.05036">
        <ele>1830</ele>
        <time>2016-03-13T10:28:19Z</time>
      </trkpt>
      <trkpt lat="45.31033" lon="6.05037">
        <ele>1830</ele>
        <time>2016-03-13T10:28:24Z</time>
      </trkpt>
      <trkpt lat="45.31032" lon="6.05037">
        <ele>1831</ele>
        <time>2016-03-13T10:28:29Z</time>
      </trkpt>
      <trkpt lat="45.3103" lon="6.05038">
        <ele>1831</ele>
        <time>2016-03-13T10:28:34Z</time>
      </trkpt>
      <trkpt lat="45.31028" lon="6.0504">
        <ele>1832</ele>
        <time>2016-03-13T10:28:39Z</time>
      </trkpt>
      <trkpt lat="45.31025" lon="6.05041">
        <ele>1832</ele>
        <time>2016-03-13T10:28:44Z</time>
      </trkpt>
      <trkpt lat="45.31023" lon="6.05042">
        <ele>1832</ele>
        <time>2016-03-13T10:28:49Z</time>
      </trkpt>
      <trkpt lat="45.3102" lon="6.05042">
        <ele>1833</ele>
        <time>2016-03-13T10:28:54Z</time>
      </trkpt>
      <trkpt lat="45.31015" lon="6.05043">
        <ele>1833</ele>
        <time>2016-03-13T10:28:59Z</time>
      </trkpt>
      <trkpt lat="45.31014" lon="6.05043">
        <ele>1833</ele>
        <time>2016-03-13T10:29:04Z</time>
      </trkpt>
      <trkpt lat="45.31009" lon="6.05042">
        <ele>1833</ele>
        <time>2016-03-13T10:29:09Z</time>
      </trkpt>
      <trkpt lat="45.31005" lon="6.05042">
        <ele>1834</ele>
        <time>2016-03-13T10:29:14Z</time>
      </trkpt>
      <trkpt lat="45.31001" lon="6.05044">
        <ele>1834</ele>
        <time>2016-03-13T10:29:19Z</time>
      </trkpt>
      <trkpt lat="45.30998" lon="6.05047">
        <ele>1835</ele>
        <time>2016-03-13T10:29:24Z</time>
      </trkpt>
      <trkpt lat="45.30994" lon="6.05051">
        <ele>1834</ele>
        <time>2016-03-13T10:29:29Z</time>
      </trkpt>
      <trkpt lat="45.30992" lon="6.05054">
        <ele>1835</ele>
        <time>2016-03-13T10:29:34Z</time>
      </trkpt>
      <trkpt lat="45.30991" lon="6.05056">
        <ele>1835</ele>
        <time>2016-03-13T10:29:39Z</time>
      </trkpt>
      <trkpt lat="45.30989" lon="6.05061">
        <ele>1835</ele>
        <time>2016-03-13T10:29:44Z</time>
      </trkpt>
      <trkpt lat="45.30987" lon="6.0507">
        <ele>1835</ele>
        <time>2016-03-13T10:29:49Z</time>
      </trkpt>
      <trkpt lat="45.30982" lon="6.05075">
        <ele>1834</ele>
        <time>2016-03-13T10:29:54Z</time>
      </trkpt>
      <trkpt lat="45.30977" lon="6.05077">
        <ele>1834</ele>
        <time>2016-03-13T10:29:59Z</time>
      </trkpt>
      <trkpt lat="45.30974" lon="6.05081">
        <ele>1834</ele>
        <time>2016-03-13T10:30:04Z</time>
      </trkpt>
      <trkpt lat="45.3097" lon="6.05085">
        <ele>1834</ele>
        <time>2016-03-13T10:30:09Z</time>
      </trkpt>
      <trkpt lat="45.30964" lon="6.0509">
        <ele>1833</ele>
        <time>2016-03-13T10:30:14Z</time>
      </trkpt>
      <trkpt lat="45.30958" lon="6.0509">
        <ele>1833</ele>
        <time>2016-03-13T10:30:19Z</time>
      </trkpt>
      <trkpt lat="45.30951" lon="6.05087">
        <ele>1832</ele>
        <time>2016-03-13T10:30:24Z</time>
      </trkpt>
      <trkpt lat="45.30946" lon="6.05091">
        <ele>1831</ele>
        <time>2016-03-13T10:30:29Z</time>
      </trkpt>
      <trkpt lat="45.30944" lon="6.05096">
        <ele>1833</ele>
        <time>2016-03-13T10:30:34Z</time>
      </trkpt>
      <trkpt lat="45.30941" lon="6.051">
        <ele>1834</ele>
        <time>2016-03-13T10:30:39Z</time>
      </trkpt>
      <trkpt lat="45.30937" lon="6.05103">
        <ele>1835</ele>
        <time>2016-03-13T10:30:44Z</time>
      </trkpt>
      <trkpt lat="45.30934" lon="6.05106">
        <ele>1836</ele>
        <time>2016-03-13T10:30:49Z</time>
      </trkpt>
      <trkpt lat="45.30933" lon="6.05107">
        <ele>1836</ele>
        <time>2016-03-13T10:30:54Z</time>
      </trkpt>
      <trkpt lat="45.30933" lon="6.05107">
        <ele>1836</ele>
        <time>2016-03-13T10:30:59Z</time>
      </trkpt>
      <trkpt lat="45.30933" lon="6.05107">
        <ele>1836</ele>
        <time>2016-03-13T10:31:04Z</time>
      </trkpt>
      <trkpt lat="45.30933" lon="6.05107">
        <ele>1836</ele>
        <time>2016-03-13T10:31:09Z</time>
      </trkpt>
      <trkpt lat="45.30933" lon="6.05107">
        <ele>1836</ele>
        <time>2016-03-13T10:31:14Z</time>
      </trkpt>
      <trkpt lat="45.30934" lon="6.05107">
        <ele>1836</ele>
        <time>2016-03-13T10:31:19Z</time>
      </trkpt>
      <trkpt lat="45.30934" lon="6.05107">
        <ele>1836</ele>
        <time>2016-03-13T10:31:24Z</time>
      </trkpt>
      <trkpt lat="45.30933" lon="6.05107">
        <ele>1835</ele>
        <time>2016-03-13T10:31:29Z</time>
      </trkpt>
      <trkpt lat="45.30933" lon="6.05107">
        <ele>1836</ele>
        <time>2016-03-13T10:31:34Z</time>
      </trkpt>
      <trkpt lat="45.30932" lon="6.05107">
        <ele>1836</ele>
        <time>2016-03-13T10:31:39Z</time>
      </trkpt>
      <trkpt lat="45.30932" lon="6.05107">
        <ele>1836</ele>
        <time>2016-03-13T10:31:44Z</time>
      </trkpt>
      <trkpt lat="45.30932" lon="6.05107">
        <ele>1837</ele>
        <time>2016-03-13T10:31:49Z</time>
      </trkpt>
      <trkpt lat="45.30932" lon="6.05107">
        <ele>1837</ele>
        <time>2016-03-13T10:31:54Z</time>
      </trkpt>
      <trkpt lat="45.30929" lon="6.05108">
        <ele>1837</ele>
        <time>2016-03-13T10:31:59Z</time>
      </trkpt>
      <trkpt lat="45.30925" lon="6.0511">
        <ele>1837</ele>
        <time>2016-03-13T10:32:04Z</time>
      </trkpt>
      <trkpt lat="45.3092" lon="6.05111">
        <ele>1837</ele>
        <time>2016-03-13T10:32:09Z</time>
      </trkpt>
      <trkpt lat="45.30916" lon="6.05113">
        <ele>1837</ele>
        <time>2016-03-13T10:32:14Z</time>
      </trkpt>
      <trkpt lat="45.30912" lon="6.05114">
        <ele>1838</ele>
        <time>2016-03-13T10:32:19Z</time>
      </trkpt>
      <trkpt lat="45.30909" lon="6.05114">
        <ele>1838</ele>
        <time>2016-03-13T10:32:24Z</time>
      </trkpt>
      <trkpt lat="45.30904" lon="6.05114">
        <ele>1839</ele>
        <time>2016-03-13T10:32:29Z</time>
      </trkpt>
      <trkpt lat="45.309" lon="6.05113">
        <ele>1839</ele>
        <time>2016-03-13T10:32:34Z</time>
      </trkpt>
      <trkpt lat="45.30896" lon="6.05112">
        <ele>1839</ele>
        <time>2016-03-13T10:32:39Z</time>
      </trkpt>
      <trkpt lat="45.30891" lon="6.05112">
        <ele>1839</ele>
        <time>2016-03-13T10:32:44Z</time>
      </trkpt>
      <trkpt lat="45.30886" lon="6.05111">
        <ele>1839</ele>
        <time>2016-03-13T10:32:49Z</time>
      </trkpt>
      <trkpt lat="45.30881" lon="6.0511">
        <ele>1840</ele>
        <time>2016-03-13T10:32:54Z</time>
      </trkpt>
      <trkpt lat="45.30877" lon="6.0511">
        <ele>1840</ele>
        <time>2016-03-13T10:32:59Z</time>
      </trkpt>
      <trkpt lat="45.30873" lon="6.05108">
        <ele>1840</ele>
        <time>2016-03-13T10:33:04Z</time>
      </trkpt>
      <trkpt lat="45.30869" lon="6.05107">
        <ele>1841</ele>
        <time>2016-03-13T10:33:09Z</time>
      </trkpt>
      <trkpt lat="45.30865" lon="6.05106">
        <ele>1841</ele>
        <time>2016-03-13T10:33:14Z</time>
      </trkpt>
      <trkpt lat="45.30863" lon="6.05104">
        <ele>1842</ele>
        <time>2016-03-13T10:33:19Z</time>
      </trkpt>
      <trkpt lat="45.3086" lon="6.05102">
        <ele>1842</ele>
        <time>2016-03-13T10:33:24Z</time>
      </trkpt>
      <trkpt lat="45.30857" lon="6.051">
        <ele>1843</ele>
        <time>2016-03-13T10:33:29Z</time>
      </trkpt>
      <trkpt lat="45.30857" lon="6.051">
        <ele>1843</ele>
        <time>2016-03-13T10:33:34Z</time>
      </trkpt>
      <trkpt lat="45.30857" lon="6.051">
        <ele>1843</ele>
        <time>2016-03-13T10:33:39Z</time>
      </trkpt>
      <trkpt lat="45.30857" lon="6.051">
        <ele>1843</ele>
        <time>2016-03-13T10:33:44Z</time>
      </trkpt>
      <trkpt lat="45.30857" lon="6.051">
        <ele>1843</ele>
        <time>2016-03-13T10:33:49Z</time>
      </trkpt>
      <trkpt lat="45.30856" lon="6.05099">
        <ele>1843</ele>
        <time>2016-03-13T10:33:54Z</time>
      </trkpt>
      <trkpt lat="45.30851" lon="6.05097">
        <ele>1843</ele>
        <time>2016-03-13T10:33:59Z</time>
      </trkpt>
      <trkpt lat="45.30848" lon="6.05095">
        <ele>1844</ele>
        <time>2016-03-13T10:34:04Z</time>
      </trkpt>
      <trkpt lat="45.30845" lon="6.05092">
        <ele>1844</ele>
        <time>2016-03-13T10:34:09Z</time>
      </trkpt>
      <trkpt lat="45.30842" lon="6.05088">
        <ele>1845</ele>
        <time>2016-03-13T10:34:14Z</time>
      </trkpt>
      <trkpt lat="45.30838" lon="6.05085">
        <ele>1846</ele>
        <time>2016-03-13T10:34:19Z</time>
      </trkpt>
      <trkpt lat="45.30835" lon="6.05083">
        <ele>1846</ele>
        <time>2016-03-13T10:34:24Z</time>
      </trkpt>
      <trkpt lat="45.30832" lon="6.0508">
        <ele>1847</ele>
        <time>2016-03-13T10:34:29Z</time>
      </trkpt>
      <trkpt lat="45.3083" lon="6.05079">
        <ele>1847</ele>
        <time>2016-03-13T10:34:34Z</time>
      </trkpt>
      <trkpt lat="45.30829" lon="6.05078">
        <ele>1847</ele>
        <time>2016-03-13T10:34:39Z</time>
      </trkpt>
      <trkpt lat="45.30829" lon="6.05078">
        <ele>1848</ele>
        <time>2016-03-13T10:34:44Z</time>
      </trkpt>
      <trkpt lat="45.30827" lon="6.05077">
        <ele>1848</ele>
        <time>2016-03-13T10:34:49Z</time>
      </trkpt>
      <trkpt lat="45.30824" lon="6.05075">
        <ele>1848</ele>
        <time>2016-03-13T10:34:54Z</time>
      </trkpt>
      <trkpt lat="45.3082" lon="6.05072">
        <ele>1848</ele>
        <time>2016-03-13T10:34:59Z</time>
      </trkpt>
      <trkpt lat="45.30817" lon="6.0507">
        <ele>1849</ele>
        <time>2016-03-13T10:35:04Z</time>
      </trkpt>
      <trkpt lat="45.30814" lon="6.05068">
        <ele>1849</ele>
        <time>2016-03-13T10:35:09Z</time>
      </trkpt>
      <trkpt lat="45.30811" lon="6.05067">
        <ele>1850</ele>
        <time>2016-03-13T10:35:14Z</time>
      </trkpt>
      <trkpt lat="45.30808" lon="6.05064">
        <ele>1850</ele>
        <time>2016-03-13T10:35:19Z</time>
      </trkpt>
      <trkpt lat="45.30806" lon="6.05062">
        <ele>1850</ele>
        <time>2016-03-13T10:35:24Z</time>
      </trkpt>
      <trkpt lat="45.30805" lon="6.05061">
        <ele>1851</ele>
        <time>2016-03-13T10:35:29Z</time>
      </trkpt>
      <trkpt lat="45.30805" lon="6.05061">
        <ele>1851</ele>
        <time>2016-03-13T10:35:34Z</time>
      </trkpt>
      <trkpt lat="45.30802" lon="6.0506">
        <ele>1851</ele>
        <time>2016-03-13T10:35:39Z</time>
      </trkpt>
      <trkpt lat="45.30802" lon="6.0506">
        <ele>1851</ele>
        <time>2016-03-13T10:35:44Z</time>
      </trkpt>
      <trkpt lat="45.30802" lon="6.0506">
        <ele>1851</ele>
        <time>2016-03-13T10:35:49Z</time>
      </trkpt>
      <trkpt lat="45.30803" lon="6.0506">
        <ele>1850</ele>
        <time>2016-03-13T10:35:54Z</time>
      </trkpt>
      <trkpt lat="45.30802" lon="6.0506">
        <ele>1851</ele>
        <time>2016-03-13T10:35:59Z</time>
      </trkpt>
      <trkpt lat="45.30799" lon="6.05058">
        <ele>1850</ele>
        <time>2016-03-13T10:36:04Z</time>
      </trkpt>
      <trkpt lat="45.30796" lon="6.05054">
        <ele>1850</ele>
        <time>2016-03-13T10:36:09Z</time>
      </trkpt>
      <trkpt lat="45.30793" lon="6.05051">
        <ele>1850</ele>
        <time>2016-03-13T10:36:14Z</time>
      </trkpt>
      <trkpt lat="45.30791" lon="6.05048">
        <ele>1851</ele>
        <time>2016-03-13T10:36:19Z</time>
      </trkpt>
      <trkpt lat="45.30789" lon="6.05046">
        <ele>1851</ele>
        <time>2016-03-13T10:36:24Z</time>
      </trkpt>
      <trkpt lat="45.30789" lon="6.05046">
        <ele>1851</ele>
        <time>2016-03-13T10:36:29Z</time>
      </trkpt>
      <trkpt lat="45.30785" lon="6.05042">
        <ele>1851</ele>
        <time>2016-03-13T10:36:34Z</time>
      </trkpt>
      <trkpt lat="45.30784" lon="6.05041">
        <ele>1851</ele>
        <time>2016-03-13T10:36:39Z</time>
      </trkpt>
      <trkpt lat="45.30784" lon="6.05041">
        <ele>1851</ele>
        <time>2016-03-13T10:36:44Z</time>
      </trkpt>
      <trkpt lat="45.30783" lon="6.05035">
        <ele>1848</ele>
        <time>2016-03-13T10:41:09Z</time>
      </trkpt>
      <trkpt lat="45.30782" lon="6.05035">
        <ele>1848</ele>
        <time>2016-03-13T10:41:14Z</time>
      </trkpt>
      <trkpt lat="45.30782" lon="6.05035">
        <ele>1849</ele>
        <time>2016-03-13T10:41:19Z</time>
      </trkpt>
      <trkpt lat="45.30783" lon="6.05036">
        <ele>1849</ele>
        <time>2016-03-13T10:41:24Z</time>
      </trkpt>
      <trkpt lat="45.30782" lon="6.05035">
        <ele>1850</ele>
        <time>2016-03-13T10:41:29Z</time>
      </trkpt>
      <trkpt lat="45.30782" lon="6.05035">
        <ele>1850</ele>
        <time>2016-03-13T10:41:34Z</time>
      </trkpt>
      <trkpt lat="45.30782" lon="6.05035">
        <ele>1850</ele>
        <time>2016-03-13T10:41:39Z</time>
      </trkpt>
      <trkpt lat="45.30782" lon="6.05035">
        <ele>1851</ele>
        <time>2016-03-13T10:41:44Z</time>
      </trkpt>
      <trkpt lat="45.3078" lon="6.05034">
        <ele>1852</ele>
        <time>2016-03-13T10:41:49Z</time>
      </trkpt>
      <trkpt lat="45.30779" lon="6.05033">
        <ele>1855</ele>
        <time>2016-03-13T10:41:54Z</time>
      </trkpt>
      <trkpt lat="45.30778" lon="6.05033">
        <ele>1857</ele>
        <time>2016-03-13T10:41:59Z</time>
      </trkpt>
      <trkpt lat="45.30777" lon="6.05033">
        <ele>1858</ele>
        <time>2016-03-13T10:42:04Z</time>
      </trkpt>
      <trkpt lat="45.30778" lon="6.05033">
        <ele>1857</ele>
        <time>2016-03-13T10:42:09Z</time>
      </trkpt>
      <trkpt lat="45.30778" lon="6.05034">
        <ele>1856</ele>
        <time>2016-03-13T10:42:14Z</time>
      </trkpt>
      <trkpt lat="45.30779" lon="6.05034">
        <ele>1856</ele>
        <time>2016-03-13T10:42:19Z</time>
      </trkpt>
      <trkpt lat="45.30779" lon="6.05034">
        <ele>1856</ele>
        <time>2016-03-13T10:42:24Z</time>
      </trkpt>
      <trkpt lat="45.30779" lon="6.05034">
        <ele>1855</ele>
        <time>2016-03-13T10:42:29Z</time>
      </trkpt>
      <trkpt lat="45.30779" lon="6.05035">
        <ele>1855</ele>
        <time>2016-03-13T10:42:34Z</time>
      </trkpt>
      <trkpt lat="45.30779" lon="6.05035">
        <ele>1855</ele>
        <time>2016-03-13T10:42:39Z</time>
      </trkpt>
      <trkpt lat="45.30779" lon="6.05035">
        <ele>1856</ele>
        <time>2016-03-13T10:42:44Z</time>
      </trkpt>
      <trkpt lat="45.30779" lon="6.05035">
        <ele>1856</ele>
        <time>2016-03-13T10:42:49Z</time>
      </trkpt>
      <trkpt lat="45.30779" lon="6.05035">
        <ele>1856</ele>
        <time>2016-03-13T10:42:54Z</time>
      </trkpt>
      <trkpt lat="45.30779" lon="6.05034">
        <ele>1855</ele>
        <time>2016-03-13T10:42:59Z</time>
      </trkpt>
      <trkpt lat="45.30779" lon="6.05034">
        <ele>1855</ele>
        <time>2016-03-13T10:43:04Z</time>
      </trkpt>
      <trkpt lat="45.30779" lon="6.05035">
        <ele>1855</ele>
        <time>2016-03-13T10:43:09Z</time>
      </trkpt>
      <trkpt lat="45.30779" lon="6.05035">
        <ele>1855</ele>
        <time>2016-03-13T10:43:14Z</time>
      </trkpt>
      <trkpt lat="45.30779" lon="6.05035">
        <ele>1854</ele>
        <time>2016-03-13T10:43:19Z</time>
      </trkpt>
      <trkpt lat="45.30776" lon="6.05033">
        <ele>1855</ele>
        <time>2016-03-13T10:43:24Z</time>
      </trkpt>
      <trkpt lat="45.30774" lon="6.05033">
        <ele>1855</ele>
        <time>2016-03-13T10:43:29Z</time>
      </trkpt>
      <trkpt lat="45.30772" lon="6.05034">
        <ele>1855</ele>
        <time>2016-03-13T10:43:34Z</time>
      </trkpt>
      <trkpt lat="45.30769" lon="6.05034">
        <ele>1856</ele>
        <time>2016-03-13T10:43:39Z</time>
      </trkpt>
      <trkpt lat="45.30766" lon="6.05034">
        <ele>1856</ele>
        <time>2016-03-13T10:43:44Z</time>
      </trkpt>
      <trkpt lat="45.30762" lon="6.05034">
        <ele>1856</ele>
        <time>2016-03-13T10:43:49Z</time>
      </trkpt>
      <trkpt lat="45.30759" lon="6.05034">
        <ele>1857</ele>
        <time>2016-03-13T10:43:54Z</time>
      </trkpt>
      <trkpt lat="45.30756" lon="6.05034">
        <ele>1857</ele>
        <time>2016-03-13T10:43:59Z</time>
      </trkpt>
      <trkpt lat="45.30755" lon="6.05034">
        <ele>1857</ele>
        <time>2016-03-13T10:44:04Z</time>
      </trkpt>
      <trkpt lat="45.30755" lon="6.05034">
        <ele>1857</ele>
        <time>2016-03-13T10:44:09Z</time>
      </trkpt>
      <trkpt lat="45.30751" lon="6.05034">
        <ele>1858</ele>
        <time>2016-03-13T10:44:14Z</time>
      </trkpt>
      <trkpt lat="45.30747" lon="6.05034">
        <ele>1859</ele>
        <time>2016-03-13T10:44:19Z</time>
      </trkpt>
      <trkpt lat="45.30744" lon="6.05034">
        <ele>1859</ele>
        <time>2016-03-13T10:44:24Z</time>
      </trkpt>
      <trkpt lat="45.3074" lon="6.05034">
        <ele>1860</ele>
        <time>2016-03-13T10:44:29Z</time>
      </trkpt>
      <trkpt lat="45.30737" lon="6.05033">
        <ele>1861</ele>
        <time>2016-03-13T10:44:34Z</time>
      </trkpt>
      <trkpt lat="45.30733" lon="6.05032">
        <ele>1861</ele>
        <time>2016-03-13T10:44:39Z</time>
      </trkpt>
      <trkpt lat="45.3073" lon="6.05031">
        <ele>1862</ele>
        <time>2016-03-13T10:44:44Z</time>
      </trkpt>
      <trkpt lat="45.30726" lon="6.0503">
        <ele>1862</ele>
        <time>2016-03-13T10:44:49Z</time>
      </trkpt>
      <trkpt lat="45.30722" lon="6.05029">
        <ele>1863</ele>
        <time>2016-03-13T10:44:54Z</time>
      </trkpt>
      <trkpt lat="45.30718" lon="6.05028">
        <ele>1863</ele>
        <time>2016-03-13T10:44:59Z</time>
      </trkpt>
      <trkpt lat="45.30715" lon="6.05028">
        <ele>1864</ele>
        <time>2016-03-13T10:45:04Z</time>
      </trkpt>
      <trkpt lat="45.30712" lon="6.05028">
        <ele>1865</ele>
        <time>2016-03-13T10:45:09Z</time>
      </trkpt>
      <trkpt lat="45.30709" lon="6.05028">
        <ele>1866</ele>
        <time>2016-03-13T10:45:14Z</time>
      </trkpt>
      <trkpt lat="45.30706" lon="6.05028">
        <ele>1866</ele>
        <time>2016-03-13T10:45:19Z</time>
      </trkpt>
      <trkpt lat="45.30703" lon="6.05027">
        <ele>1867</ele>
        <time>2016-03-13T10:45:24Z</time>
      </trkpt>
      <trkpt lat="45.307" lon="6.05027">
        <ele>1868</ele>
        <time>2016-03-13T10:45:29Z</time>
      </trkpt>
      <trkpt lat="45.30697" lon="6.05028">
        <ele>1869</ele>
        <time>2016-03-13T10:45:34Z</time>
      </trkpt>
      <trkpt lat="45.30696" lon="6.05028">
        <ele>1869</ele>
        <time>2016-03-13T10:45:39Z</time>
      </trkpt>
      <trkpt lat="45.30694" lon="6.05028">
        <ele>1870</ele>
        <time>2016-03-13T10:45:44Z</time>
      </trkpt>
      <trkpt lat="45.30693" lon="6.05028">
        <ele>1870</ele>
        <time>2016-03-13T10:45:49Z</time>
      </trkpt>
      <trkpt lat="45.30691" lon="6.05028">
        <ele>1871</ele>
        <time>2016-03-13T10:45:54Z</time>
      </trkpt>
      <trkpt lat="45.30689" lon="6.05028">
        <ele>1872</ele>
        <time>2016-03-13T10:45:59Z</time>
      </trkpt>
      <trkpt lat="45.30687" lon="6.05029">
        <ele>1872</ele>
        <time>2016-03-13T10:46:04Z</time>
      </trkpt>
      <trkpt lat="45.30684" lon="6.05029">
        <ele>1873</ele>
        <time>2016-03-13T10:46:09Z</time>
      </trkpt>
      <trkpt lat="45.30682" lon="6.05029">
        <ele>1874</ele>
        <time>2016-03-13T10:46:14Z</time>
      </trkpt>
      <trkpt lat="45.3068" lon="6.05029">
        <ele>1874</ele>
        <time>2016-03-13T10:46:19Z</time>
      </trkpt>
      <trkpt lat="45.30677" lon="6.0503">
        <ele>1875</ele>
        <time>2016-03-13T10:46:24Z</time>
      </trkpt>
      <trkpt lat="45.30675" lon="6.0503">
        <ele>1876</ele>
        <time>2016-03-13T10:46:29Z</time>
      </trkpt>
      <trkpt lat="45.30672" lon="6.0503">
        <ele>1876</ele>
        <time>2016-03-13T10:46:34Z</time>
      </trkpt>
      <trkpt lat="45.3067" lon="6.05031">
        <ele>1877</ele>
        <time>2016-03-13T10:46:39Z</time>
      </trkpt>
      <trkpt lat="45.30667" lon="6.05031">
        <ele>1878</ele>
        <time>2016-03-13T10:46:44Z</time>
      </trkpt>
      <trkpt lat="45.30665" lon="6.05032">
        <ele>1879</ele>
        <time>2016-03-13T10:46:49Z</time>
      </trkpt>
      <trkpt lat="45.30662" lon="6.05032">
        <ele>1879</ele>
        <time>2016-03-13T10:46:54Z</time>
      </trkpt>
      <trkpt lat="45.3066" lon="6.05033">
        <ele>1880</ele>
        <time>2016-03-13T10:46:59Z</time>
      </trkpt>
      <trkpt lat="45.30657" lon="6.05033">
        <ele>1880</ele>
        <time>2016-03-13T10:47:04Z</time>
      </trkpt>
      <trkpt lat="45.30655" lon="6.05033">
        <ele>1881</ele>
        <time>2016-03-13T10:47:09Z</time>
      </trkpt>
      <trkpt lat="45.30652" lon="6.05033">
        <ele>1881</ele>
        <time>2016-03-13T10:47:14Z</time>
      </trkpt>
      <trkpt lat="45.3065" lon="6.05032">
        <ele>1882</ele>
        <time>2016-03-13T10:47:19Z</time>
      </trkpt>
      <trkpt lat="45.30647" lon="6.05032">
        <ele>1882</ele>
        <time>2016-03-13T10:47:24Z</time>
      </trkpt>
      <trkpt lat="45.30645" lon="6.05031">
        <ele>1883</ele>
        <time>2016-03-13T10:47:29Z</time>
      </trkpt>
      <trkpt lat="45.30642" lon="6.05031">
        <ele>1883</ele>
        <time>2016-03-13T10:47:34Z</time>
      </trkpt>
      <trkpt lat="45.3064" lon="6.0503">
        <ele>1884</ele>
        <time>2016-03-13T10:47:39Z</time>
      </trkpt>
      <trkpt lat="45.30638" lon="6.0503">
        <ele>1885</ele>
        <time>2016-03-13T10:47:44Z</time>
      </trkpt>
      <trkpt lat="45.30636" lon="6.05029">
        <ele>1885</ele>
        <time>2016-03-13T10:47:49Z</time>
      </trkpt>
      <trkpt lat="45.30633" lon="6.05028">
        <ele>1885</ele>
        <time>2016-03-13T10:47:54Z</time>
      </trkpt>
      <trkpt lat="45.30631" lon="6.05027">
        <ele>1886</ele>
        <time>2016-03-13T10:47:59Z</time>
      </trkpt>
      <trkpt lat="45.30628" lon="6.05027">
        <ele>1886</ele>
        <time>2016-03-13T10:48:04Z</time>
      </trkpt>
      <trkpt lat="45.30626" lon="6.05026">
        <ele>1886</ele>
        <time>2016-03-13T10:48:09Z</time>
      </trkpt>
      <trkpt lat="45.30624" lon="6.05026">
        <ele>1887</ele>
        <time>2016-03-13T10:48:14Z</time>
      </trkpt>
      <trkpt lat="45.30622" lon="6.05025">
        <ele>1887</ele>
        <time>2016-03-13T10:48:19Z</time>
      </trkpt>
      <trkpt lat="45.3062" lon="6.05025">
        <ele>1887</ele>
        <time>2016-03-13T10:48:24Z</time>
      </trkpt>
      <trkpt lat="45.30619" lon="6.05025">
        <ele>1888</ele>
        <time>2016-03-13T10:48:29Z</time>
      </trkpt>
      <trkpt lat="45.30618" lon="6.05024">
        <ele>1888</ele>
        <time>2016-03-13T10:48:34Z</time>
      </trkpt>
      <trkpt lat="45.30616" lon="6.05024">
        <ele>1888</ele>
        <time>2016-03-13T10:48:39Z</time>
      </trkpt>
      <trkpt lat="45.30613" lon="6.05025">
        <ele>1889</ele>
        <time>2016-03-13T10:48:44Z</time>
      </trkpt>
      <trkpt lat="45.30612" lon="6.05026">
        <ele>1890</ele>
        <time>2016-03-13T10:48:49Z</time>
      </trkpt>
      <trkpt lat="45.3061" lon="6.05026">
        <ele>1890</ele>
        <time>2016-03-13T10:48:54Z</time>
      </trkpt>
      <trkpt lat="45.30607" lon="6.05027">
        <ele>1891</ele>
        <time>2016-03-13T10:48:59Z</time>
      </trkpt>
      <trkpt lat="45.30604" lon="6.05027">
        <ele>1892</ele>
        <time>2016-03-13T10:49:04Z</time>
      </trkpt>
      <trkpt lat="45.30602" lon="6.05027">
        <ele>1893</ele>
        <time>2016-03-13T10:49:09Z</time>
      </trkpt>
      <trkpt lat="45.306" lon="6.05027">
        <ele>1894</ele>
        <time>2016-03-13T10:49:14Z</time>
      </trkpt>
      <trkpt lat="45.306" lon="6.05028">
        <ele>1894</ele>
        <time>2016-03-13T10:49:19Z</time>
      </trkpt>
      <trkpt lat="45.306" lon="6.05028">
        <ele>1894</ele>
        <time>2016-03-13T10:49:24Z</time>
      </trkpt>
      <trkpt lat="45.306" lon="6.05028">
        <ele>1894</ele>
        <time>2016-03-13T10:49:29Z</time>
      </trkpt>
      <trkpt lat="45.306" lon="6.05027">
        <ele>1894</ele>
        <time>2016-03-13T10:49:34Z</time>
      </trkpt>
      <trkpt lat="45.306" lon="6.05027">
        <ele>1894</ele>
        <time>2016-03-13T10:49:39Z</time>
      </trkpt>
      <trkpt lat="45.306" lon="6.05027">
        <ele>1893</ele>
        <time>2016-03-13T10:49:44Z</time>
      </trkpt>
      <trkpt lat="45.30599" lon="6.05027">
        <ele>1894</ele>
        <time>2016-03-13T10:49:49Z</time>
      </trkpt>
      <trkpt lat="45.30595" lon="6.05026">
        <ele>1894</ele>
        <time>2016-03-13T10:49:54Z</time>
      </trkpt>
      <trkpt lat="45.30592" lon="6.05026">
        <ele>1895</ele>
        <time>2016-03-13T10:49:59Z</time>
      </trkpt>
      <trkpt lat="45.3059" lon="6.05025">
        <ele>1895</ele>
        <time>2016-03-13T10:50:04Z</time>
      </trkpt>
      <trkpt lat="45.30587" lon="6.05025">
        <ele>1896</ele>
        <time>2016-03-13T10:50:09Z</time>
      </trkpt>
      <trkpt lat="45.30584" lon="6.05025">
        <ele>1897</ele>
        <time>2016-03-13T10:50:14Z</time>
      </trkpt>
      <trkpt lat="45.30582" lon="6.05026">
        <ele>1897</ele>
        <time>2016-03-13T10:50:19Z</time>
      </trkpt>
      <trkpt lat="45.30579" lon="6.05026">
        <ele>1898</ele>
        <time>2016-03-13T10:50:24Z</time>
      </trkpt>
      <trkpt lat="45.30576" lon="6.05026">
        <ele>1899</ele>
        <time>2016-03-13T10:50:29Z</time>
      </trkpt>
      <trkpt lat="45.30573" lon="6.05026">
        <ele>1900</ele>
        <time>2016-03-13T10:50:34Z</time>
      </trkpt>
      <trkpt lat="45.3057" lon="6.05025">
        <ele>1900</ele>
        <time>2016-03-13T10:50:39Z</time>
      </trkpt>
      <trkpt lat="45.30566" lon="6.05024">
        <ele>1901</ele>
        <time>2016-03-13T10:50:44Z</time>
      </trkpt>
      <trkpt lat="45.30563" lon="6.05023">
        <ele>1901</ele>
        <time>2016-03-13T10:50:49Z</time>
      </trkpt>
      <trkpt lat="45.30559" lon="6.05021">
        <ele>1901</ele>
        <time>2016-03-13T10:50:54Z</time>
      </trkpt>
      <trkpt lat="45.30555" lon="6.0502">
        <ele>1902</ele>
        <time>2016-03-13T10:50:59Z</time>
      </trkpt>
      <trkpt lat="45.30552" lon="6.05019">
        <ele>1902</ele>
        <time>2016-03-13T10:51:04Z</time>
      </trkpt>
      <trkpt lat="45.30549" lon="6.05019">
        <ele>1903</ele>
        <time>2016-03-13T10:51:09Z</time>
      </trkpt>
      <trkpt lat="45.30545" lon="6.05018">
        <ele>1903</ele>
        <time>2016-03-13T10:51:14Z</time>
      </trkpt>
      <trkpt lat="45.30541" lon="6.05017">
        <ele>1904</ele>
        <time>2016-03-13T10:51:19Z</time>
      </trkpt>
      <trkpt lat="45.30538" lon="6.05017">
        <ele>1904</ele>
        <time>2016-03-13T10:51:24Z</time>
      </trkpt>
      <trkpt lat="45.30534" lon="6.05018">
        <ele>1905</ele>
        <time>2016-03-13T10:51:29Z</time>
      </trkpt>
      <trkpt lat="45.30531" lon="6.05017">
        <ele>1905</ele>
        <time>2016-03-13T10:51:34Z</time>
      </trkpt>
      <trkpt lat="45.30527" lon="6.05016">
        <ele>1905</ele>
        <time>2016-03-13T10:51:39Z</time>
      </trkpt>
      <trkpt lat="45.30526" lon="6.05015">
        <ele>1905</ele>
        <time>2016-03-13T10:51:44Z</time>
      </trkpt>
      <trkpt lat="45.30525" lon="6.05015">
        <ele>1906</ele>
        <time>2016-03-13T10:51:49Z</time>
      </trkpt>
      <trkpt lat="45.30521" lon="6.05014">
        <ele>1906</ele>
        <time>2016-03-13T10:51:54Z</time>
      </trkpt>
      <trkpt lat="45.30517" lon="6.05014">
        <ele>1906</ele>
        <time>2016-03-13T10:51:59Z</time>
      </trkpt>
      <trkpt lat="45.30513" lon="6.05012">
        <ele>1907</ele>
        <time>2016-03-13T10:52:04Z</time>
      </trkpt>
      <trkpt lat="45.30509" lon="6.0501">
        <ele>1907</ele>
        <time>2016-03-13T10:52:09Z</time>
      </trkpt>
      <trkpt lat="45.30505" lon="6.05009">
        <ele>1908</ele>
        <time>2016-03-13T10:52:14Z</time>
      </trkpt>
      <trkpt lat="45.30501" lon="6.05008">
        <ele>1908</ele>
        <time>2016-03-13T10:52:19Z</time>
      </trkpt>
      <trkpt lat="45.30497" lon="6.05007">
        <ele>1909</ele>
        <time>2016-03-13T10:52:24Z</time>
      </trkpt>
      <trkpt lat="45.30494" lon="6.05006">
        <ele>1910</ele>
        <time>2016-03-13T10:52:29Z</time>
      </trkpt>
      <trkpt lat="45.3049" lon="6.05005">
        <ele>1910</ele>
        <time>2016-03-13T10:52:34Z</time>
      </trkpt>
      <trkpt lat="45.30486" lon="6.05003">
        <ele>1911</ele>
        <time>2016-03-13T10:52:39Z</time>
      </trkpt>
      <trkpt lat="45.30482" lon="6.05002">
        <ele>1912</ele>
        <time>2016-03-13T10:52:44Z</time>
      </trkpt>
      <trkpt lat="45.30479" lon="6.05">
        <ele>1912</ele>
        <time>2016-03-13T10:52:49Z</time>
      </trkpt>
      <trkpt lat="45.30475" lon="6.04999">
        <ele>1913</ele>
        <time>2016-03-13T10:52:54Z</time>
      </trkpt>
      <trkpt lat="45.30472" lon="6.04997">
        <ele>1914</ele>
        <time>2016-03-13T10:52:59Z</time>
      </trkpt>
      <trkpt lat="45.30468" lon="6.04996">
        <ele>1914</ele>
        <time>2016-03-13T10:53:04Z</time>
      </trkpt>
      <trkpt lat="45.30465" lon="6.04994">
        <ele>1915</ele>
        <time>2016-03-13T10:53:09Z</time>
      </trkpt>
      <trkpt lat="45.30461" lon="6.04993">
        <ele>1915</ele>
        <time>2016-03-13T10:53:14Z</time>
      </trkpt>
      <trkpt lat="45.30457" lon="6.04992">
        <ele>1916</ele>
        <time>2016-03-13T10:53:19Z</time>
      </trkpt>
      <trkpt lat="45.30454" lon="6.04991">
        <ele>1917</ele>
        <time>2016-03-13T10:53:24Z</time>
      </trkpt>
      <trkpt lat="45.30451" lon="6.04989">
        <ele>1917</ele>
        <time>2016-03-13T10:53:29Z</time>
      </trkpt>
      <trkpt lat="45.30447" lon="6.04988">
        <ele>1918</ele>
        <time>2016-03-13T10:53:34Z</time>
      </trkpt>
      <trkpt lat="45.30444" lon="6.04986">
        <ele>1918</ele>
        <time>2016-03-13T10:53:39Z</time>
      </trkpt>
      <trkpt lat="45.30442" lon="6.04986">
        <ele>1919</ele>
        <time>2016-03-13T10:53:44Z</time>
      </trkpt>
      <trkpt lat="45.30438" lon="6.04986">
        <ele>1919</ele>
        <time>2016-03-13T10:53:49Z</time>
      </trkpt>
      <trkpt lat="45.30436" lon="6.04986">
        <ele>1919</ele>
        <time>2016-03-13T10:53:54Z</time>
      </trkpt>
      <trkpt lat="45.30434" lon="6.04986">
        <ele>1919</ele>
        <time>2016-03-13T10:53:59Z</time>
      </trkpt>
      <trkpt lat="45.3043" lon="6.04987">
        <ele>1919</ele>
        <time>2016-03-13T10:54:04Z</time>
      </trkpt>
      <trkpt lat="45.30427" lon="6.04989">
        <ele>1920</ele>
        <time>2016-03-13T10:54:09Z</time>
      </trkpt>
      <trkpt lat="45.30423" lon="6.0499">
        <ele>1920</ele>
        <time>2016-03-13T10:54:14Z</time>
      </trkpt>
      <trkpt lat="45.30419" lon="6.04992">
        <ele>1921</ele>
        <time>2016-03-13T10:54:19Z</time>
      </trkpt>
      <trkpt lat="45.30416" lon="6.04994">
        <ele>1921</ele>
        <time>2016-03-13T10:54:24Z</time>
      </trkpt>
      <trkpt lat="45.30412" lon="6.04996">
        <ele>1922</ele>
        <time>2016-03-13T10:54:29Z</time>
      </trkpt>
      <trkpt lat="45.30409" lon="6.04998">
        <ele>1922</ele>
        <time>2016-03-13T10:54:34Z</time>
      </trkpt>
      <trkpt lat="45.30405" lon="6.04999">
        <ele>1923</ele>
        <time>2016-03-13T10:54:39Z</time>
      </trkpt>
      <trkpt lat="45.30401" lon="6.05">
        <ele>1923</ele>
        <time>2016-03-13T10:54:44Z</time>
      </trkpt>
      <trkpt lat="45.30397" lon="6.05">
        <ele>1923</ele>
        <time>2016-03-13T10:54:49Z</time>
      </trkpt>
      <trkpt lat="45.30394" lon="6.05001">
        <ele>1924</ele>
        <time>2016-03-13T10:54:54Z</time>
      </trkpt>
      <trkpt lat="45.3039" lon="6.05002">
        <ele>1924</ele>
        <time>2016-03-13T10:54:59Z</time>
      </trkpt>
      <trkpt lat="45.30386" lon="6.05002">
        <ele>1925</ele>
        <time>2016-03-13T10:55:04Z</time>
      </trkpt>
      <trkpt lat="45.30383" lon="6.05002">
        <ele>1926</ele>
        <time>2016-03-13T10:55:09Z</time>
      </trkpt>
      <trkpt lat="45.30379" lon="6.05003">
        <ele>1926</ele>
        <time>2016-03-13T10:55:14Z</time>
      </trkpt>
      <trkpt lat="45.30375" lon="6.05004">
        <ele>1927</ele>
        <time>2016-03-13T10:55:19Z</time>
      </trkpt>
      <trkpt lat="45.30372" lon="6.05005">
        <ele>1927</ele>
        <time>2016-03-13T10:55:24Z</time>
      </trkpt>
      <trkpt lat="45.30369" lon="6.05007">
        <ele>1928</ele>
        <time>2016-03-13T10:55:29Z</time>
      </trkpt>
      <trkpt lat="45.30365" lon="6.05007">
        <ele>1928</ele>
        <time>2016-03-13T10:55:34Z</time>
      </trkpt>
      <trkpt lat="45.30364" lon="6.05006">
        <ele>1929</ele>
        <time>2016-03-13T10:55:39Z</time>
      </trkpt>
      <trkpt lat="45.30364" lon="6.05006">
        <ele>1929</ele>
        <time>2016-03-13T10:55:44Z</time>
      </trkpt>
      <trkpt lat="45.30364" lon="6.05006">
        <ele>1928</ele>
        <time>2016-03-13T10:55:49Z</time>
      </trkpt>
      <trkpt lat="45.30364" lon="6.05005">
        <ele>1928</ele>
        <time>2016-03-13T11:00:54Z</time>
      </trkpt>
      <trkpt lat="45.30364" lon="6.05005">
        <ele>1928</ele>
        <time>2016-03-13T11:00:59Z</time>
      </trkpt>
      <trkpt lat="45.30364" lon="6.05006">
        <ele>1929</ele>
        <time>2016-03-13T11:01:04Z</time>
      </trkpt>
      <trkpt lat="45.30364" lon="6.05006">
        <ele>1929</ele>
        <time>2016-03-13T11:01:09Z</time>
      </trkpt>
      <trkpt lat="45.30364" lon="6.05005">
        <ele>1929</ele>
        <time>2016-03-13T11:01:14Z</time>
      </trkpt>
      <trkpt lat="45.30364" lon="6.05006">
        <ele>1929</ele>
        <time>2016-03-13T11:01:19Z</time>
      </trkpt>
      <trkpt lat="45.30364" lon="6.05006">
        <ele>1929</ele>
        <time>2016-03-13T11:01:24Z</time>
      </trkpt>
      <trkpt lat="45.30364" lon="6.05006">
        <ele>1930</ele>
        <time>2016-03-13T11:01:29Z</time>
      </trkpt>
      <trkpt lat="45.30364" lon="6.05006">
        <ele>1930</ele>
        <time>2016-03-13T11:01:34Z</time>
      </trkpt>
      <trkpt lat="45.30364" lon="6.05006">
        <ele>1930</ele>
        <time>2016-03-13T11:01:39Z</time>
      </trkpt>
      <trkpt lat="45.30364" lon="6.05003">
        <ele>1930</ele>
        <time>2016-03-13T11:01:44Z</time>
      </trkpt>
      <trkpt lat="45.30364" lon="6.04997">
        <ele>1929</ele>
        <time>2016-03-13T11:01:49Z</time>
      </trkpt>
      <trkpt lat="45.30365" lon="6.04995">
        <ele>1929</ele>
        <time>2016-03-13T11:01:54Z</time>
      </trkpt>
      <trkpt lat="45.30365" lon="6.04994">
        <ele>1929</ele>
        <time>2016-03-13T11:01:59Z</time>
      </trkpt>
      <trkpt lat="45.30365" lon="6.04993">
        <ele>1929</ele>
        <time>2016-03-13T11:02:04Z</time>
      </trkpt>
      <trkpt lat="45.30366" lon="6.04994">
        <ele>1929</ele>
        <time>2016-03-13T11:02:09Z</time>
      </trkpt>
      <trkpt lat="45.30366" lon="6.04994">
        <ele>1929</ele>
        <time>2016-03-13T11:02:14Z</time>
      </trkpt>
      <trkpt lat="45.30367" lon="6.04995">
        <ele>1927</ele>
        <time>2016-03-13T11:32:39Z</time>
      </trkpt>
      <trkpt lat="45.30368" lon="6.04995">
        <ele>1928</ele>
        <time>2016-03-13T11:32:44Z</time>
      </trkpt>
      <trkpt lat="45.30368" lon="6.04995">
        <ele>1928</ele>
        <time>2016-03-13T11:32:49Z</time>
      </trkpt>
      <trkpt lat="45.30368" lon="6.04995">
        <ele>1928</ele>
        <time>2016-03-13T11:32:54Z</time>
      </trkpt>
      <trkpt lat="45.30369" lon="6.04995">
        <ele>1928</ele>
        <time>2016-03-13T11:32:59Z</time>
      </trkpt>
      <trkpt lat="45.30368" lon="6.04995">
        <ele>1929</ele>
        <time>2016-03-13T11:33:04Z</time>
      </trkpt>
      <trkpt lat="45.30368" lon="6.04996">
        <ele>1929</ele>
        <time>2016-03-13T11:33:09Z</time>
      </trkpt>
      <trkpt lat="45.30367" lon="6.04997">
        <ele>1930</ele>
        <time>2016-03-13T11:33:14Z</time>
      </trkpt>
      <trkpt lat="45.30369" lon="6.05">
        <ele>1931</ele>
        <time>2016-03-13T11:33:19Z</time>
      </trkpt>
      <trkpt lat="45.30375" lon="6.05004">
        <ele>1931</ele>
        <time>2016-03-13T11:33:24Z</time>
      </trkpt>
      <trkpt lat="45.30381" lon="6.05006">
        <ele>1930</ele>
        <time>2016-03-13T11:33:29Z</time>
      </trkpt>
      <trkpt lat="45.30386" lon="6.05009">
        <ele>1930</ele>
        <time>2016-03-13T11:33:34Z</time>
      </trkpt>
      <trkpt lat="45.30393" lon="6.05013">
        <ele>1929</ele>
        <time>2016-03-13T11:33:39Z</time>
      </trkpt>
      <trkpt lat="45.30398" lon="6.05017">
        <ele>1929</ele>
        <time>2016-03-13T11:33:44Z</time>
      </trkpt>
      <trkpt lat="45.30402" lon="6.05018">
        <ele>1928</ele>
        <time>2016-03-13T11:33:49Z</time>
      </trkpt>
      <trkpt lat="45.30404" lon="6.05018">
        <ele>1927</ele>
        <time>2016-03-13T11:33:54Z</time>
      </trkpt>
      <trkpt lat="45.30409" lon="6.05019">
        <ele>1927</ele>
        <time>2016-03-13T11:33:59Z</time>
      </trkpt>
      <trkpt lat="45.30412" lon="6.05021">
        <ele>1926</ele>
        <time>2016-03-13T11:34:04Z</time>
      </trkpt>
      <trkpt lat="45.30417" lon="6.05022">
        <ele>1926</ele>
        <time>2016-03-13T11:34:09Z</time>
      </trkpt>
      <trkpt lat="45.30421" lon="6.05024">
        <ele>1927</ele>
        <time>2016-03-13T11:34:14Z</time>
      </trkpt>
      <trkpt lat="45.30426" lon="6.05026">
        <ele>1927</ele>
        <time>2016-03-13T11:34:19Z</time>
      </trkpt>
      <trkpt lat="45.3043" lon="6.05028">
        <ele>1926</ele>
        <time>2016-03-13T11:34:24Z</time>
      </trkpt>
      <trkpt lat="45.30436" lon="6.05027">
        <ele>1926</ele>
        <time>2016-03-13T11:34:29Z</time>
      </trkpt>
      <trkpt lat="45.30443" lon="6.05026">
        <ele>1925</ele>
        <time>2016-03-13T11:34:34Z</time>
      </trkpt>
      <trkpt lat="45.30449" lon="6.05026">
        <ele>1924</ele>
        <time>2016-03-13T11:34:39Z</time>
      </trkpt>
      <trkpt lat="45.30449" lon="6.05026">
        <ele>1924</ele>
        <time>2016-03-13T11:34:44Z</time>
      </trkpt>
      <trkpt lat="45.30449" lon="6.05026">
        <ele>1925</ele>
        <time>2016-03-13T11:34:49Z</time>
      </trkpt>
      <trkpt lat="45.30449" lon="6.05026">
        <ele>1925</ele>
        <time>2016-03-13T11:34:54Z</time>
      </trkpt>
      <trkpt lat="45.30449" lon="6.05026">
        <ele>1925</ele>
        <time>2016-03-13T11:34:59Z</time>
      </trkpt>
      <trkpt lat="45.30449" lon="6.05026">
        <ele>1925</ele>
        <time>2016-03-13T11:35:04Z</time>
      </trkpt>
      <trkpt lat="45.30449" lon="6.05026">
        <ele>1925</ele>
        <time>2016-03-13T11:35:09Z</time>
      </trkpt>
      <trkpt lat="45.30449" lon="6.05026">
        <ele>1925</ele>
        <time>2016-03-13T11:35:14Z</time>
      </trkpt>
      <trkpt lat="45.30449" lon="6.05026">
        <ele>1925</ele>
        <time>2016-03-13T11:35:19Z</time>
      </trkpt>
      <trkpt lat="45.30449" lon="6.05026">
        <ele>1925</ele>
        <time>2016-03-13T11:35:24Z</time>
      </trkpt>
      <trkpt lat="45.3045" lon="6.05026">
        <ele>1924</ele>
        <time>2016-03-13T11:35:29Z</time>
      </trkpt>
      <trkpt lat="45.30462" lon="6.05028">
        <ele>1922</ele>
        <time>2016-03-13T11:35:34Z</time>
      </trkpt>
      <trkpt lat="45.30474" lon="6.05032">
        <ele>1921</ele>
        <time>2016-03-13T11:35:39Z</time>
      </trkpt>
      <trkpt lat="45.3048" lon="6.05035">
        <ele>1920</ele>
        <time>2016-03-13T11:35:44Z</time>
      </trkpt>
      <trkpt lat="45.30491" lon="6.05039">
        <ele>1918</ele>
        <time>2016-03-13T11:35:49Z</time>
      </trkpt>
      <trkpt lat="45.30502" lon="6.05044">
        <ele>1915</ele>
        <time>2016-03-13T11:35:54Z</time>
      </trkpt>
      <trkpt lat="45.30502" lon="6.05044">
        <ele>1916</ele>
        <time>2016-03-13T11:35:59Z</time>
      </trkpt>
      <trkpt lat="45.305" lon="6.05043">
        <ele>1917</ele>
        <time>2016-03-13T11:36:04Z</time>
      </trkpt>
      <trkpt lat="45.305" lon="6.05042">
        <ele>1918</ele>
        <time>2016-03-13T11:36:09Z</time>
      </trkpt>
      <trkpt lat="45.30499" lon="6.05041">
        <ele>1918</ele>
        <time>2016-03-13T11:36:14Z</time>
      </trkpt>
      <trkpt lat="45.305" lon="6.05042">
        <ele>1919</ele>
        <time>2016-03-13T11:36:19Z</time>
      </trkpt>
      <trkpt lat="45.30499" lon="6.05041">
        <ele>1918</ele>
        <time>2016-03-13T11:36:24Z</time>
      </trkpt>
      <trkpt lat="45.30499" lon="6.05041">
        <ele>1919</ele>
        <time>2016-03-13T11:36:29Z</time>
      </trkpt>
      <trkpt lat="45.30499" lon="6.05041">
        <ele>1919</ele>
        <time>2016-03-13T11:36:34Z</time>
      </trkpt>
      <trkpt lat="45.30498" lon="6.05041">
        <ele>1921</ele>
        <time>2016-03-13T11:36:39Z</time>
      </trkpt>
      <trkpt lat="45.30499" lon="6.0504">
        <ele>1921</ele>
        <time>2016-03-13T11:36:44Z</time>
      </trkpt>
      <trkpt lat="45.30498" lon="6.05041">
        <ele>1921</ele>
        <time>2016-03-13T11:36:49Z</time>
      </trkpt>
      <trkpt lat="45.30498" lon="6.05041">
        <ele>1920</ele>
        <time>2016-03-13T11:36:54Z</time>
      </trkpt>
      <trkpt lat="45.30498" lon="6.05041">
        <ele>1920</ele>
        <time>2016-03-13T11:36:59Z</time>
      </trkpt>
      <trkpt lat="45.30498" lon="6.05041">
        <ele>1920</ele>
        <time>2016-03-13T11:37:04Z</time>
      </trkpt>
      <trkpt lat="45.30498" lon="6.05042">
        <ele>1919</ele>
        <time>2016-03-13T11:37:09Z</time>
      </trkpt>
      <trkpt lat="45.30498" lon="6.05042">
        <ele>1919</ele>
        <time>2016-03-13T11:37:14Z</time>
      </trkpt>
      <trkpt lat="45.30498" lon="6.05042">
        <ele>1919</ele>
        <time>2016-03-13T11:37:19Z</time>
      </trkpt>
      <trkpt lat="45.30498" lon="6.05042">
        <ele>1918</ele>
        <time>2016-03-13T11:37:24Z</time>
      </trkpt>
      <trkpt lat="45.30498" lon="6.05042">
        <ele>1918</ele>
        <time>2016-03-13T11:37:29Z</time>
      </trkpt>
      <trkpt lat="45.30498" lon="6.05042">
        <ele>1918</ele>
        <time>2016-03-13T11:37:34Z</time>
      </trkpt>
      <trkpt lat="45.30498" lon="6.05042">
        <ele>1918</ele>
        <time>2016-03-13T11:37:39Z</time>
      </trkpt>
      <trkpt lat="45.30502" lon="6.05044">
        <ele>1917</ele>
        <time>2016-03-13T11:37:44Z</time>
      </trkpt>
      <trkpt lat="45.30503" lon="6.05044">
        <ele>1916</ele>
        <time>2016-03-13T11:37:49Z</time>
      </trkpt>
      <trkpt lat="45.30503" lon="6.05044">
        <ele>1915</ele>
        <time>2016-03-13T11:37:54Z</time>
      </trkpt>
      <trkpt lat="45.30502" lon="6.05044">
        <ele>1915</ele>
        <time>2016-03-13T11:37:59Z</time>
      </trkpt>
      <trkpt lat="45.30503" lon="6.05044">
        <ele>1914</ele>
        <time>2016-03-13T11:38:04Z</time>
      </trkpt>
      <trkpt lat="45.30507" lon="6.05044">
        <ele>1914</ele>
        <time>2016-03-13T11:38:09Z</time>
      </trkpt>
      <trkpt lat="45.30512" lon="6.05044">
        <ele>1913</ele>
        <time>2016-03-13T11:38:14Z</time>
      </trkpt>
      <trkpt lat="45.30517" lon="6.05046">
        <ele>1913</ele>
        <time>2016-03-13T11:38:19Z</time>
      </trkpt>
      <trkpt lat="45.30522" lon="6.05048">
        <ele>1913</ele>
        <time>2016-03-13T11:38:24Z</time>
      </trkpt>
      <trkpt lat="45.30528" lon="6.05051">
        <ele>1913</ele>
        <time>2016-03-13T11:38:29Z</time>
      </trkpt>
      <trkpt lat="45.30533" lon="6.05054">
        <ele>1913</ele>
        <time>2016-03-13T11:38:34Z</time>
      </trkpt>
      <trkpt lat="45.30539" lon="6.05058">
        <ele>1912</ele>
        <time>2016-03-13T11:38:39Z</time>
      </trkpt>
      <trkpt lat="45.30543" lon="6.0506">
        <ele>1912</ele>
        <time>2016-03-13T11:38:44Z</time>
      </trkpt>
      <trkpt lat="45.30543" lon="6.0506">
        <ele>1912</ele>
        <time>2016-03-13T11:38:49Z</time>
      </trkpt>
      <trkpt lat="45.30543" lon="6.05059">
        <ele>1911</ele>
        <time>2016-03-13T11:38:54Z</time>
      </trkpt>
      <trkpt lat="45.30543" lon="6.05059">
        <ele>1911</ele>
        <time>2016-03-13T11:38:59Z</time>
      </trkpt>
      <trkpt lat="45.30543" lon="6.05059">
        <ele>1912</ele>
        <time>2016-03-13T11:39:04Z</time>
      </trkpt>
      <trkpt lat="45.30543" lon="6.05059">
        <ele>1912</ele>
        <time>2016-03-13T11:39:09Z</time>
      </trkpt>
      <trkpt lat="45.30544" lon="6.05059">
        <ele>1913</ele>
        <time>2016-03-13T11:39:14Z</time>
      </trkpt>
      <trkpt lat="45.30546" lon="6.05061">
        <ele>1914</ele>
        <time>2016-03-13T11:39:19Z</time>
      </trkpt>
      <trkpt lat="45.30546" lon="6.05061">
        <ele>1914</ele>
        <time>2016-03-13T11:39:24Z</time>
      </trkpt>
      <trkpt lat="45.30547" lon="6.05061">
        <ele>1915</ele>
        <time>2016-03-13T11:39:29Z</time>
      </trkpt>
      <trkpt lat="45.30548" lon="6.05062">
        <ele>1915</ele>
        <time>2016-03-13T11:39:34Z</time>
      </trkpt>
      <trkpt lat="45.30548" lon="6.05062">
        <ele>1915</ele>
        <time>2016-03-13T11:39:39Z</time>
      </trkpt>
      <trkpt lat="45.3055" lon="6.05064">
        <ele>1915</ele>
        <time>2016-03-13T11:39:44Z</time>
      </trkpt>
      <trkpt lat="45.30554" lon="6.05066">
        <ele>1915</ele>
        <time>2016-03-13T11:39:49Z</time>
      </trkpt>
      <trkpt lat="45.30554" lon="6.05066">
        <ele>1915</ele>
        <time>2016-03-13T11:39:54Z</time>
      </trkpt>
      <trkpt lat="45.30554" lon="6.05066">
        <ele>1915</ele>
        <time>2016-03-13T11:39:59Z</time>
      </trkpt>
      <trkpt lat="45.30554" lon="6.05066">
        <ele>1914</ele>
        <time>2016-03-13T11:40:04Z</time>
      </trkpt>
      <trkpt lat="45.30554" lon="6.05066">
        <ele>1914</ele>
        <time>2016-03-13T11:40:09Z</time>
      </trkpt>
      <trkpt lat="45.30553" lon="6.05066">
        <ele>1914</ele>
        <time>2016-03-13T11:40:14Z</time>
      </trkpt>
      <trkpt lat="45.30553" lon="6.05066">
        <ele>1914</ele>
        <time>2016-03-13T11:40:19Z</time>
      </trkpt>
      <trkpt lat="45.30553" lon="6.05067">
        <ele>1914</ele>
        <time>2016-03-13T11:40:24Z</time>
      </trkpt>
      <trkpt lat="45.30553" lon="6.05067">
        <ele>1914</ele>
        <time>2016-03-13T11:40:29Z</time>
      </trkpt>
      <trkpt lat="45.30553" lon="6.05067">
        <ele>1914</ele>
        <time>2016-03-13T11:40:34Z</time>
      </trkpt>
      <trkpt lat="45.30554" lon="6.05068">
        <ele>1914</ele>
        <time>2016-03-13T11:40:39Z</time>
      </trkpt>
      <trkpt lat="45.30554" lon="6.05068">
        <ele>1914</ele>
        <time>2016-03-13T11:40:44Z</time>
      </trkpt>
      <trkpt lat="45.30557" lon="6.05068">
        <ele>1913</ele>
        <time>2016-03-13T11:40:49Z</time>
      </trkpt>
      <trkpt lat="45.30562" lon="6.0507">
        <ele>1913</ele>
        <time>2016-03-13T11:40:54Z</time>
      </trkpt>
      <trkpt lat="45.30567" lon="6.05072">
        <ele>1912</ele>
        <time>2016-03-13T11:40:59Z</time>
      </trkpt>
      <trkpt lat="45.30573" lon="6.05077">
        <ele>1912</ele>
        <time>2016-03-13T11:41:04Z</time>
      </trkpt>
      <trkpt lat="45.30578" lon="6.0508">
        <ele>1911</ele>
        <time>2016-03-13T11:41:09Z</time>
      </trkpt>
      <trkpt lat="45.30583" lon="6.05084">
        <ele>1911</ele>
        <time>2016-03-13T11:41:14Z</time>
      </trkpt>
      <trkpt lat="45.30588" lon="6.05087">
        <ele>1910</ele>
        <time>2016-03-13T11:41:19Z</time>
      </trkpt>
      <trkpt lat="45.30593" lon="6.05091">
        <ele>1910</ele>
        <time>2016-03-13T11:41:24Z</time>
      </trkpt>
      <trkpt lat="45.30597" lon="6.05094">
        <ele>1909</ele>
        <time>2016-03-13T11:41:29Z</time>
      </trkpt>
      <trkpt lat="45.30601" lon="6.05099">
        <ele>1909</ele>
        <time>2016-03-13T11:41:34Z</time>
      </trkpt>
      <trkpt lat="45.30605" lon="6.05103">
        <ele>1910</ele>
        <time>2016-03-13T11:41:39Z</time>
      </trkpt>
      <trkpt lat="45.30609" lon="6.05107">
        <ele>1910</ele>
        <time>2016-03-13T11:41:44Z</time>
      </trkpt>
      <trkpt lat="45.30613" lon="6.05111">
        <ele>1910</ele>
        <time>2016-03-13T11:41:49Z</time>
      </trkpt>
      <trkpt lat="45.30616" lon="6.05115">
        <ele>1911</ele>
        <time>2016-03-13T11:41:54Z</time>
      </trkpt>
      <trkpt lat="45.3062" lon="6.05119">
        <ele>1912</ele>
        <time>2016-03-13T11:41:59Z</time>
      </trkpt>
      <trkpt lat="45.30623" lon="6.05123">
        <ele>1913</ele>
        <time>2016-03-13T11:42:04Z</time>
      </trkpt>
      <trkpt lat="45.30626" lon="6.05128">
        <ele>1913</ele>
        <time>2016-03-13T11:42:09Z</time>
      </trkpt>
      <trkpt lat="45.30629" lon="6.05132">
        <ele>1913</ele>
        <time>2016-03-13T11:42:14Z</time>
      </trkpt>
      <trkpt lat="45.30632" lon="6.05136">
        <ele>1913</ele>
        <time>2016-03-13T11:42:19Z</time>
      </trkpt>
      <trkpt lat="45.30636" lon="6.0514">
        <ele>1913</ele>
        <time>2016-03-13T11:42:24Z</time>
      </trkpt>
      <trkpt lat="45.30637" lon="6.05143">
        <ele>1914</ele>
        <time>2016-03-13T11:42:29Z</time>
      </trkpt>
      <trkpt lat="45.30639" lon="6.05144">
        <ele>1915</ele>
        <time>2016-03-13T11:42:34Z</time>
      </trkpt>
      <trkpt lat="45.30642" lon="6.05147">
        <ele>1916</ele>
        <time>2016-03-13T11:42:39Z</time>
      </trkpt>
      <trkpt lat="45.30643" lon="6.05151">
        <ele>1916</ele>
        <time>2016-03-13T11:42:44Z</time>
      </trkpt>
      <trkpt lat="45.30646" lon="6.05154">
        <ele>1917</ele>
        <time>2016-03-13T11:42:49Z</time>
      </trkpt>
      <trkpt lat="45.30647" lon="6.05155">
        <ele>1917</ele>
        <time>2016-03-13T11:42:54Z</time>
      </trkpt>
      <trkpt lat="45.30649" lon="6.05157">
        <ele>1917</ele>
        <time>2016-03-13T11:42:59Z</time>
      </trkpt>
      <trkpt lat="45.30652" lon="6.05163">
        <ele>1918</ele>
        <time>2016-03-13T11:43:04Z</time>
      </trkpt>
      <trkpt lat="45.30653" lon="6.05162">
        <ele>1912</ele>
        <time>2016-03-13T11:57:44Z</time>
      </trkpt>
      <trkpt lat="45.30653" lon="6.05162">
        <ele>1911</ele>
        <time>2016-03-13T11:57:49Z</time>
      </trkpt>
      <trkpt lat="45.30652" lon="6.05162">
        <ele>1911</ele>
        <time>2016-03-13T11:57:54Z</time>
      </trkpt>
      <trkpt lat="45.30652" lon="6.05162">
        <ele>1911</ele>
        <time>2016-03-13T11:57:59Z</time>
      </trkpt>
      <trkpt lat="45.30652" lon="6.05162">
        <ele>1911</ele>
        <time>2016-03-13T11:58:04Z</time>
      </trkpt>
      <trkpt lat="45.30652" lon="6.05161">
        <ele>1911</ele>
        <time>2016-03-13T11:58:09Z</time>
      </trkpt>
      <trkpt lat="45.30651" lon="6.05163">
        <ele>1911</ele>
        <time>2016-03-13T11:58:14Z</time>
      </trkpt>
      <trkpt lat="45.3065" lon="6.05165">
        <ele>1911</ele>
        <time>2016-03-13T11:58:19Z</time>
      </trkpt>
      <trkpt lat="45.3065" lon="6.05164">
        <ele>1911</ele>
        <time>2016-03-13T11:58:24Z</time>
      </trkpt>
      <trkpt lat="45.30647" lon="6.05164">
        <ele>1911</ele>
        <time>2016-03-13T11:58:29Z</time>
      </trkpt>
      <trkpt lat="45.30642" lon="6.05165">
        <ele>1911</ele>
        <time>2016-03-13T11:58:34Z</time>
      </trkpt>
      <trkpt lat="45.30641" lon="6.05166">
        <ele>1910</ele>
        <time>2016-03-13T11:58:39Z</time>
      </trkpt>
      <trkpt lat="45.30641" lon="6.05167">
        <ele>1910</ele>
        <time>2016-03-13T11:58:44Z</time>
      </trkpt>
      <trkpt lat="45.30641" lon="6.05168">
        <ele>1910</ele>
        <time>2016-03-13T11:58:49Z</time>
      </trkpt>
      <trkpt lat="45.30642" lon="6.05168">
        <ele>1909</ele>
        <time>2016-03-13T11:58:54Z</time>
      </trkpt>
      <trkpt lat="45.3065" lon="6.05177">
        <ele>1906</ele>
        <time>2016-03-13T11:58:59Z</time>
      </trkpt>
      <trkpt lat="45.30652" lon="6.05187">
        <ele>1905</ele>
        <time>2016-03-13T11:59:04Z</time>
      </trkpt>
      <trkpt lat="45.30652" lon="6.05187">
        <ele>1904</ele>
        <time>2016-03-13T11:59:09Z</time>
      </trkpt>
      <trkpt lat="45.30657" lon="6.05188">
        <ele>1902</ele>
        <time>2016-03-13T11:59:14Z</time>
      </trkpt>
      <trkpt lat="45.30658" lon="6.05187">
        <ele>1902</ele>
        <time>2016-03-13T11:59:19Z</time>
      </trkpt>
      <trkpt lat="45.30658" lon="6.05187">
        <ele>1902</ele>
        <time>2016-03-13T11:59:24Z</time>
      </trkpt>
      <trkpt lat="45.30665" lon="6.05187">
        <ele>1901</ele>
        <time>2016-03-13T11:59:29Z</time>
      </trkpt>
      <trkpt lat="45.30667" lon="6.05208">
        <ele>1899</ele>
        <time>2016-03-13T11:59:34Z</time>
      </trkpt>
      <trkpt lat="45.30684" lon="6.0522">
        <ele>1895</ele>
        <time>2016-03-13T11:59:39Z</time>
      </trkpt>
      <trkpt lat="45.30702" lon="6.0523">
        <ele>1892</ele>
        <time>2016-03-13T11:59:44Z</time>
      </trkpt>
      <trkpt lat="45.30718" lon="6.0524">
        <ele>1889</ele>
        <time>2016-03-13T11:59:49Z</time>
      </trkpt>
      <trkpt lat="45.3073" lon="6.05241">
        <ele>1886</ele>
        <time>2016-03-13T11:59:54Z</time>
      </trkpt>
      <trkpt lat="45.30732" lon="6.05238">
        <ele>1886</ele>
        <time>2016-03-13T11:59:59Z</time>
      </trkpt>
      <trkpt lat="45.30733" lon="6.05238">
        <ele>1886</ele>
        <time>2016-03-13T12:00:04Z</time>
      </trkpt>
      <trkpt lat="45.30734" lon="6.05238">
        <ele>1885</ele>
        <time>2016-03-13T12:00:09Z</time>
      </trkpt>
      <trkpt lat="45.30734" lon="6.05237">
        <ele>1885</ele>
        <time>2016-03-13T12:00:14Z</time>
      </trkpt>
      <trkpt lat="45.30735" lon="6.05237">
        <ele>1885</ele>
        <time>2016-03-13T12:00:19Z</time>
      </trkpt>
      <trkpt lat="45.30735" lon="6.05237">
        <ele>1885</ele>
        <time>2016-03-13T12:00:24Z</time>
      </trkpt>
      <trkpt lat="45.30735" lon="6.05237">
        <ele>1885</ele>
        <time>2016-03-13T12:00:29Z</time>
      </trkpt>
      <trkpt lat="45.30735" lon="6.05237">
        <ele>1884</ele>
        <time>2016-03-13T12:00:34Z</time>
      </trkpt>
      <trkpt lat="45.3074" lon="6.05233">
        <ele>1882</ele>
        <time>2016-03-13T12:00:39Z</time>
      </trkpt>
      <trkpt lat="45.30753" lon="6.05223">
        <ele>1876</ele>
        <time>2016-03-13T12:00:44Z</time>
      </trkpt>
      <trkpt lat="45.30757" lon="6.0522">
        <ele>1865</ele>
        <time>2016-03-13T12:01:09Z</time>
      </trkpt>
      <trkpt lat="45.30757" lon="6.05211">
        <ele>1864</ele>
        <time>2016-03-13T12:01:14Z</time>
      </trkpt>
      <trkpt lat="45.30755" lon="6.0519">
        <ele>1862</ele>
        <time>2016-03-13T12:01:19Z</time>
      </trkpt>
      <trkpt lat="45.30761" lon="6.05159">
        <ele>1858</ele>
        <time>2016-03-13T12:01:24Z</time>
      </trkpt>
      <trkpt lat="45.30774" lon="6.05145">
        <ele>1854</ele>
        <time>2016-03-13T12:01:29Z</time>
      </trkpt>
      <trkpt lat="45.30781" lon="6.05141">
        <ele>1852</ele>
        <time>2016-03-13T12:01:34Z</time>
      </trkpt>
      <trkpt lat="45.30782" lon="6.05139">
        <ele>1852</ele>
        <time>2016-03-13T12:01:39Z</time>
      </trkpt>
      <trkpt lat="45.30783" lon="6.05139">
        <ele>1853</ele>
        <time>2016-03-13T12:01:44Z</time>
      </trkpt>
      <trkpt lat="45.30783" lon="6.05139">
        <ele>1854</ele>
        <time>2016-03-13T12:01:49Z</time>
      </trkpt>
      <trkpt lat="45.30783" lon="6.05139">
        <ele>1854</ele>
        <time>2016-03-13T12:01:54Z</time>
      </trkpt>
      <trkpt lat="45.30782" lon="6.0514">
        <ele>1852</ele>
        <time>2016-03-13T12:01:59Z</time>
      </trkpt>
      <trkpt lat="45.30783" lon="6.0514">
        <ele>1853</ele>
        <time>2016-03-13T12:02:04Z</time>
      </trkpt>
      <trkpt lat="45.30784" lon="6.0514">
        <ele>1854</ele>
        <time>2016-03-13T12:02:09Z</time>
      </trkpt>
      <trkpt lat="45.30784" lon="6.0514">
        <ele>1855</ele>
        <time>2016-03-13T12:02:14Z</time>
      </trkpt>
      <trkpt lat="45.30785" lon="6.0514">
        <ele>1855</ele>
        <time>2016-03-13T12:02:19Z</time>
      </trkpt>
      <trkpt lat="45.30785" lon="6.05139">
        <ele>1856</ele>
        <time>2016-03-13T12:02:24Z</time>
      </trkpt>
      <trkpt lat="45.30785" lon="6.05137">
        <ele>1857</ele>
        <time>2016-03-13T12:02:29Z</time>
      </trkpt>
      <trkpt lat="45.30788" lon="6.05128">
        <ele>1856</ele>
        <time>2016-03-13T12:02:34Z</time>
      </trkpt>
      <trkpt lat="45.30789" lon="6.05128">
        <ele>1856</ele>
        <time>2016-03-13T12:02:39Z</time>
      </trkpt>
      <trkpt lat="45.30787" lon="6.05128">
        <ele>1854</ele>
        <time>2016-03-13T12:02:44Z</time>
      </trkpt>
      <trkpt lat="45.30792" lon="6.05111">
        <ele>1851</ele>
        <time>2016-03-13T12:02:49Z</time>
      </trkpt>
      <trkpt lat="45.30806" lon="6.05107">
        <ele>1849</ele>
        <time>2016-03-13T12:02:54Z</time>
      </trkpt>
      <trkpt lat="45.30821" lon="6.05108">
        <ele>1846</ele>
        <time>2016-03-13T12:02:59Z</time>
      </trkpt>
      <trkpt lat="45.30838" lon="6.05114">
        <ele>1842</ele>
        <time>2016-03-13T12:03:04Z</time>
      </trkpt>
      <trkpt lat="45.30859" lon="6.0513">
        <ele>1838</ele>
        <time>2016-03-13T12:03:09Z</time>
      </trkpt>
      <trkpt lat="45.30879" lon="6.05122">
        <ele>1834</ele>
        <time>2016-03-13T12:03:14Z</time>
      </trkpt>
      <trkpt lat="45.30906" lon="6.05116">
        <ele>1830</ele>
        <time>2016-03-13T12:03:19Z</time>
      </trkpt>
      <trkpt lat="45.30932" lon="6.05107">
        <ele>1829</ele>
        <time>2016-03-13T12:03:24Z</time>
      </trkpt>
      <trkpt lat="45.30947" lon="6.05084">
        <ele>1827</ele>
        <time>2016-03-13T12:03:29Z</time>
      </trkpt>
      <trkpt lat="45.30954" lon="6.05066">
        <ele>1826</ele>
        <time>2016-03-13T12:03:34Z</time>
      </trkpt>
      <trkpt lat="45.30959" lon="6.05054">
        <ele>1826</ele>
        <time>2016-03-13T12:03:39Z</time>
      </trkpt>
      <trkpt lat="45.30965" lon="6.05046">
        <ele>1825</ele>
        <time>2016-03-13T12:03:44Z</time>
      </trkpt>
      <trkpt lat="45.30968" lon="6.05043">
        <ele>1825</ele>
        <time>2016-03-13T12:03:49Z</time>
      </trkpt>
      <trkpt lat="45.30969" lon="6.05041">
        <ele>1824</ele>
        <time>2016-03-13T12:03:54Z</time>
      </trkpt>
      <trkpt lat="45.3097" lon="6.05039">
        <ele>1825</ele>
        <time>2016-03-13T12:03:59Z</time>
      </trkpt>
      <trkpt lat="45.30972" lon="6.05038">
        <ele>1826</ele>
        <time>2016-03-13T12:04:04Z</time>
      </trkpt>
      <trkpt lat="45.30972" lon="6.05037">
        <ele>1826</ele>
        <time>2016-03-13T12:04:09Z</time>
      </trkpt>
      <trkpt lat="45.30973" lon="6.05037">
        <ele>1827</ele>
        <time>2016-03-13T12:04:14Z</time>
      </trkpt>
      <trkpt lat="45.30974" lon="6.05036">
        <ele>1828</ele>
        <time>2016-03-13T12:04:19Z</time>
      </trkpt>
      <trkpt lat="45.30976" lon="6.05035">
        <ele>1828</ele>
        <time>2016-03-13T12:04:24Z</time>
      </trkpt>
      <trkpt lat="45.30976" lon="6.05034">
        <ele>1828</ele>
        <time>2016-03-13T12:04:29Z</time>
      </trkpt>
      <trkpt lat="45.30977" lon="6.05034">
        <ele>1829</ele>
        <time>2016-03-13T12:04:34Z</time>
      </trkpt>
      <trkpt lat="45.30979" lon="6.05034">
        <ele>1830</ele>
        <time>2016-03-13T12:04:39Z</time>
      </trkpt>
      <trkpt lat="45.30978" lon="6.05033">
        <ele>1828</ele>
        <time>2016-03-13T12:05:34Z</time>
      </trkpt>
      <trkpt lat="45.3098" lon="6.0503">
        <ele>1827</ele>
        <time>2016-03-13T12:05:39Z</time>
      </trkpt>
      <trkpt lat="45.30982" lon="6.05028">
        <ele>1827</ele>
        <time>2016-03-13T12:05:44Z</time>
      </trkpt>
      <trkpt lat="45.30984" lon="6.05027">
        <ele>1828</ele>
        <time>2016-03-13T12:05:49Z</time>
      </trkpt>
      <trkpt lat="45.30984" lon="6.05027">
        <ele>1828</ele>
        <time>2016-03-13T12:05:54Z</time>
      </trkpt>
      <trkpt lat="45.30983" lon="6.05026">
        <ele>1826</ele>
        <time>2016-03-13T12:05:59Z</time>
      </trkpt>
      <trkpt lat="45.30984" lon="6.05026">
        <ele>1827</ele>
        <time>2016-03-13T12:06:04Z</time>
      </trkpt>
      <trkpt lat="45.30984" lon="6.05024">
        <ele>1827</ele>
        <time>2016-03-13T12:06:09Z</time>
      </trkpt>
      <trkpt lat="45.30985" lon="6.05024">
        <ele>1827</ele>
        <time>2016-03-13T12:06:14Z</time>
      </trkpt>
      <trkpt lat="45.30985" lon="6.05022">
        <ele>1827</ele>
        <time>2016-03-13T12:06:19Z</time>
      </trkpt>
      <trkpt lat="45.30985" lon="6.05021">
        <ele>1828</ele>
        <time>2016-03-13T12:06:24Z</time>
      </trkpt>
      <trkpt lat="45.30994" lon="6.05015">
        <ele>1826</ele>
        <time>2016-03-13T12:06:29Z</time>
      </trkpt>
      <trkpt lat="45.31008" lon="6.05009">
        <ele>1824</ele>
        <time>2016-03-13T12:06:34Z</time>
      </trkpt>
      <trkpt lat="45.31011" lon="6.05012">
        <ele>1824</ele>
        <time>2016-03-13T12:06:39Z</time>
      </trkpt>
      <trkpt lat="45.31011" lon="6.05012">
        <ele>1824</ele>
        <time>2016-03-13T12:06:44Z</time>
      </trkpt>
      <trkpt lat="45.31011" lon="6.05013">
        <ele>1824</ele>
        <time>2016-03-13T12:06:49Z</time>
      </trkpt>
      <trkpt lat="45.31011" lon="6.05013">
        <ele>1824</ele>
        <time>2016-03-13T12:06:54Z</time>
      </trkpt>
      <trkpt lat="45.3101" lon="6.05014">
        <ele>1823</ele>
        <time>2016-03-13T12:06:59Z</time>
      </trkpt>
      <trkpt lat="45.3101" lon="6.05014">
        <ele>1823</ele>
        <time>2016-03-13T12:07:04Z</time>
      </trkpt>
      <trkpt lat="45.31011" lon="6.05014">
        <ele>1824</ele>
        <time>2016-03-13T12:07:09Z</time>
      </trkpt>
      <trkpt lat="45.3101" lon="6.05016">
        <ele>1821</ele>
        <time>2016-03-13T12:07:14Z</time>
      </trkpt>
      <trkpt lat="45.3101" lon="6.05016">
        <ele>1819</ele>
        <time>2016-03-13T12:07:19Z</time>
      </trkpt>
      <trkpt lat="45.31014" lon="6.05018">
        <ele>1818</ele>
        <time>2016-03-13T12:07:24Z</time>
      </trkpt>
      <trkpt lat="45.3103" lon="6.05018">
        <ele>1816</ele>
        <time>2016-03-13T12:07:29Z</time>
      </trkpt>
      <trkpt lat="45.3106" lon="6.05025">
        <ele>1812</ele>
        <time>2016-03-13T12:07:34Z</time>
      </trkpt>
      <trkpt lat="45.31089" lon="6.05009">
        <ele>1809</ele>
        <time>2016-03-13T12:07:39Z</time>
      </trkpt>
      <trkpt lat="45.31099" lon="6.05009">
        <ele>1808</ele>
        <time>2016-03-13T12:07:44Z</time>
      </trkpt>
      <trkpt lat="45.31107" lon="6.05012">
        <ele>1810</ele>
        <time>2016-03-13T12:07:49Z</time>
      </trkpt>
      <trkpt lat="45.31109" lon="6.05012">
        <ele>1810</ele>
        <time>2016-03-13T12:07:54Z</time>
      </trkpt>
      <trkpt lat="45.31109" lon="6.05012">
        <ele>1810</ele>
        <time>2016-03-13T12:07:59Z</time>
      </trkpt>
      <trkpt lat="45.31109" lon="6.05011">
        <ele>1810</ele>
        <time>2016-03-13T12:08:04Z</time>
      </trkpt>
      <trkpt lat="45.31109" lon="6.05011">
        <ele>1810</ele>
        <time>2016-03-13T12:08:09Z</time>
      </trkpt>
      <trkpt lat="45.3111" lon="6.05011">
        <ele>1810</ele>
        <time>2016-03-13T12:08:14Z</time>
      </trkpt>
      <trkpt lat="45.31111" lon="6.05012">
        <ele>1810</ele>
        <time>2016-03-13T12:08:19Z</time>
      </trkpt>
      <trkpt lat="45.31112" lon="6.05011">
        <ele>1810</ele>
        <time>2016-03-13T12:08:24Z</time>
      </trkpt>
      <trkpt lat="45.31112" lon="6.05011">
        <ele>1810</ele>
        <time>2016-03-13T12:08:29Z</time>
      </trkpt>
      <trkpt lat="45.31112" lon="6.05011">
        <ele>1810</ele>
        <time>2016-03-13T12:08:34Z</time>
      </trkpt>
      <trkpt lat="45.31112" lon="6.05011">
        <ele>1810</ele>
        <time>2016-03-13T12:08:39Z</time>
      </trkpt>
      <trkpt lat="45.31113" lon="6.05011">
        <ele>1809</ele>
        <time>2016-03-13T12:08:44Z</time>
      </trkpt>
      <trkpt lat="45.31113" lon="6.05011">
        <ele>1809</ele>
        <time>2016-03-13T12:08:49Z</time>
      </trkpt>
      <trkpt lat="45.31113" lon="6.05011">
        <ele>1809</ele>
        <time>2016-03-13T12:08:54Z</time>
      </trkpt>
      <trkpt lat="45.31113" lon="6.0501">
        <ele>1809</ele>
        <time>2016-03-13T12:08:59Z</time>
      </trkpt>
      <trkpt lat="45.31114" lon="6.0501">
        <ele>1809</ele>
        <time>2016-03-13T12:09:04Z</time>
      </trkpt>
      <trkpt lat="45.31114" lon="6.0501">
        <ele>1809</ele>
        <time>2016-03-13T12:09:09Z</time>
      </trkpt>
      <trkpt lat="45.31114" lon="6.05009">
        <ele>1809</ele>
        <time>2016-03-13T12:09:14Z</time>
      </trkpt>
      <trkpt lat="45.31123" lon="6.04999">
        <ele>1808</ele>
        <time>2016-03-13T12:09:19Z</time>
      </trkpt>
      <trkpt lat="45.31136" lon="6.04996">
        <ele>1808</ele>
        <time>2016-03-13T12:09:24Z</time>
      </trkpt>
      <trkpt lat="45.31162" lon="6.04994">
        <ele>1807</ele>
        <time>2016-03-13T12:09:29Z</time>
      </trkpt>
      <trkpt lat="45.31191" lon="6.04997">
        <ele>1804</ele>
        <time>2016-03-13T12:09:34Z</time>
      </trkpt>
      <trkpt lat="45.31211" lon="6.04987">
        <ele>1800</ele>
        <time>2016-03-13T12:09:39Z</time>
      </trkpt>
      <trkpt lat="45.31225" lon="6.04966">
        <ele>1794</ele>
        <time>2016-03-13T12:09:44Z</time>
      </trkpt>
      <trkpt lat="45.31227" lon="6.04934">
        <ele>1786</ele>
        <time>2016-03-13T12:09:49Z</time>
      </trkpt>
      <trkpt lat="45.31231" lon="6.04931">
        <ele>1783</ele>
        <time>2016-03-13T12:09:54Z</time>
      </trkpt>
      <trkpt lat="45.31229" lon="6.04933">
        <ele>1782</ele>
        <time>2016-03-13T12:09:59Z</time>
      </trkpt>
      <trkpt lat="45.31228" lon="6.04935">
        <ele>1781</ele>
        <time>2016-03-13T12:10:04Z</time>
      </trkpt>
      <trkpt lat="45.31236" lon="6.04931">
        <ele>1782</ele>
        <time>2016-03-13T12:10:09Z</time>
      </trkpt>
      <trkpt lat="45.31252" lon="6.04917">
        <ele>1780</ele>
        <time>2016-03-13T12:10:14Z</time>
      </trkpt>
      <trkpt lat="45.31258" lon="6.0489">
        <ele>1777</ele>
        <time>2016-03-13T12:10:19Z</time>
      </trkpt>
      <trkpt lat="45.31268" lon="6.04892">
        <ele>1777</ele>
        <time>2016-03-13T12:10:24Z</time>
      </trkpt>
      <trkpt lat="45.31277" lon="6.04894">
        <ele>1777</ele>
        <time>2016-03-13T12:10:29Z</time>
      </trkpt>
      <trkpt lat="45.31283" lon="6.04894">
        <ele>1776</ele>
        <time>2016-03-13T12:10:34Z</time>
      </trkpt>
      <trkpt lat="45.31297" lon="6.04883">
        <ele>1776</ele>
        <time>2016-03-13T12:10:39Z</time>
      </trkpt>
      <trkpt lat="45.31313" lon="6.04865">
        <ele>1774</ele>
        <time>2016-03-13T12:10:44Z</time>
      </trkpt>
      <trkpt lat="45.31316" lon="6.04842">
        <ele>1770</ele>
        <time>2016-03-13T12:10:49Z</time>
      </trkpt>
      <trkpt lat="45.31326" lon="6.04834">
        <ele>1766</ele>
        <time>2016-03-13T12:10:54Z</time>
      </trkpt>
      <trkpt lat="45.31326" lon="6.04834">
        <ele>1761</ele>
        <time>2016-03-13T12:10:59Z</time>
      </trkpt>
      <trkpt lat="45.31326" lon="6.04835">
        <ele>1760</ele>
        <time>2016-03-13T12:11:04Z</time>
      </trkpt>
      <trkpt lat="45.31327" lon="6.04836">
        <ele>1759</ele>
        <time>2016-03-13T12:11:09Z</time>
      </trkpt>
      <trkpt lat="45.31328" lon="6.04835">
        <ele>1758</ele>
        <time>2016-03-13T12:11:14Z</time>
      </trkpt>
      <trkpt lat="45.31329" lon="6.04834">
        <ele>1759</ele>
        <time>2016-03-13T12:11:19Z</time>
      </trkpt>
      <trkpt lat="45.31337" lon="6.04836">
        <ele>1760</ele>
        <time>2016-03-13T12:11:24Z</time>
      </trkpt>
      <trkpt lat="45.31345" lon="6.0482">
        <ele>1757</ele>
        <time>2016-03-13T12:11:29Z</time>
      </trkpt>
      <trkpt lat="45.31354" lon="6.04813">
        <ele>1754</ele>
        <time>2016-03-13T12:11:34Z</time>
      </trkpt>
      <trkpt lat="45.3136" lon="6.04809">
        <ele>1754</ele>
        <time>2016-03-13T12:11:39Z</time>
      </trkpt>
      <trkpt lat="45.31362" lon="6.04808">
        <ele>1754</ele>
        <time>2016-03-13T12:11:44Z</time>
      </trkpt>
      <trkpt lat="45.31363" lon="6.04809">
        <ele>1751</ele>
        <time>2016-03-13T12:11:49Z</time>
      </trkpt>
      <trkpt lat="45.31361" lon="6.04811">
        <ele>1751</ele>
        <time>2016-03-13T12:11:54Z</time>
      </trkpt>
      <trkpt lat="45.3136" lon="6.04811">
        <ele>1751</ele>
        <time>2016-03-13T12:11:59Z</time>
      </trkpt>
      <trkpt lat="45.3136" lon="6.0481">
        <ele>1749</ele>
        <time>2016-03-13T12:12:04Z</time>
      </trkpt>
      <trkpt lat="45.31373" lon="6.04812">
        <ele>1748</ele>
        <time>2016-03-13T12:12:09Z</time>
      </trkpt>
      <trkpt lat="45.31392" lon="6.04818">
        <ele>1745</ele>
        <time>2016-03-13T12:12:14Z</time>
      </trkpt>
      <trkpt lat="45.31403" lon="6.04822">
        <ele>1740</ele>
        <time>2016-03-13T12:12:19Z</time>
      </trkpt>
      <trkpt lat="45.31403" lon="6.04821">
        <ele>1739</ele>
        <time>2016-03-13T12:12:24Z</time>
      </trkpt>
      <trkpt lat="45.31403" lon="6.04821">
        <ele>1737</ele>
        <time>2016-03-13T12:12:29Z</time>
      </trkpt>
      <trkpt lat="45.31403" lon="6.04821">
        <ele>1737</ele>
        <time>2016-03-13T12:12:34Z</time>
      </trkpt>
      <trkpt lat="45.31405" lon="6.04821">
        <ele>1737</ele>
        <time>2016-03-13T12:12:39Z</time>
      </trkpt>
      <trkpt lat="45.31416" lon="6.04812">
        <ele>1737</ele>
        <time>2016-03-13T12:12:44Z</time>
      </trkpt>
      <trkpt lat="45.31438" lon="6.04808">
        <ele>1737</ele>
        <time>2016-03-13T12:12:49Z</time>
      </trkpt>
      <trkpt lat="45.31462" lon="6.04814">
        <ele>1737</ele>
        <time>2016-03-13T12:12:54Z</time>
      </trkpt>
      <trkpt lat="45.3148" lon="6.04824">
        <ele>1730</ele>
        <time>2016-03-13T12:12:59Z</time>
      </trkpt>
      <trkpt lat="45.3148" lon="6.04825">
        <ele>1726</ele>
        <time>2016-03-13T12:13:04Z</time>
      </trkpt>
      <trkpt lat="45.3148" lon="6.04828">
        <ele>1723</ele>
        <time>2016-03-13T12:13:09Z</time>
      </trkpt>
      <trkpt lat="45.3149" lon="6.04826">
        <ele>1718</ele>
        <time>2016-03-13T12:13:14Z</time>
      </trkpt>
      <trkpt lat="45.31505" lon="6.04832">
        <ele>1712</ele>
        <time>2016-03-13T12:13:19Z</time>
      </trkpt>
      <trkpt lat="45.31513" lon="6.04829">
        <ele>1711</ele>
        <time>2016-03-13T12:13:24Z</time>
      </trkpt>
      <trkpt lat="45.31513" lon="6.04828">
        <ele>1699</ele>
        <time>2016-03-13T12:14:49Z</time>
      </trkpt>
      <trkpt lat="45.31525" lon="6.04833">
        <ele>1697</ele>
        <time>2016-03-13T12:14:54Z</time>
      </trkpt>
      <trkpt lat="45.31534" lon="6.04842">
        <ele>1696</ele>
        <time>2016-03-13T12:14:59Z</time>
      </trkpt>
      <trkpt lat="45.31534" lon="6.04843">
        <ele>1696</ele>
        <time>2016-03-13T12:15:04Z</time>
      </trkpt>
      <trkpt lat="45.31534" lon="6.04843">
        <ele>1696</ele>
        <time>2016-03-13T12:15:09Z</time>
      </trkpt>
      <trkpt lat="45.3154" lon="6.04829">
        <ele>1693</ele>
        <time>2016-03-13T12:15:14Z</time>
      </trkpt>
      <trkpt lat="45.31554" lon="6.04839">
        <ele>1685</ele>
        <time>2016-03-13T12:15:19Z</time>
      </trkpt>
      <trkpt lat="45.31568" lon="6.04839">
        <ele>1677</ele>
        <time>2016-03-13T12:15:24Z</time>
      </trkpt>
      <trkpt lat="45.31582" lon="6.04844">
        <ele>1673</ele>
        <time>2016-03-13T12:15:29Z</time>
      </trkpt>
      <trkpt lat="45.31582" lon="6.04843">
        <ele>1672</ele>
        <time>2016-03-13T12:15:34Z</time>
      </trkpt>
      <trkpt lat="45.31582" lon="6.04844">
        <ele>1671</ele>
        <time>2016-03-13T12:15:39Z</time>
      </trkpt>
      <trkpt lat="45.31582" lon="6.04844">
        <ele>1670</ele>
        <time>2016-03-13T12:15:44Z</time>
      </trkpt>
      <trkpt lat="45.31582" lon="6.04844">
        <ele>1669</ele>
        <time>2016-03-13T12:15:49Z</time>
      </trkpt>
      <trkpt lat="45.31582" lon="6.04845">
        <ele>1668</ele>
        <time>2016-03-13T12:15:54Z</time>
      </trkpt>
      <trkpt lat="45.31582" lon="6.04846">
        <ele>1667</ele>
        <time>2016-03-13T12:15:59Z</time>
      </trkpt>
      <trkpt lat="45.31584" lon="6.04848">
        <ele>1667</ele>
        <time>2016-03-13T12:16:04Z</time>
      </trkpt>
      <trkpt lat="45.31585" lon="6.0485">
        <ele>1666</ele>
        <time>2016-03-13T12:16:09Z</time>
      </trkpt>
      <trkpt lat="45.31584" lon="6.0485">
        <ele>1666</ele>
        <time>2016-03-13T12:16:14Z</time>
      </trkpt>
      <trkpt lat="45.31584" lon="6.0485">
        <ele>1666</ele>
        <time>2016-03-13T12:16:19Z</time>
      </trkpt>
      <trkpt lat="45.31584" lon="6.0485">
        <ele>1666</ele>
        <time>2016-03-13T12:16:24Z</time>
      </trkpt>
      <trkpt lat="45.31584" lon="6.0485">
        <ele>1666</ele>
        <time>2016-03-13T12:16:29Z</time>
      </trkpt>
      <trkpt lat="45.31585" lon="6.04851">
        <ele>1666</ele>
        <time>2016-03-13T12:16:34Z</time>
      </trkpt>
      <trkpt lat="45.31597" lon="6.04852">
        <ele>1663</ele>
        <time>2016-03-13T12:16:39Z</time>
      </trkpt>
      <trkpt lat="45.31617" lon="6.04859">
        <ele>1661</ele>
        <time>2016-03-13T12:16:44Z</time>
      </trkpt>
      <trkpt lat="45.31623" lon="6.0486">
        <ele>1661</ele>
        <time>2016-03-13T12:16:49Z</time>
      </trkpt>
      <trkpt lat="45.3163" lon="6.04857">
        <ele>1660</ele>
        <time>2016-03-13T12:16:54Z</time>
      </trkpt>
      <trkpt lat="45.31635" lon="6.04842">
        <ele>1658</ele>
        <time>2016-03-13T12:16:59Z</time>
      </trkpt>
      <trkpt lat="45.31629" lon="6.04827">
        <ele>1656</ele>
        <time>2016-03-13T12:17:04Z</time>
      </trkpt>
      <trkpt lat="45.31626" lon="6.04802">
        <ele>1650</ele>
        <time>2016-03-13T12:17:09Z</time>
      </trkpt>
      <trkpt lat="45.31628" lon="6.04775">
        <ele>1645</ele>
        <time>2016-03-13T12:17:14Z</time>
      </trkpt>
      <trkpt lat="45.31627" lon="6.0476">
        <ele>1642</ele>
        <time>2016-03-13T12:17:19Z</time>
      </trkpt>
      <trkpt lat="45.31622" lon="6.04759">
        <ele>1641</ele>
        <time>2016-03-13T12:17:24Z</time>
      </trkpt>
      <trkpt lat="45.31621" lon="6.0476">
        <ele>1640</ele>
        <time>2016-03-13T12:17:29Z</time>
      </trkpt>
      <trkpt lat="45.31617" lon="6.04758">
        <ele>1640</ele>
        <time>2016-03-13T12:17:34Z</time>
      </trkpt>
      <trkpt lat="45.31609" lon="6.0474">
        <ele>1637</ele>
        <time>2016-03-13T12:17:39Z</time>
      </trkpt>
      <trkpt lat="45.31611" lon="6.04716">
        <ele>1633</ele>
        <time>2016-03-13T12:17:44Z</time>
      </trkpt>
      <trkpt lat="45.31614" lon="6.04693">
        <ele>1631</ele>
        <time>2016-03-13T12:17:49Z</time>
      </trkpt>
      <trkpt lat="45.3162" lon="6.0467">
        <ele>1630</ele>
        <time>2016-03-13T12:17:54Z</time>
      </trkpt>
      <trkpt lat="45.3162" lon="6.04662">
        <ele>1629</ele>
        <time>2016-03-13T12:17:59Z</time>
      </trkpt>
      <trkpt lat="45.31626" lon="6.04661">
        <ele>1629</ele>
        <time>2016-03-13T12:18:04Z</time>
      </trkpt>
      <trkpt lat="45.31637" lon="6.04654">
        <ele>1626</ele>
        <time>2016-03-13T12:18:09Z</time>
      </trkpt>
      <trkpt lat="45.31651" lon="6.0465">
        <ele>1623</ele>
        <time>2016-03-13T12:18:14Z</time>
      </trkpt>
      <trkpt lat="45.31667" lon="6.0465">
        <ele>1620</ele>
        <time>2016-03-13T12:18:19Z</time>
      </trkpt>
      <trkpt lat="45.31671" lon="6.04655">
        <ele>1618</ele>
        <time>2016-03-13T12:18:24Z</time>
      </trkpt>
      <trkpt lat="45.31675" lon="6.04656">
        <ele>1616</ele>
        <time>2016-03-13T12:18:29Z</time>
      </trkpt>
      <trkpt lat="45.31683" lon="6.04659">
        <ele>1614</ele>
        <time>2016-03-13T12:18:34Z</time>
      </trkpt>
      <trkpt lat="45.31686" lon="6.04653">
        <ele>1613</ele>
        <time>2016-03-13T12:18:39Z</time>
      </trkpt>
      <trkpt lat="45.31688" lon="6.04653">
        <ele>1610</ele>
        <time>2016-03-13T12:18:44Z</time>
      </trkpt>
      <trkpt lat="45.31688" lon="6.04654">
        <ele>1609</ele>
        <time>2016-03-13T12:18:49Z</time>
      </trkpt>
      <trkpt lat="45.3169" lon="6.04652">
        <ele>1607</ele>
        <time>2016-03-13T12:18:54Z</time>
      </trkpt>
      <trkpt lat="45.31692" lon="6.04649">
        <ele>1605</ele>
        <time>2016-03-13T12:18:59Z</time>
      </trkpt>
      <trkpt lat="45.31694" lon="6.0465">
        <ele>1606</ele>
        <time>2016-03-13T12:19:04Z</time>
      </trkpt>
      <trkpt lat="45.31697" lon="6.04649">
        <ele>1604</ele>
        <time>2016-03-13T12:19:09Z</time>
      </trkpt>
      <trkpt lat="45.317" lon="6.04649">
        <ele>1605</ele>
        <time>2016-03-13T12:19:14Z</time>
      </trkpt>
      <trkpt lat="45.31705" lon="6.04648">
        <ele>1603</ele>
        <time>2016-03-13T12:19:19Z</time>
      </trkpt>
      <trkpt lat="45.31719" lon="6.04644">
        <ele>1598</ele>
        <time>2016-03-13T12:19:24Z</time>
      </trkpt>
      <trkpt lat="45.31736" lon="6.04648">
        <ele>1593</ele>
        <time>2016-03-13T12:19:29Z</time>
      </trkpt>
      <trkpt lat="45.31738" lon="6.04646">
        <ele>1591</ele>
        <time>2016-03-13T12:19:34Z</time>
      </trkpt>
      <trkpt lat="45.3174" lon="6.04644">
        <ele>1590</ele>
        <time>2016-03-13T12:19:39Z</time>
      </trkpt>
      <trkpt lat="45.31751" lon="6.04652">
        <ele>1589</ele>
        <time>2016-03-13T12:19:44Z</time>
      </trkpt>
      <trkpt lat="45.31756" lon="6.04655">
        <ele>1588</ele>
        <time>2016-03-13T12:19:49Z</time>
      </trkpt>
      <trkpt lat="45.3177" lon="6.04659">
        <ele>1586</ele>
        <time>2016-03-13T12:19:54Z</time>
      </trkpt>
      <trkpt lat="45.31775" lon="6.04658">
        <ele>1584</ele>
        <time>2016-03-13T12:19:59Z</time>
      </trkpt>
      <trkpt lat="45.31776" lon="6.04659">
        <ele>1583</ele>
        <time>2016-03-13T12:20:04Z</time>
      </trkpt>
      <trkpt lat="45.31777" lon="6.04657">
        <ele>1582</ele>
        <time>2016-03-13T12:20:09Z</time>
      </trkpt>
      <trkpt lat="45.31778" lon="6.04654">
        <ele>1580</ele>
        <time>2016-03-13T12:20:14Z</time>
      </trkpt>
      <trkpt lat="45.31778" lon="6.04652">
        <ele>1579</ele>
        <time>2016-03-13T12:20:19Z</time>
      </trkpt>
      <trkpt lat="45.3178" lon="6.0465">
        <ele>1578</ele>
        <time>2016-03-13T12:20:24Z</time>
      </trkpt>
      <trkpt lat="45.3178" lon="6.0465">
        <ele>1577</ele>
        <time>2016-03-13T12:20:29Z</time>
      </trkpt>
      <trkpt lat="45.31784" lon="6.04648">
        <ele>1576</ele>
        <time>2016-03-13T12:20:34Z</time>
      </trkpt>
      <trkpt lat="45.31784" lon="6.04647">
        <ele>1576</ele>
        <time>2016-03-13T12:20:39Z</time>
      </trkpt>
      <trkpt lat="45.31784" lon="6.04647">
        <ele>1575</ele>
        <time>2016-03-13T12:20:44Z</time>
      </trkpt>
      <trkpt lat="45.31786" lon="6.04645">
        <ele>1574</ele>
        <time>2016-03-13T12:20:49Z</time>
      </trkpt>
      <trkpt lat="45.31786" lon="6.04643">
        <ele>1573</ele>
        <time>2016-03-13T12:20:54Z</time>
      </trkpt>
      <trkpt lat="45.31789" lon="6.04641">
        <ele>1572</ele>
        <time>2016-03-13T12:20:59Z</time>
      </trkpt>
      <trkpt lat="45.31789" lon="6.04641">
        <ele>1572</ele>
        <time>2016-03-13T12:21:04Z</time>
      </trkpt>
      <trkpt lat="45.31789" lon="6.04641">
        <ele>1572</ele>
        <time>2016-03-13T12:21:09Z</time>
      </trkpt>
      <trkpt lat="45.31789" lon="6.04641">
        <ele>1572</ele>
        <time>2016-03-13T12:21:14Z</time>
      </trkpt>
      <trkpt lat="45.31789" lon="6.04641">
        <ele>1571</ele>
        <time>2016-03-13T12:21:19Z</time>
      </trkpt>
      <trkpt lat="45.31789" lon="6.04641">
        <ele>1571</ele>
        <time>2016-03-13T12:21:24Z</time>
      </trkpt>
      <trkpt lat="45.31793" lon="6.0464">
        <ele>1571</ele>
        <time>2016-03-13T12:21:29Z</time>
      </trkpt>
      <trkpt lat="45.31808" lon="6.0464">
        <ele>1567</ele>
        <time>2016-03-13T12:21:34Z</time>
      </trkpt>
      <trkpt lat="45.31808" lon="6.04626">
        <ele>1561</ele>
        <time>2016-03-13T12:21:39Z</time>
      </trkpt>
      <trkpt lat="45.31825" lon="6.04628">
        <ele>1556</ele>
        <time>2016-03-13T12:21:44Z</time>
      </trkpt>
      <trkpt lat="45.31829" lon="6.04621">
        <ele>1552</ele>
        <time>2016-03-13T12:21:49Z</time>
      </trkpt>
      <trkpt lat="45.31827" lon="6.04621">
        <ele>1552</ele>
        <time>2016-03-13T12:21:54Z</time>
      </trkpt>
      <trkpt lat="45.31827" lon="6.04621">
        <ele>1552</ele>
        <time>2016-03-13T12:21:59Z</time>
      </trkpt>
      <trkpt lat="45.31826" lon="6.04621">
        <ele>1552</ele>
        <time>2016-03-13T12:22:04Z</time>
      </trkpt>
      <trkpt lat="45.31821" lon="6.04614">
        <ele>1551</ele>
        <time>2016-03-13T12:22:09Z</time>
      </trkpt>
      <trkpt lat="45.31834" lon="6.04603">
        <ele>1547</ele>
        <time>2016-03-13T12:22:14Z</time>
      </trkpt>
      <trkpt lat="45.31847" lon="6.04583">
        <ele>1545</ele>
        <time>2016-03-13T12:22:19Z</time>
      </trkpt>
      <trkpt lat="45.31854" lon="6.04558">
        <ele>1543</ele>
        <time>2016-03-13T12:22:24Z</time>
      </trkpt>
      <trkpt lat="45.31855" lon="6.04536">
        <ele>1539</ele>
        <time>2016-03-13T12:22:29Z</time>
      </trkpt>
      <trkpt lat="45.31841" lon="6.04531">
        <ele>1536</ele>
        <time>2016-03-13T12:22:34Z</time>
      </trkpt>
      <trkpt lat="45.31835" lon="6.04508">
        <ele>1532</ele>
        <time>2016-03-13T12:22:39Z</time>
      </trkpt>
      <trkpt lat="45.31832" lon="6.04485">
        <ele>1530</ele>
        <time>2016-03-13T12:22:44Z</time>
      </trkpt>
      <trkpt lat="45.31836" lon="6.04463">
        <ele>1527</ele>
        <time>2016-03-13T12:22:49Z</time>
      </trkpt>
      <trkpt lat="45.31845" lon="6.04447">
        <ele>1525</ele>
        <time>2016-03-13T12:22:54Z</time>
      </trkpt>
      <trkpt lat="45.31858" lon="6.04441">
        <ele>1525</ele>
        <time>2016-03-13T12:22:59Z</time>
      </trkpt>
      <trkpt lat="45.31872" lon="6.04436">
        <ele>1524</ele>
        <time>2016-03-13T12:23:04Z</time>
      </trkpt>
      <trkpt lat="45.31881" lon="6.04428">
        <ele>1526</ele>
        <time>2016-03-13T12:23:09Z</time>
      </trkpt>
      <trkpt lat="45.31897" lon="6.04413">
        <ele>1527</ele>
        <time>2016-03-13T12:23:14Z</time>
      </trkpt>
      <trkpt lat="45.31915" lon="6.04401">
        <ele>1527</ele>
        <time>2016-03-13T12:23:19Z</time>
      </trkpt>
      <trkpt lat="45.31933" lon="6.04389">
        <ele>1528</ele>
        <time>2016-03-13T12:23:24Z</time>
      </trkpt>
      <trkpt lat="45.31947" lon="6.04379">
        <ele>1528</ele>
        <time>2016-03-13T12:23:29Z</time>
      </trkpt>
      <trkpt lat="45.3196" lon="6.04379">
        <ele>1522</ele>
        <time>2016-03-13T12:23:34Z</time>
      </trkpt>
      <trkpt lat="45.3197" lon="6.04384">
        <ele>1520</ele>
        <time>2016-03-13T12:23:39Z</time>
      </trkpt>
      <trkpt lat="45.31982" lon="6.04389">
        <ele>1517</ele>
        <time>2016-03-13T12:23:44Z</time>
      </trkpt>
      <trkpt lat="45.31991" lon="6.04392">
        <ele>1517</ele>
        <time>2016-03-13T12:23:49Z</time>
      </trkpt>
      <trkpt lat="45.31997" lon="6.04392">
        <ele>1517</ele>
        <time>2016-03-13T12:23:54Z</time>
      </trkpt>
      <trkpt lat="45.32002" lon="6.04394">
        <ele>1517</ele>
        <time>2016-03-13T12:23:59Z</time>
      </trkpt>
      <trkpt lat="45.32007" lon="6.04395">
        <ele>1517</ele>
        <time>2016-03-13T12:24:04Z</time>
      </trkpt>
      <trkpt lat="45.32018" lon="6.04404">
        <ele>1512</ele>
        <time>2016-03-13T12:24:09Z</time>
      </trkpt>
      <trkpt lat="45.32031" lon="6.04415">
        <ele>1512</ele>
        <time>2016-03-13T12:24:14Z</time>
      </trkpt>
      <trkpt lat="45.3205" lon="6.04425">
        <ele>1512</ele>
        <time>2016-03-13T12:24:19Z</time>
      </trkpt>
      <trkpt lat="45.32063" lon="6.04418">
        <ele>1512</ele>
        <time>2016-03-13T12:24:24Z</time>
      </trkpt>
      <trkpt lat="45.32077" lon="6.04406">
        <ele>1509</ele>
        <time>2016-03-13T12:24:29Z</time>
      </trkpt>
      <trkpt lat="45.32097" lon="6.04409">
        <ele>1504</ele>
        <time>2016-03-13T12:24:34Z</time>
      </trkpt>
      <trkpt lat="45.32113" lon="6.04428">
        <ele>1499</ele>
        <time>2016-03-13T12:24:39Z</time>
      </trkpt>
      <trkpt lat="45.32122" lon="6.04431">
        <ele>1495</ele>
        <time>2016-03-13T12:24:44Z</time>
      </trkpt>
      <trkpt lat="45.3212" lon="6.04413">
        <ele>1492</ele>
        <time>2016-03-13T12:24:49Z</time>
      </trkpt>
      <trkpt lat="45.32125" lon="6.04401">
        <ele>1492</ele>
        <time>2016-03-13T12:24:54Z</time>
      </trkpt>
      <trkpt lat="45.32139" lon="6.04409">
        <ele>1490</ele>
        <time>2016-03-13T12:24:59Z</time>
      </trkpt>
      <trkpt lat="45.32157" lon="6.04417">
        <ele>1489</ele>
        <time>2016-03-13T12:25:04Z</time>
      </trkpt>
      <trkpt lat="45.32172" lon="6.04406">
        <ele>1489</ele>
        <time>2016-03-13T12:25:09Z</time>
      </trkpt>
      <trkpt lat="45.32182" lon="6.04406">
        <ele>1488</ele>
        <time>2016-03-13T12:25:14Z</time>
      </trkpt>
      <trkpt lat="45.32194" lon="6.04402">
        <ele>1488</ele>
        <time>2016-03-13T12:25:19Z</time>
      </trkpt>
      <trkpt lat="45.32214" lon="6.04396">
        <ele>1484</ele>
        <time>2016-03-13T12:25:24Z</time>
      </trkpt>
      <trkpt lat="45.32232" lon="6.0439">
        <ele>1479</ele>
        <time>2016-03-13T12:25:29Z</time>
      </trkpt>
      <trkpt lat="45.32238" lon="6.04388">
        <ele>1475</ele>
        <time>2016-03-13T12:25:34Z</time>
      </trkpt>
      <trkpt lat="45.32253" lon="6.0438">
        <ele>1470</ele>
        <time>2016-03-13T12:25:39Z</time>
      </trkpt>
      <trkpt lat="45.32268" lon="6.04374">
        <ele>1466</ele>
        <time>2016-03-13T12:25:44Z</time>
      </trkpt>
      <trkpt lat="45.32277" lon="6.04375">
        <ele>1460</ele>
        <time>2016-03-13T12:25:49Z</time>
      </trkpt>
      <trkpt lat="45.32288" lon="6.04377">
        <ele>1456</ele>
        <time>2016-03-13T12:25:54Z</time>
      </trkpt>
      <trkpt lat="45.32306" lon="6.04381">
        <ele>1451</ele>
        <time>2016-03-13T12:25:59Z</time>
      </trkpt>
      <trkpt lat="45.32318" lon="6.04385">
        <ele>1448</ele>
        <time>2016-03-13T12:26:04Z</time>
      </trkpt>
      <trkpt lat="45.32332" lon="6.04393">
        <ele>1444</ele>
        <time>2016-03-13T12:26:09Z</time>
      </trkpt>
      <trkpt lat="45.32341" lon="6.044">
        <ele>1441</ele>
        <time>2016-03-13T12:26:14Z</time>
      </trkpt>
      <trkpt lat="45.32357" lon="6.04395">
        <ele>1439</ele>
        <time>2016-03-13T12:26:19Z</time>
      </trkpt>
      <trkpt lat="45.32374" lon="6.04391">
        <ele>1438</ele>
        <time>2016-03-13T12:26:24Z</time>
      </trkpt>
      <trkpt lat="45.32385" lon="6.04381">
        <ele>1437</ele>
        <time>2016-03-13T12:26:29Z</time>
      </trkpt>
      <trkpt lat="45.32398" lon="6.04372">
        <ele>1436</ele>
        <time>2016-03-13T12:26:34Z</time>
      </trkpt>
      <trkpt lat="45.32412" lon="6.04357">
        <ele>1436</ele>
        <time>2016-03-13T12:26:39Z</time>
      </trkpt>
      <trkpt lat="45.32423" lon="6.04344">
        <ele>1435</ele>
        <time>2016-03-13T12:26:44Z</time>
      </trkpt>
      <trkpt lat="45.32438" lon="6.04331">
        <ele>1432</ele>
        <time>2016-03-13T12:26:49Z</time>
      </trkpt>
      <trkpt lat="45.32454" lon="6.04314">
        <ele>1428</ele>
        <time>2016-03-13T12:26:54Z</time>
      </trkpt>
      <trkpt lat="45.32457" lon="6.04288">
        <ele>1425</ele>
        <time>2016-03-13T12:26:59Z</time>
      </trkpt>
      <trkpt lat="45.32448" lon="6.0426">
        <ele>1420</ele>
        <time>2016-03-13T12:27:04Z</time>
      </trkpt>
      <trkpt lat="45.32439" lon="6.04239">
        <ele>1415</ele>
        <time>2016-03-13T12:27:09Z</time>
      </trkpt>
      <trkpt lat="45.32428" lon="6.0423">
        <ele>1411</ele>
        <time>2016-03-13T12:27:14Z</time>
      </trkpt>
      <trkpt lat="45.32428" lon="6.04228">
        <ele>1410</ele>
        <time>2016-03-13T12:27:19Z</time>
      </trkpt>
      <trkpt lat="45.32427" lon="6.04228">
        <ele>1411</ele>
        <time>2016-03-13T12:27:24Z</time>
      </trkpt>
      <trkpt lat="45.32427" lon="6.04229">
        <ele>1410</ele>
        <time>2016-03-13T12:27:29Z</time>
      </trkpt>
      <trkpt lat="45.32427" lon="6.04228">
        <ele>1410</ele>
        <time>2016-03-13T12:27:34Z</time>
      </trkpt>
      <trkpt lat="45.32427" lon="6.04224">
        <ele>1410</ele>
        <time>2016-03-13T12:27:39Z</time>
      </trkpt>
      <trkpt lat="45.32421" lon="6.04211">
        <ele>1408</ele>
        <time>2016-03-13T12:27:44Z</time>
      </trkpt>
      <trkpt lat="45.32414" lon="6.0419">
        <ele>1402</ele>
        <time>2016-03-13T12:27:49Z</time>
      </trkpt>
      <trkpt lat="45.32401" lon="6.04174">
        <ele>1398</ele>
        <time>2016-03-13T12:27:54Z</time>
      </trkpt>
      <trkpt lat="45.3239" lon="6.04152">
        <ele>1393</ele>
        <time>2016-03-13T12:27:59Z</time>
      </trkpt>
      <trkpt lat="45.32377" lon="6.04129">
        <ele>1389</ele>
        <time>2016-03-13T12:28:04Z</time>
      </trkpt>
      <trkpt lat="45.3237" lon="6.04106">
        <ele>1384</ele>
        <time>2016-03-13T12:28:09Z</time>
      </trkpt>
      <trkpt lat="45.32364" lon="6.04082">
        <ele>1380</ele>
        <time>2016-03-13T12:28:14Z</time>
      </trkpt>
      <trkpt lat="45.32358" lon="6.04059">
        <ele>1375</ele>
        <time>2016-03-13T12:28:19Z</time>
      </trkpt>
      <trkpt lat="45.32357" lon="6.04047">
        <ele>1371</ele>
        <time>2016-03-13T12:28:24Z</time>
      </trkpt>
      <trkpt lat="45.32358" lon="6.04047">
        <ele>1370</ele>
        <time>2016-03-13T12:28:29Z</time>
      </trkpt>
      <trkpt lat="45.3236" lon="6.04047">
        <ele>1370</ele>
        <time>2016-03-13T12:28:34Z</time>
      </trkpt>
      <trkpt lat="45.32361" lon="6.04048">
        <ele>1370</ele>
        <time>2016-03-13T12:28:39Z</time>
      </trkpt>
      <trkpt lat="45.32361" lon="6.04048">
        <ele>1370</ele>
        <time>2016-03-13T12:28:44Z</time>
      </trkpt>
      <trkpt lat="45.32362" lon="6.04046">
        <ele>1370</ele>
        <time>2016-03-13T12:28:49Z</time>
      </trkpt>
      <trkpt lat="45.32365" lon="6.04042">
        <ele>1370</ele>
        <time>2016-03-13T12:28:54Z</time>
      </trkpt>
      <trkpt lat="45.32376" lon="6.04032">
        <ele>1367</ele>
        <time>2016-03-13T12:28:59Z</time>
      </trkpt>
      <trkpt lat="45.32381" lon="6.04032">
        <ele>1366</ele>
        <time>2016-03-13T12:29:04Z</time>
      </trkpt>
      <trkpt lat="45.32386" lon="6.0403">
        <ele>1365</ele>
        <time>2016-03-13T12:29:09Z</time>
      </trkpt>
      <trkpt lat="45.3239" lon="6.04024">
        <ele>1364</ele>
        <time>2016-03-13T12:29:14Z</time>
      </trkpt>
      <trkpt lat="45.32397" lon="6.04025">
        <ele>1363</ele>
        <time>2016-03-13T12:29:19Z</time>
      </trkpt>
      <trkpt lat="45.32407" lon="6.04026">
        <ele>1359</ele>
        <time>2016-03-13T12:29:24Z</time>
      </trkpt>
      <trkpt lat="45.3242" lon="6.04027">
        <ele>1356</ele>
        <time>2016-03-13T12:29:29Z</time>
      </trkpt>
      <trkpt lat="45.32435" lon="6.04029">
        <ele>1353</ele>
        <time>2016-03-13T12:29:34Z</time>
      </trkpt>
      <trkpt lat="45.32448" lon="6.04028">
        <ele>1353</ele>
        <time>2016-03-13T12:29:39Z</time>
      </trkpt>
      <trkpt lat="45.32465" lon="6.04037">
        <ele>1345</ele>
        <time>2016-03-13T12:29:44Z</time>
      </trkpt>
      <trkpt lat="45.32468" lon="6.04039">
        <ele>1340</ele>
        <time>2016-03-13T12:29:49Z</time>
      </trkpt>
      <trkpt lat="45.32475" lon="6.0404">
        <ele>1337</ele>
        <time>2016-03-13T12:29:54Z</time>
      </trkpt>
      <trkpt lat="45.32486" lon="6.04043">
        <ele>1332</ele>
        <time>2016-03-13T12:29:59Z</time>
      </trkpt>
      <trkpt lat="45.32496" lon="6.04045">
        <ele>1329</ele>
        <time>2016-03-13T12:30:04Z</time>
      </trkpt>
      <trkpt lat="45.32507" lon="6.04052">
        <ele>1327</ele>
        <time>2016-03-13T12:30:09Z</time>
      </trkpt>
      <trkpt lat="45.32514" lon="6.04056">
        <ele>1325</ele>
        <time>2016-03-13T12:30:14Z</time>
      </trkpt>
      <trkpt lat="45.32517" lon="6.04056">
        <ele>1327</ele>
        <time>2016-03-13T12:30:19Z</time>
      </trkpt>
      <trkpt lat="45.3252" lon="6.04055">
        <ele>1327</ele>
        <time>2016-03-13T12:30:24Z</time>
      </trkpt>
      <trkpt lat="45.3252" lon="6.04055">
        <ele>1327</ele>
        <time>2016-03-13T12:30:29Z</time>
      </trkpt>
      <trkpt lat="45.32522" lon="6.04054">
        <ele>1327</ele>
        <time>2016-03-13T12:30:34Z</time>
      </trkpt>
      <trkpt lat="45.32524" lon="6.04055">
        <ele>1327</ele>
        <time>2016-03-13T12:30:39Z</time>
      </trkpt>
      <trkpt lat="45.32524" lon="6.0405">
        <ele>1327</ele>
        <time>2016-03-13T12:30:44Z</time>
      </trkpt>
      <trkpt lat="45.32528" lon="6.04053">
        <ele>1326</ele>
        <time>2016-03-13T12:30:49Z</time>
      </trkpt>
      <trkpt lat="45.32533" lon="6.04058">
        <ele>1323</ele>
        <time>2016-03-13T12:30:54Z</time>
      </trkpt>
      <trkpt lat="45.32537" lon="6.04063">
        <ele>1322</ele>
        <time>2016-03-13T12:30:59Z</time>
      </trkpt>
      <trkpt lat="45.32539" lon="6.04063">
        <ele>1322</ele>
        <time>2016-03-13T12:31:04Z</time>
      </trkpt>
      <trkpt lat="45.32539" lon="6.04063">
        <ele>1320</ele>
        <time>2016-03-13T12:31:09Z</time>
      </trkpt>
      <trkpt lat="45.3254" lon="6.04064">
        <ele>1319</ele>
        <time>2016-03-13T12:31:14Z</time>
      </trkpt>
      <trkpt lat="45.3254" lon="6.04064">
        <ele>1317</ele>
        <time>2016-03-13T12:31:19Z</time>
      </trkpt>
      <trkpt lat="45.32542" lon="6.04062">
        <ele>1319</ele>
        <time>2016-03-13T12:31:24Z</time>
      </trkpt>
      <trkpt lat="45.32543" lon="6.0406">
        <ele>1321</ele>
        <time>2016-03-13T12:31:29Z</time>
      </trkpt>
      <trkpt lat="45.32543" lon="6.0406">
        <ele>1321</ele>
        <time>2016-03-13T12:31:34Z</time>
      </trkpt>
      <trkpt lat="45.32544" lon="6.04059">
        <ele>1322</ele>
        <time>2016-03-13T12:31:39Z</time>
      </trkpt>
      <trkpt lat="45.32544" lon="6.04056">
        <ele>1323</ele>
        <time>2016-03-13T12:31:44Z</time>
      </trkpt>
      <trkpt lat="45.32545" lon="6.04055">
        <ele>1323</ele>
        <time>2016-03-13T12:31:49Z</time>
      </trkpt>
      <trkpt lat="45.32544" lon="6.04056">
        <ele>1324</ele>
        <time>2016-03-13T12:31:54Z</time>
      </trkpt>
      <trkpt lat="45.32545" lon="6.04057">
        <ele>1322</ele>
        <time>2016-03-13T12:31:59Z</time>
      </trkpt>
      <trkpt lat="45.32547" lon="6.04065">
        <ele>1320</ele>
        <time>2016-03-13T12:32:04Z</time>
      </trkpt>
      <trkpt lat="45.32549" lon="6.04067">
        <ele>1318</ele>
        <time>2016-03-13T12:32:09Z</time>
      </trkpt>
      <trkpt lat="45.3255" lon="6.04073">
        <ele>1316</ele>
        <time>2016-03-13T12:32:14Z</time>
      </trkpt>
      <trkpt lat="45.32551" lon="6.04076">
        <ele>1316</ele>
        <time>2016-03-13T12:32:19Z</time>
      </trkpt>
      <trkpt lat="45.32551" lon="6.04077">
        <ele>1316</ele>
        <time>2016-03-13T12:32:24Z</time>
      </trkpt>
      <trkpt lat="45.32551" lon="6.04077">
        <ele>1317</ele>
        <time>2016-03-13T12:32:29Z</time>
      </trkpt>
      <trkpt lat="45.3255" lon="6.04077">
        <ele>1317</ele>
        <time>2016-03-13T12:32:34Z</time>
      </trkpt>
      <trkpt lat="45.32551" lon="6.04078">
        <ele>1316</ele>
        <time>2016-03-13T12:32:39Z</time>
      </trkpt>
      <trkpt lat="45.32552" lon="6.04084">
        <ele>1316</ele>
        <time>2016-03-13T12:32:44Z</time>
      </trkpt>
      <trkpt lat="45.32552" lon="6.04085">
        <ele>1317</ele>
        <time>2016-03-13T12:32:49Z</time>
      </trkpt>
      <trkpt lat="45.32555" lon="6.04088">
        <ele>1315</ele>
        <time>2016-03-13T12:32:54Z</time>
      </trkpt>
      <trkpt lat="45.32567" lon="6.04094">
        <ele>1312</ele>
        <time>2016-03-13T12:32:59Z</time>
      </trkpt>
      <trkpt lat="45.32576" lon="6.04093">
        <ele>1310</ele>
        <time>2016-03-13T12:33:04Z</time>
      </trkpt>
      <trkpt lat="45.32591" lon="6.04097">
        <ele>1307</ele>
        <time>2016-03-13T12:33:09Z</time>
      </trkpt>
      <trkpt lat="45.32603" lon="6.04099">
        <ele>1306</ele>
        <time>2016-03-13T12:33:14Z</time>
      </trkpt>
      <trkpt lat="45.3262" lon="6.04094">
        <ele>1304</ele>
        <time>2016-03-13T12:33:19Z</time>
      </trkpt>
      <trkpt lat="45.32631" lon="6.04087">
        <ele>1303</ele>
        <time>2016-03-13T12:33:24Z</time>
      </trkpt>
      <trkpt lat="45.32635" lon="6.04083">
        <ele>1302</ele>
        <time>2016-03-13T12:33:29Z</time>
      </trkpt>
      <trkpt lat="45.32639" lon="6.0408">
        <ele>1302</ele>
        <time>2016-03-13T12:33:34Z</time>
      </trkpt>
      <trkpt lat="45.32641" lon="6.04078">
        <ele>1301</ele>
        <time>2016-03-13T12:33:39Z</time>
      </trkpt>
      <trkpt lat="45.32641" lon="6.04079">
        <ele>1300</ele>
        <time>2016-03-13T12:33:44Z</time>
      </trkpt>
      <trkpt lat="45.3264" lon="6.04079">
        <ele>1299</ele>
        <time>2016-03-13T12:33:49Z</time>
      </trkpt>
      <trkpt lat="45.32642" lon="6.04078">
        <ele>1299</ele>
        <time>2016-03-13T12:33:54Z</time>
      </trkpt>
      <trkpt lat="45.32645" lon="6.04076">
        <ele>1299</ele>
        <time>2016-03-13T12:33:59Z</time>
      </trkpt>
      <trkpt lat="45.32646" lon="6.04075">
        <ele>1298</ele>
        <time>2016-03-13T12:34:04Z</time>
      </trkpt>
      <trkpt lat="45.32647" lon="6.04074">
        <ele>1298</ele>
        <time>2016-03-13T12:34:09Z</time>
      </trkpt>
      <trkpt lat="45.3265" lon="6.04073">
        <ele>1298</ele>
        <time>2016-03-13T12:34:14Z</time>
      </trkpt>
      <trkpt lat="45.32652" lon="6.04071">
        <ele>1298</ele>
        <time>2016-03-13T12:34:19Z</time>
      </trkpt>
      <trkpt lat="45.32655" lon="6.04068">
        <ele>1298</ele>
        <time>2016-03-13T12:34:24Z</time>
      </trkpt>
      <trkpt lat="45.32657" lon="6.04067">
        <ele>1297</ele>
        <time>2016-03-13T12:34:29Z</time>
      </trkpt>
      <trkpt lat="45.32662" lon="6.04063">
        <ele>1297</ele>
        <time>2016-03-13T12:34:34Z</time>
      </trkpt>
      <trkpt lat="45.3267" lon="6.04057">
        <ele>1296</ele>
        <time>2016-03-13T12:34:39Z</time>
      </trkpt>
      <trkpt lat="45.32681" lon="6.04049">
        <ele>1294</ele>
        <time>2016-03-13T12:34:44Z</time>
      </trkpt>
      <trkpt lat="45.32691" lon="6.04044">
        <ele>1293</ele>
        <time>2016-03-13T12:34:49Z</time>
      </trkpt>
      <trkpt lat="45.32702" lon="6.04041">
        <ele>1292</ele>
        <time>2016-03-13T12:34:54Z</time>
      </trkpt>
      <trkpt lat="45.32711" lon="6.04039">
        <ele>1291</ele>
        <time>2016-03-13T12:34:59Z</time>
      </trkpt>
      <trkpt lat="45.32723" lon="6.04036">
        <ele>1290</ele>
        <time>2016-03-13T12:35:04Z</time>
      </trkpt>
      <trkpt lat="45.32736" lon="6.04031">
        <ele>1287</ele>
        <time>2016-03-13T12:35:09Z</time>
      </trkpt>
      <trkpt lat="45.32748" lon="6.04024">
        <ele>1285</ele>
        <time>2016-03-13T12:35:14Z</time>
      </trkpt>
      <trkpt lat="45.32763" lon="6.04015">
        <ele>1284</ele>
        <time>2016-03-13T12:35:19Z</time>
      </trkpt>
      <trkpt lat="45.32774" lon="6.04008">
        <ele>1284</ele>
        <time>2016-03-13T12:35:24Z</time>
      </trkpt>
      <trkpt lat="45.32784" lon="6.04001">
        <ele>1283</ele>
        <time>2016-03-13T12:35:29Z</time>
      </trkpt>
      <trkpt lat="45.32794" lon="6.03993">
        <ele>1283</ele>
        <time>2016-03-13T12:35:34Z</time>
      </trkpt>
      <trkpt lat="45.32801" lon="6.03987">
        <ele>1285</ele>
        <time>2016-03-13T12:35:39Z</time>
      </trkpt>
      <trkpt lat="45.32806" lon="6.0398">
        <ele>1286</ele>
        <time>2016-03-13T12:35:44Z</time>
      </trkpt>
      <trkpt lat="45.32813" lon="6.03965">
        <ele>1287</ele>
        <time>2016-03-13T12:35:49Z</time>
      </trkpt>
      <trkpt lat="45.32814" lon="6.03942">
        <ele>1287</ele>
        <time>2016-03-13T12:35:54Z</time>
      </trkpt>
      <trkpt lat="45.32826" lon="6.03914">
        <ele>1286</ele>
        <time>2016-03-13T12:35:59Z</time>
      </trkpt>
      <trkpt lat="45.32838" lon="6.03895">
        <ele>1285</ele>
        <time>2016-03-13T12:36:04Z</time>
      </trkpt>
      <trkpt lat="45.3285" lon="6.03877">
        <ele>1283</ele>
        <time>2016-03-13T12:36:09Z</time>
      </trkpt>
      <trkpt lat="45.3286" lon="6.0386">
        <ele>1281</ele>
        <time>2016-03-13T12:36:14Z</time>
      </trkpt>
      <trkpt lat="45.32862" lon="6.03841">
        <ele>1280</ele>
        <time>2016-03-13T12:36:19Z</time>
      </trkpt>
      <trkpt lat="45.32866" lon="6.03829">
        <ele>1276</ele>
        <time>2016-03-13T12:36:24Z</time>
      </trkpt>
      <trkpt lat="45.32872" lon="6.03805">
        <ele>1271</ele>
        <time>2016-03-13T12:36:29Z</time>
      </trkpt>
      <trkpt lat="45.32867" lon="6.03771">
        <ele>1266</ele>
        <time>2016-03-13T12:36:34Z</time>
      </trkpt>
      <trkpt lat="45.32861" lon="6.03744">
        <ele>1260</ele>
        <time>2016-03-13T12:36:39Z</time>
      </trkpt>
      <trkpt lat="45.32856" lon="6.03717">
        <ele>1255</ele>
        <time>2016-03-13T12:36:44Z</time>
      </trkpt>
      <trkpt lat="45.32851" lon="6.03704">
        <ele>1252</ele>
        <time>2016-03-13T12:36:49Z</time>
      </trkpt>
      <trkpt lat="45.32847" lon="6.03685">
        <ele>1249</ele>
        <time>2016-03-13T12:36:54Z</time>
      </trkpt>
      <trkpt lat="45.32829" lon="6.03659">
        <ele>1243</ele>
        <time>2016-03-13T12:36:59Z</time>
      </trkpt>
      <trkpt lat="45.32817" lon="6.03643">
        <ele>1239</ele>
        <time>2016-03-13T12:37:04Z</time>
      </trkpt>
      <trkpt lat="45.32805" lon="6.03627">
        <ele>1233</ele>
        <time>2016-03-13T12:37:09Z</time>
      </trkpt>
      <trkpt lat="45.32794" lon="6.03609">
        <ele>1228</ele>
        <time>2016-03-13T12:37:14Z</time>
      </trkpt>
      <trkpt lat="45.32779" lon="6.03599">
        <ele>1223</ele>
        <time>2016-03-13T12:37:19Z</time>
      </trkpt>
      <trkpt lat="45.3277" lon="6.03586">
        <ele>1219</ele>
        <time>2016-03-13T12:37:24Z</time>
      </trkpt>
      <trkpt lat="45.32758" lon="6.03574">
        <ele>1216</ele>
        <time>2016-03-13T12:37:29Z</time>
      </trkpt>
      <trkpt lat="45.32754" lon="6.03564">
        <ele>1214</ele>
        <time>2016-03-13T12:37:34Z</time>
      </trkpt>
      <trkpt lat="45.3276" lon="6.0355">
        <ele>1212</ele>
        <time>2016-03-13T12:37:39Z</time>
      </trkpt>
      <trkpt lat="45.32765" lon="6.03534">
        <ele>1210</ele>
        <time>2016-03-13T12:37:44Z</time>
      </trkpt>
      <trkpt lat="45.32755" lon="6.03524">
        <ele>1208</ele>
        <time>2016-03-13T12:37:49Z</time>
      </trkpt>
      <trkpt lat="45.32757" lon="6.03502">
        <ele>1204</ele>
        <time>2016-03-13T12:37:54Z</time>
      </trkpt>
      <trkpt lat="45.32761" lon="6.03488">
        <ele>1202</ele>
        <time>2016-03-13T12:37:59Z</time>
      </trkpt>
      <trkpt lat="45.32769" lon="6.03469">
        <ele>1198</ele>
        <time>2016-03-13T12:38:04Z</time>
      </trkpt>
      <trkpt lat="45.32783" lon="6.03451">
        <ele>1193</ele>
        <time>2016-03-13T12:38:09Z</time>
      </trkpt>
      <trkpt lat="45.32797" lon="6.03434">
        <ele>1190</ele>
        <time>2016-03-13T12:38:14Z</time>
      </trkpt>
      <trkpt lat="45.32803" lon="6.03425">
        <ele>1190</ele>
        <time>2016-03-13T12:38:19Z</time>
      </trkpt>
      <trkpt lat="45.32802" lon="6.03424">
        <ele>1189</ele>
        <time>2016-03-13T12:38:24Z</time>
      </trkpt>
      <trkpt lat="45.32802" lon="6.03423">
        <ele>1191</ele>
        <time>2016-03-13T12:38:29Z</time>
      </trkpt>
      <trkpt lat="45.32802" lon="6.03424">
        <ele>1190</ele>
        <time>2016-03-13T12:38:34Z</time>
      </trkpt>
      <trkpt lat="45.32802" lon="6.03424">
        <ele>1191</ele>
        <time>2016-03-13T12:38:39Z</time>
      </trkpt>
      <trkpt lat="45.32802" lon="6.03424">
        <ele>1192</ele>
        <time>2016-03-13T12:38:44Z</time>
      </trkpt>
      <trkpt lat="45.32802" lon="6.03425">
        <ele>1192</ele>
        <time>2016-03-13T12:38:49Z</time>
      </trkpt>
      <trkpt lat="45.32802" lon="6.03424">
        <ele>1192</ele>
        <time>2016-03-13T12:38:54Z</time>
      </trkpt>
      <trkpt lat="45.32802" lon="6.03425">
        <ele>1192</ele>
        <time>2016-03-13T12:38:59Z</time>
      </trkpt>
      <trkpt lat="45.32802" lon="6.03425">
        <ele>1192</ele>
        <time>2016-03-13T12:39:04Z</time>
      </trkpt>
      <trkpt lat="45.32802" lon="6.03425">
        <ele>1192</ele>
        <time>2016-03-13T12:39:09Z</time>
      </trkpt>
      <trkpt lat="45.32802" lon="6.03425">
        <ele>1192</ele>
        <time>2016-03-13T12:39:14Z</time>
      </trkpt>
      <trkpt lat="45.32802" lon="6.03425">
        <ele>1192</ele>
        <time>2016-03-13T12:39:19Z</time>
      </trkpt>
      <trkpt lat="45.32802" lon="6.03425">
        <ele>1192</ele>
        <time>2016-03-13T12:39:24Z</time>
      </trkpt>
      <trkpt lat="45.32807" lon="6.0342">
        <ele>1189</ele>
        <time>2016-03-13T12:39:29Z</time>
      </trkpt>
      <trkpt lat="45.3282" lon="6.03404">
        <ele>1186</ele>
        <time>2016-03-13T12:39:34Z</time>
      </trkpt>
      <trkpt lat="45.3283" lon="6.03386">
        <ele>1180</ele>
        <time>2016-03-13T12:39:39Z</time>
      </trkpt>
      <trkpt lat="45.32841" lon="6.03367">
        <ele>1174</ele>
        <time>2016-03-13T12:39:44Z</time>
      </trkpt>
      <trkpt lat="45.32846" lon="6.03341">
        <ele>1168</ele>
        <time>2016-03-13T12:39:49Z</time>
      </trkpt>
      <trkpt lat="45.32856" lon="6.03317">
        <ele>1164</ele>
        <time>2016-03-13T12:39:54Z</time>
      </trkpt>
      <trkpt lat="45.32866" lon="6.03297">
        <ele>1159</ele>
        <time>2016-03-13T12:39:59Z</time>
      </trkpt>
      <trkpt lat="45.32877" lon="6.03282">
        <ele>1155</ele>
        <time>2016-03-13T12:40:04Z</time>
      </trkpt>
      <trkpt lat="45.3289" lon="6.03273">
        <ele>1151</ele>
        <time>2016-03-13T12:40:09Z</time>
      </trkpt>
      <trkpt lat="45.32891" lon="6.03272">
        <ele>1151</ele>
        <time>2016-03-13T12:40:14Z</time>
      </trkpt>
      <trkpt lat="45.32891" lon="6.03273">
        <ele>1150</ele>
        <time>2016-03-13T12:40:19Z</time>
      </trkpt>
      <trkpt lat="45.32895" lon="6.03275">
        <ele>1149</ele>
        <time>2016-03-13T12:40:24Z</time>
      </trkpt>
      <trkpt lat="45.32908" lon="6.0328">
        <ele>1146</ele>
        <time>2016-03-13T12:40:29Z</time>
      </trkpt>
      <trkpt lat="45.32918" lon="6.0328">
        <ele>1146</ele>
        <time>2016-03-13T12:40:34Z</time>
      </trkpt>
      <trkpt lat="45.32921" lon="6.03282">
        <ele>1147</ele>
        <time>2016-03-13T12:40:39Z</time>
      </trkpt>
      <trkpt lat="45.32926" lon="6.03283">
        <ele>1147</ele>
        <time>2016-03-13T12:40:44Z</time>
      </trkpt>
      <trkpt lat="45.32936" lon="6.03288">
        <ele>1147</ele>
        <time>2016-03-13T12:40:49Z</time>
      </trkpt>
      <trkpt lat="45.32946" lon="6.033">
        <ele>1144</ele>
        <time>2016-03-13T12:40:54Z</time>
      </trkpt>
      <trkpt lat="45.32952" lon="6.03308">
        <ele>1144</ele>
        <time>2016-03-13T12:40:59Z</time>
      </trkpt>
      <trkpt lat="45.32963" lon="6.03314">
        <ele>1141</ele>
        <time>2016-03-13T12:41:04Z</time>
      </trkpt>
      <trkpt lat="45.32975" lon="6.03322">
        <ele>1139</ele>
        <time>2016-03-13T12:41:09Z</time>
      </trkpt>
      <trkpt lat="45.32978" lon="6.03323">
        <ele>1138</ele>
        <time>2016-03-13T12:41:14Z</time>
      </trkpt>
      <trkpt lat="45.32981" lon="6.03324">
        <ele>1138</ele>
        <time>2016-03-13T12:41:19Z</time>
      </trkpt>
      <trkpt lat="45.32985" lon="6.03323">
        <ele>1138</ele>
        <time>2016-03-13T12:41:24Z</time>
      </trkpt>
      <trkpt lat="45.3299" lon="6.0332">
        <ele>1135</ele>
        <time>2016-03-13T12:41:29Z</time>
      </trkpt>
      <trkpt lat="45.3299" lon="6.03317">
        <ele>1132</ele>
        <time>2016-03-13T12:41:34Z</time>
      </trkpt>
      <trkpt lat="45.3299" lon="6.03312">
        <ele>1131</ele>
        <time>2016-03-13T12:41:39Z</time>
      </trkpt>
      <trkpt lat="45.3299" lon="6.03312">
        <ele>1131</ele>
        <time>2016-03-13T12:41:44Z</time>
      </trkpt>
      <trkpt lat="45.32992" lon="6.03312">
        <ele>1124</ele>
        <time>2016-03-13T12:44:34Z</time>
      </trkpt>
      <trkpt lat="45.32991" lon="6.0331">
        <ele>1123</ele>
        <time>2016-03-13T12:44:39Z</time>
      </trkpt>
      <trkpt lat="45.3299" lon="6.03308">
        <ele>1122</ele>
        <time>2016-03-13T12:44:44Z</time>
      </trkpt>
      <trkpt lat="45.3299" lon="6.03307">
        <ele>1121</ele>
        <time>2016-03-13T12:44:49Z</time>
      </trkpt>
      <trkpt lat="45.3299" lon="6.03305">
        <ele>1121</ele>
        <time>2016-03-13T12:44:54Z</time>
      </trkpt>
      <trkpt lat="45.32988" lon="6.03305">
        <ele>1119</ele>
        <time>2016-03-13T12:44:59Z</time>
      </trkpt>
      <trkpt lat="45.32987" lon="6.03301">
        <ele>1119</ele>
        <time>2016-03-13T12:45:04Z</time>
      </trkpt>
      <trkpt lat="45.32987" lon="6.03299">
        <ele>1121</ele>
        <time>2016-03-13T12:45:09Z</time>
      </trkpt>
      <trkpt lat="45.32986" lon="6.03297">
        <ele>1122</ele>
        <time>2016-03-13T12:45:14Z</time>
      </trkpt>
      <trkpt lat="45.32983" lon="6.03294">
        <ele>1123</ele>
        <time>2016-03-13T12:45:19Z</time>
      </trkpt>
      <trkpt lat="45.32983" lon="6.0329">
        <ele>1124</ele>
        <time>2016-03-13T12:45:24Z</time>
      </trkpt>
      <trkpt lat="45.32983" lon="6.03287">
        <ele>1124</ele>
        <time>2016-03-13T12:45:29Z</time>
      </trkpt>
      <trkpt lat="45.32982" lon="6.03285">
        <ele>1123</ele>
        <time>2016-03-13T12:45:34Z</time>
      </trkpt>
      <trkpt lat="45.32981" lon="6.03284">
        <ele>1123</ele>
        <time>2016-03-13T12:45:39Z</time>
      </trkpt>
      <trkpt lat="45.32982" lon="6.03281">
        <ele>1123</ele>
        <time>2016-03-13T12:45:44Z</time>
      </trkpt>
      <trkpt lat="45.32981" lon="6.03276">
        <ele>1123</ele>
        <time>2016-03-13T12:45:49Z</time>
      </trkpt>
      <trkpt lat="45.3298" lon="6.03266">
        <ele>1123</ele>
        <time>2016-03-13T12:45:54Z</time>
      </trkpt>
      <trkpt lat="45.32979" lon="6.03267">
        <ele>1120</ele>
        <time>2016-03-13T12:45:59Z</time>
      </trkpt>
      <trkpt lat="45.3298" lon="6.03265">
        <ele>1119</ele>
        <time>2016-03-13T12:46:04Z</time>
      </trkpt>
      <trkpt lat="45.32986" lon="6.03256">
        <ele>1119</ele>
        <time>2016-03-13T12:46:09Z</time>
      </trkpt>
      <trkpt lat="45.3299" lon="6.03245">
        <ele>1121</ele>
        <time>2016-03-13T12:46:14Z</time>
      </trkpt>
      <trkpt lat="45.32998" lon="6.0323">
        <ele>1121</ele>
        <time>2016-03-13T12:46:19Z</time>
      </trkpt>
      <trkpt lat="45.33" lon="6.03222">
        <ele>1116</ele>
        <time>2016-03-13T12:46:24Z</time>
      </trkpt>
      <trkpt lat="45.33002" lon="6.03229">
        <ele>1114</ele>
        <time>2016-03-13T12:46:29Z</time>
      </trkpt>
      <trkpt lat="45.33003" lon="6.03231">
        <ele>1114</ele>
        <time>2016-03-13T12:46:34Z</time>
      </trkpt>
      <trkpt lat="45.33007" lon="6.03239">
        <ele>1113</ele>
        <time>2016-03-13T12:46:39Z</time>
      </trkpt>
      <trkpt lat="45.33011" lon="6.03251">
        <ele>1112</ele>
        <time>2016-03-13T12:46:44Z</time>
      </trkpt>
      <trkpt lat="45.33017" lon="6.03264">
        <ele>1112</ele>
        <time>2016-03-13T12:46:49Z</time>
      </trkpt>
      <trkpt lat="45.33022" lon="6.03276">
        <ele>1111</ele>
        <time>2016-03-13T12:46:54Z</time>
      </trkpt>
      <trkpt lat="45.33028" lon="6.03289">
        <ele>1109</ele>
        <time>2016-03-13T12:46:59Z</time>
      </trkpt>
      <trkpt lat="45.33037" lon="6.03303">
        <ele>1109</ele>
        <time>2016-03-13T12:47:04Z</time>
      </trkpt>
      <trkpt lat="45.33044" lon="6.03317">
        <ele>1108</ele>
        <time>2016-03-13T12:47:09Z</time>
      </trkpt>
      <trkpt lat="45.3305" lon="6.03332">
        <ele>1107</ele>
        <time>2016-03-13T12:47:14Z</time>
      </trkpt>
      <trkpt lat="45.33052" lon="6.03346">
        <ele>1105</ele>
        <time>2016-03-13T12:47:19Z</time>
      </trkpt>
      <trkpt lat="45.3305" lon="6.03363">
        <ele>1105</ele>
        <time>2016-03-13T12:47:24Z</time>
      </trkpt>
      <trkpt lat="45.33045" lon="6.03375">
        <ele>1105</ele>
        <time>2016-03-13T12:47:29Z</time>
      </trkpt>
      <trkpt lat="45.33045" lon="6.0338">
        <ele>1106</ele>
        <time>2016-03-13T12:47:34Z</time>
      </trkpt>
      <trkpt lat="45.33044" lon="6.03388">
        <ele>1107</ele>
        <time>2016-03-13T12:47:39Z</time>
      </trkpt>
      <trkpt lat="45.33045" lon="6.03395">
        <ele>1105</ele>
        <time>2016-03-13T12:47:44Z</time>
      </trkpt>
      <trkpt lat="45.33044" lon="6.03396">
        <ele>1103</ele>
        <time>2016-03-13T12:47:49Z</time>
      </trkpt>
    </trkseg>
  </trk>
</gpx>